[[{"header":{"parameterUnit":"m.s-1","parameterCategory":1,"la1":30.6,"la2":29.2853,"lo1":-89.7004,"lo2":-87.6739,"dy":0.0162,"dx":0.0183,"nx":112,"ny":82,"refTime":"2023-07-19T12:00:00:Z","depth":0,"parameterNumber":2,"parameterNumberName":"U-component_of_WINDS"},"data":[0.0,0.0,0.0,0.0,0.0,0.0,0.0,0.0,0.0,0.0,0.0,0.0,0.0,0.0,0.0,0.0,0.0,0.0,0.0,0.0,0.0,0.0,0.0,0.0,0.0,0.0,0.0,0.0,0.0,0.0,0.0,0.0,0.0,0.0,0.0,0.0,0.0,0.0,0.0,0.0,0.0,0.0,0.0,0.0,0.0,0.0,0.0,0.0,0.0,0.0,0.0,0.0,0.0,0.0,0.0,0.0,0.0,0.0,0.0,0.0,0.0,0.0,0.0,0.0,0.0,0.0,0.0,0.0,0.0,0.0,0.0,0.0,0.0,0.0,0.0,0.0,0.0,0.0,0.0,0.0,0.0,0.0,0.0,0.0,0.0,0.0,0.0,0.0,0.0,0.0,0.0,-1.516,-1.7915,-1.9949,-2.0641,-2.1443,-2.1129,-1.9246,0.0,0.0,0.0,0.0,0.0,0.0,0.0,0.0,0.0,0.0,0.0,0.0,0.0,0.0,0.0,0.0,0.0,0.0,0.0,0.0,0.0,0.0,0.0,0.0,0.0,0.0,0.0,0.0,0.0,0.0,0.0,0.0,0.0,0.0,0.0,0.0,0.0,0.0,0.0,0.0,0.0,0.0,0.0,0.0,0.0,0.0,0.0,0.0,0.0,0.0,0.0,0.0,0.0,0.0,0.0,0.0,0.0,0.0,0.0,0.0,0.0,0.0,0.0,0.0,0.0,0.0,0.0,0.0,0.0,0.0,0.0,0.0,0.0,0.0,0.0,0.0,0.0,0.0,0.0,0.0,0.0,0.0,0.0,0.0,0.0,0.0,0.0,0.0,0.0,0.0,0.0,0.0,0.0,0.0,0.0,0.0,0.0,0.0,0.0,0.0,0.0,0.0,0.0,0.0,-1.5756,-1.6908,-1.8292,-1.956,-2.0603,-2.0376,-2.0049,-1.971,0.0,0.0,0.0,0.0,0.0,0.0,0.0,0.0,0.0,0.0,0.0,0.0,0.0,0.0,0.0,0.0,0.0,0.0,0.0,0.0,0.0,0.0,0.0,0.0,0.0,0.0,0.0,0.0,0.0,0.0,0.0,0.0,0.0,0.0,0.0,0.0,0.0,0.0,0.0,0.0,0.0,0.0,0.0,0.0,0.0,0.0,0.0,0.0,0.0,0.0,0.0,0.0,0.0,0.0,0.0,0.0,0.0,0.0,0.0,0.0,0.0,0.0,0.0,0.0,0.0,0.0,0.0,0.0,0.0,0.0,0.0,0.0,0.0,0.0,0.0,0.0,0.0,0.0,0.0,0.0,0.0,0.0,0.0,0.0,0.0,0.0,0.0,0.0,0.0,0.0,0.0,0.0,0.0,0.0,0.0,0.0,0.0,0.0,0.0,0.0,0.0,0.0,0.0,-1.5299,-1.5814,-1.726,-1.8367,-1.9321,-2.0125,-1.9698,-1.9359,-1.9359,-1.8281,0.0,0.0,0.0,0.0,0.0,0.0,0.0,0.0,0.0,0.0,0.0,0.0,0.0,0.0,0.0,0.0,0.0,0.0,0.0,0.0,0.0,0.0,0.0,0.0,0.0,0.0,0.0,0.0,0.0,0.0,0.0,0.0,0.0,0.0,0.0,0.0,0.0,0.0,0.0,0.0,0.0,0.0,0.0,0.0,0.0,0.0,0.0,0.0,0.0,0.0,0.0,0.0,0.0,0.0,0.0,0.0,0.0,0.0,0.0,0.0,0.0,0.0,0.0,0.0,0.0,0.0,0.0,0.0,0.0,0.0,0.0,0.0,0.0,0.0,0.0,0.0,0.0,0.0,0.0,0.0,0.0,0.0,0.0,0.0,0.0,0.0,0.0,0.0,0.0,0.0,0.0,0.0,0.0,0.0,0.0,0.0,0.0,0.0,0.0,0.0,0.0,0.0,-1.5198,-1.5399,-1.7209,-1.8141,-1.8882,-1.956,-1.9108,-1.892,-1.9171,-1.7616,0.0,0.0,0.0,0.0,0.0,0.0,0.0,0.0,0.0,0.0,0.0,0.0,0.0,0.0,0.0,0.0,0.0,0.0,0.0,0.0,0.0,0.0,0.0,0.0,0.0,0.0,0.0,0.0,0.0,0.0,0.0,0.0,0.0,0.0,0.0,0.0,0.0,0.0,0.0,0.0,0.0,0.0,0.0,0.0,0.0,0.0,0.0,0.0,0.0,0.0,0.0,0.0,0.0,0.0,0.0,0.0,0.0,0.0,0.0,0.0,0.0,0.0,0.0,0.0,0.0,0.0,0.0,0.0,0.0,0.0,0.0,0.0,0.0,0.0,0.0,0.0,0.0,0.0,0.0,0.0,0.0,0.0,0.0,0.0,0.0,0.0,0.0,0.0,0.0,0.0,0.0,0.0,0.0,0.0,0.0,0.0,0.0,0.0,0.0,0.0,0.0,0.0,-1.5097,-1.4991,-1.7172,-1.7473,-1.7928,-1.897,-1.8556,-1.8694,-1.9685,-1.8216,0.0,0.0,0.0,0.0,0.0,0.0,0.0,0.0,0.0,0.0,0.0,0.0,0.0,0.0,0.0,0.0,0.0,0.0,0.0,0.0,0.0,0.0,0.0,0.0,0.0,0.0,0.0,0.0,0.0,0.0,0.0,0.0,0.0,0.0,0.0,0.0,0.0,0.0,0.0,0.0,0.0,0.0,0.0,0.0,0.0,0.0,0.0,0.0,0.0,0.0,0.0,0.0,0.0,0.0,0.0,0.0,0.0,0.0,0.0,0.0,0.0,0.0,0.0,0.0,0.0,0.0,0.0,0.0,0.0,0.0,0.0,0.0,0.0,0.0,0.0,0.0,0.0,0.0,0.0,0.0,0.0,0.0,0.0,0.0,0.0,0.0,0.0,0.0,0.0,0.0,0.0,0.0,0.0,0.0,0.0,0.0,0.0,0.0,0.0,0.0,0.0,0.0,-1.5467,-1.5412,0.0,-1.6983,-1.7574,-1.7965,-1.7815,-1.8016,-1.8756,0.0,0.0,0.0,0.0,0.0,0.0,0.0,0.0,0.0,0.0,0.0,0.0,0.0,0.0,0.0,0.0,0.0,0.0,0.0,0.0,0.0,0.0,0.0,0.0,0.0,0.0,0.0,0.0,0.0,0.0,0.0,0.0,0.0,0.0,0.0,0.0,0.0,0.0,0.0,0.0,0.0,0.0,0.0,0.0,0.0,0.0,0.0,0.0,0.0,0.0,0.0,0.0,0.0,0.0,0.0,0.0,0.0,0.0,0.0,0.0,0.0,0.0,0.0,0.0,0.0,0.0,0.0,0.0,0.0,0.0,0.0,0.0,0.0,0.0,0.0,0.0,0.0,0.0,0.0,0.0,0.0,0.0,0.0,0.0,0.0,0.0,0.0,0.0,0.0,0.0,0.0,0.0,0.0,0.0,0.0,0.0,0.0,0.0,0.0,0.0,0.0,0.0,-1.5906,-1.5655,-1.5567,0.0,-1.6647,-1.7187,-1.7385,-1.7212,-1.7501,-1.8405,0.0,0.0,0.0,0.0,0.0,0.0,0.0,0.0,0.0,0.0,0.0,0.0,0.0,0.0,0.0,0.0,0.0,0.0,0.0,0.0,0.0,0.0,0.0,0.0,0.0,0.0,0.0,0.0,0.0,0.0,0.0,0.0,0.0,0.0,0.0,0.0,0.0,0.0,0.0,0.0,0.0,0.0,0.0,0.0,0.0,0.0,0.0,0.0,0.0,0.0,0.0,0.0,0.0,0.0,0.0,0.0,0.0,0.0,0.0,0.0,0.0,0.0,0.0,0.0,0.0,0.0,0.0,0.0,0.0,0.0,0.0,0.0,0.0,0.0,0.0,0.0,0.0,0.0,0.0,0.0,0.0,0.0,0.0,0.0,0.0,0.0,0.0,0.0,0.0,0.0,0.0,0.0,0.0,0.0,0.0,0.0,0.0,0.0,0.0,0.0,0.0,0.0,-1.635,-1.5563,-1.5311,-1.6375,-1.65,-1.6748,-1.7348,-1.6848,-1.7215,0.0,0.0,0.0,0.0,0.0,0.0,0.0,0.0,0.0,0.0,0.0,0.0,0.0,0.0,0.0,0.0,0.0,0.0,0.0,0.0,0.0,0.0,0.0,0.0,0.0,0.0,0.0,0.0,0.0,0.0,0.0,0.0,0.0,0.0,0.0,0.0,0.0,0.0,0.0,0.0,0.0,0.0,0.0,0.0,0.0,0.0,0.0,0.0,0.0,0.0,0.0,0.0,0.0,0.0,0.0,0.0,0.0,0.0,0.0,0.0,0.0,0.0,0.0,0.0,0.0,0.0,0.0,0.0,0.0,0.0,0.0,0.0,0.0,0.0,0.0,0.0,0.0,0.0,0.0,0.0,0.0,0.0,0.0,0.0,0.0,0.0,0.0,0.0,0.0,0.0,0.0,0.0,0.0,0.0,0.0,0.0,0.0,0.0,0.0,0.0,0.0,0.0,0.0,-1.5844,-1.5336,-1.516,-1.5856,-1.6262,-1.6563,-1.676,-1.6588,-1.7052,-1.8343,0.0,0.0,0.0,0.0,0.0,0.0,0.0,0.0,0.0,0.0,0.0,0.0,0.0,0.0,0.0,0.0,0.0,0.0,0.0,0.0,0.0,0.0,0.0,0.0,0.0,0.0,0.0,0.0,0.0,0.0,0.0,0.0,0.0,0.0,0.0,0.0,0.0,0.0,0.0,0.0,0.0,0.0,0.0,0.0,0.0,0.0,0.0,0.0,0.0,0.0,0.0,0.0,0.0,0.0,0.0,0.0,0.0,0.0,0.0,0.0,0.0,0.0,0.0,0.0,0.0,0.0,0.0,0.0,0.0,0.0,0.0,0.0,0.0,0.0,0.0,0.0,0.0,0.0,0.0,0.0,0.0,0.0,0.0,0.0,0.0,0.0,0.0,0.0,0.0,0.0,0.0,0.0,0.0,0.0,0.0,0.0,0.0,0.0,0.0,0.0,0.0,0.0,-1.5957,-1.5563,-1.5417,-1.5969,-1.63,-1.65,-1.65,-1.65,-1.6911,-1.7815,0.0,0.0,0.0,0.0,0.0,0.0,0.0,0.0,0.0,0.0,0.0,0.0,0.0,0.0,0.0,0.0,0.0,0.0,0.0,0.0,0.0,0.0,0.0,0.0,0.0,0.0,0.0,0.0,0.0,0.0,0.0,0.0,0.0,0.0,0.0,0.0,0.0,0.0,0.0,0.0,0.0,0.0,0.0,0.0,0.0,0.0,0.0,0.0,0.0,0.0,0.0,0.0,0.0,0.0,0.0,0.0,0.0,0.0,0.0,0.0,0.0,0.0,0.0,0.0,0.0,0.0,0.0,0.0,0.0,0.0,0.0,0.0,0.0,0.0,0.0,0.0,0.0,0.0,0.0,0.0,0.0,0.0,0.0,0.0,0.0,0.0,0.0,0.0,0.0,0.0,0.0,0.0,0.0,0.0,0.0,0.0,0.0,0.0,0.0,0.0,0.0,0.0,-1.6437,-1.6032,-1.5906,-1.6437,-1.65,-1.65,-1.65,-1.65,-1.6773,-1.7373,0.0,0.0,0.0,0.0,0.0,0.0,0.0,0.0,0.0,0.0,0.0,0.0,0.0,0.0,0.0,0.0,0.0,0.0,0.0,0.0,0.0,0.0,0.0,0.0,0.0,0.0,0.0,0.0,0.0,0.0,0.0,0.0,0.0,0.0,0.0,0.0,0.0,0.0,0.0,0.0,0.0,0.0,0.0,0.0,0.0,0.0,0.0,0.0,0.0,0.0,0.0,0.0,0.0,0.0,0.0,0.0,0.0,0.0,0.0,0.0,-1.6228,0.0,0.0,0.0,0.0,0.0,0.0,0.0,0.0,0.0,0.0,0.0,0.0,0.0,0.0,0.0,0.0,0.0,0.0,0.0,0.0,0.0,0.0,0.0,0.0,0.0,0.0,0.0,0.0,0.0,0.0,0.0,0.0,0.0,0.0,0.0,0.0,0.0,0.0,0.0,0.0,0.0,-1.6488,-1.6032,-1.5906,-1.6437,-1.65,-1.65,-1.65,-1.65,-1.6773,-1.7373,-1.7061,0.0,0.0,0.0,0.0,0.0,0.0,0.0,0.0,0.0,0.0,0.0,0.0,0.0,0.0,0.0,0.0,0.0,0.0,0.0,0.0,0.0,0.0,0.0,0.0,0.0,0.0,0.0,0.0,0.0,0.0,0.0,0.0,0.0,0.0,0.0,0.0,0.0,0.0,0.0,0.0,0.0,0.0,0.0,0.0,0.0,0.0,0.0,0.0,0.0,0.0,0.0,0.0,0.0,0.0,0.0,0.0,0.0,0.0,0.0,0.0,-1.804,0.0,0.0,0.0,0.0,0.0,0.0,0.0,0.0,0.0,0.0,0.0,0.0,0.0,0.0,0.0,0.0,0.0,0.0,0.0,0.0,0.0,0.0,0.0,0.0,0.0,0.0,0.0,0.0,0.0,0.0,0.0,0.0,0.0,0.0,0.0,0.0,0.0,0.0,0.0,0.0,-1.6936,-1.6446,-1.6308,-1.6873,-1.6663,-1.6613,-1.6911,-1.6663,-1.6626,-1.6948,-1.6948,0.0,0.0,0.0,0.0,0.0,0.0,0.0,0.0,0.0,0.0,0.0,0.0,0.0,0.0,0.0,0.0,0.0,0.0,0.0,0.0,0.0,0.0,0.0,0.0,0.0,0.0,0.0,0.0,0.0,0.0,0.0,0.0,0.0,0.0,0.0,0.0,0.0,0.0,0.0,0.0,0.0,0.0,0.0,0.0,0.0,0.0,0.0,0.0,0.0,0.0,0.0,0.0,0.0,-2.0497,-2.1837,-2.1956,-2.1677,-2.2468,-2.3976,-2.2034,-2.0689,-1.9915,-2.0368,0.0,0.0,0.0,0.0,0.0,0.0,0.0,0.0,0.0,0.0,0.0,0.0,0.0,0.0,0.0,0.0,0.0,0.0,0.0,0.0,0.0,0.0,0.0,0.0,-2.0189,-2.0075,0.0,0.0,0.0,0.0,0.0,0.0,0.0,0.0,0.0,0.0,0.0,0.0,-1.7262,-1.681,-1.6697,-1.7187,-1.681,-1.671,-1.7187,-1.6798,-1.65,-1.65,-1.6974,-1.7061,0.0,0.0,0.0,0.0,0.0,0.0,0.0,0.0,0.0,0.0,0.0,0.0,0.0,0.0,0.0,0.0,0.0,0.0,0.0,0.0,0.0,0.0,0.0,0.0,0.0,0.0,0.0,0.0,0.0,0.0,0.0,0.0,-1.3381,-1.3795,0.0,0.0,0.0,0.0,0.0,0.0,0.0,0.0,0.0,0.0,0.0,0.0,0.0,-1.8256,-1.9052,-2.0237,-2.0334,-1.9342,-2.1631,-2.2419,-2.1931,-2.2626,-2.3461,-2.4455,-2.5004,0.0,-2.2441,-2.0661,0.0,0.0,0.0,0.0,0.0,0.0,0.0,0.0,0.0,0.0,0.0,0.0,0.0,0.0,0.0,0.0,0.0,0.0,0.0,0.0,0.0,0.0,-1.971,-1.9786,-1.9861,-1.9974,0.0,-2.0377,-2.015,-1.9096,-1.907,0.0,0.0,0.0,0.0,0.0,0.0,0.0,-1.676,-1.6538,-1.6525,-1.66,-1.6538,-1.6525,-1.66,-1.6538,-1.65,-1.65,-1.6563,-1.6823,-1.725,-1.6861,0.0,0.0,0.0,0.0,0.0,0.0,0.0,0.0,0.0,0.0,0.0,0.0,0.0,0.0,0.0,0.0,0.0,0.0,0.0,0.0,0.0,0.0,0.0,0.0,0.0,0.0,0.0,0.0,0.0,-1.4046,-1.3782,-1.3644,-1.3397,-1.3232,0.0,0.0,0.0,0.0,0.0,0.0,0.0,0.0,0.0,-1.8266,-1.9878,-2.0324,-1.952,-2.221,-2.2966,-2.182,-2.4209,-2.5384,-2.5405,-2.5777,-2.652,-2.7519,-2.7923,-2.7469,-2.618,-2.3979,-2.2799,-2.2293,0.0,0.0,0.0,0.0,-2.1114,-2.0901,-2.133,-2.1305,0.0,-2.1845,0.0,0.0,0.0,0.0,0.0,0.0,0.0,0.0,0.0,0.0,-2.1217,-2.1217,-2.1443,-2.1628,-2.1606,-2.1594,-2.1267,0.0,-1.9685,-1.9359,-1.9145,0.0,0.0,0.0,0.0,-1.7564,-1.7074,-1.6722,-1.6635,-1.6974,-1.671,-1.6647,-1.6974,-1.6688,-1.65,-1.65,-1.65,-1.6613,-1.6886,-1.6638,-1.6613,0.0,0.0,0.0,0.0,0.0,0.0,0.0,0.0,0.0,0.0,0.0,0.0,0.0,0.0,0.0,0.0,0.0,0.0,0.0,0.0,0.0,0.0,0.0,0.0,0.0,0.0,0.0,0.0,-1.399,-1.3941,-1.3694,-1.3769,-1.3828,0.0,0.0,0.0,0.0,0.0,0.0,-1.7613,-1.8956,-1.9777,-1.9984,-2.2111,-2.2507,-2.0982,-2.411,-2.523,-2.4296,-2.6489,-2.7715,-2.8124,-2.8386,-2.8988,-2.9792,-2.9792,-2.9553,-2.8976,-2.6741,-2.5096,-2.3941,-2.3496,-2.2937,-2.2422,-2.307,-2.3158,-2.3037,-2.359,-2.3778,-2.3778,-2.3735,0.0,-2.2811,-2.0991,0.0,0.0,0.0,0.0,-2.0514,-2.083,-2.1694,-2.2493,-2.2493,-2.2807,-2.2995,-2.2581,-2.241,-2.1983,0.0,-2.02,-1.9798,-1.9798,0.0,0.0,0.0,0.0,-1.7752,-1.7614,-1.7212,-1.7061,-1.7373,-1.6999,-1.6861,-1.7137,-1.6773,-1.65,-1.65,-1.65,-1.65,-1.65,-1.65,-1.65,-1.65,0.0,0.0,0.0,0.0,0.0,0.0,0.0,0.0,0.0,0.0,0.0,0.0,0.0,0.0,0.0,0.0,0.0,0.0,0.0,0.0,0.0,0.0,0.0,0.0,0.0,0.0,0.0,0.0,0.0,-1.3977,-1.4463,0.0,0.0,0.0,0.0,-1.6502,-1.7311,-1.8325,-1.9511,-2.0764,-2.1941,-2.2933,-2.4348,-2.52,-2.5462,-2.6109,-2.6401,-2.6363,-2.7515,-2.806,-2.8136,-2.9236,-2.9753,-2.9792,-2.9792,-2.9779,-2.9578,-2.7379,-2.6399,-2.6172,-2.4569,-2.4243,-2.4562,-2.413,-2.4268,-2.4525,-2.3496,-2.3145,-2.3396,-2.4971,-2.5448,-2.5021,-2.2849,-2.2146,0.0,0.0,-2.0928,-2.2071,-2.1581,-2.2272,-2.3058,-2.3058,-2.3083,-2.3095,-2.307,-2.2656,-2.1983,0.0,-2.02,-1.9798,-1.9798,0.0,-1.897,-1.8995,-1.8958,-1.8732,-1.8229,-1.8141,-1.7928,-1.7461,-1.7373,-1.7137,-1.6588,-1.6513,-1.65,-1.65,-1.65,-1.65,-1.65,-1.65,-1.65,-1.65,-1.65,0.0,0.0,0.0,0.0,0.0,0.0,0.0,0.0,0.0,0.0,0.0,0.0,0.0,0.0,0.0,0.0,0.0,0.0,0.0,0.0,0.0,0.0,0.0,0.0,0.0,0.0,0.0,0.0,-1.6486,-1.6768,0.0,-1.7204,-1.7295,-1.7777,-1.8951,-1.9527,-2.0709,-2.2697,-2.4488,-2.5402,-2.5345,-2.7478,-2.7881,-2.6255,-2.7825,-2.8251,-2.7522,-2.8648,-2.9197,-2.9197,-2.9624,-2.9792,-2.9792,-2.9792,-2.9792,-2.9729,-2.8938,-2.8172,-2.7457,-2.6866,-2.6327,-2.5937,-2.6452,-2.654,-2.6352,-2.5937,-2.5799,-2.5724,-2.5247,-2.5096,-2.4788,-2.3271,-2.2807,-2.2681,-2.2092,-2.2619,-2.3263,-2.2669,-2.3113,-2.359,-2.3195,-2.3108,-2.3108,-2.3108,-2.2945,-2.2694,-2.2334,-2.0928,-1.9924,-2.0314,-1.9623,-1.9008,-1.9008,-1.9008,-1.8807,-1.8279,-1.8204,-1.799,-1.7461,-1.741,-1.7149,-1.655,-1.65,-1.65,-1.65,-1.65,-1.65,-1.65,-1.65,-1.65,-1.65,-1.65,-1.65,0.0,0.0,0.0,0.0,0.0,0.0,0.0,0.0,0.0,0.0,0.0,0.0,0.0,0.0,0.0,0.0,0.0,0.0,0.0,0.0,0.0,0.0,0.0,0.0,0.0,0.0,-1.7161,-1.8286,-1.8564,-1.8901,-1.956,-1.9636,-2.0272,-2.1846,-2.2335,-2.3486,-2.5608,-2.7037,-2.7711,-2.7626,-2.9383,-2.9447,-2.7637,-2.9091,-2.9417,-2.8676,-2.9443,-2.9792,-2.9792,-2.9792,-2.9792,-2.9792,-2.9792,-2.9792,-2.9792,-2.9792,-2.9352,-2.8674,-2.8674,-2.8222,-2.7706,-2.8411,-2.8448,-2.8072,-2.7695,-2.7318,-2.6864,-2.5724,-2.5372,-2.5197,-2.4224,-2.3935,-2.3898,-2.3722,-2.3948,-2.4142,-2.3547,-2.3715,-2.3853,-2.3246,-2.3258,-2.3346,-2.3145,-2.3409,-2.3559,-2.3183,-2.1754,-2.0765,-2.1182,-2.0464,-1.9835,-1.9835,-1.9698,-1.9447,-1.9083,-1.8869,-1.8468,-1.7762,-1.7664,-1.735,-1.6563,-1.6697,-1.6722,-1.65,-1.6697,-1.6701,-1.65,-1.65,-1.65,-1.65,-1.65,-1.6588,-1.681,0.0,0.0,0.0,0.0,0.0,0.0,0.0,0.0,0.0,0.0,0.0,0.0,0.0,0.0,0.0,0.0,0.0,0.0,0.0,0.0,0.0,0.0,0.0,-1.6886,-1.7329,-1.7997,-1.9281,-1.9811,-2.0507,-2.1654,-2.2518,-2.3658,-2.5182,-2.5645,-2.652,-2.806,-2.8148,-2.8661,-2.9753,-2.9817,-2.9817,-2.9792,-2.9792,-2.9792,-2.9792,-2.9792,-2.9792,-2.9792,-2.9792,-2.9792,-2.9792,-2.9792,-2.9792,-2.9792,-2.9792,-2.9792,-2.9792,-2.9792,-2.9792,-2.9792,-2.9792,-2.9767,-2.9578,-2.8461,-2.7381,-2.6512,-2.6499,-2.6499,-2.6411,-2.5799,-2.5624,-2.5511,-2.4996,-2.4825,-2.4745,-2.4167,-2.4042,-2.3904,-2.3283,-2.3602,-2.3866,-2.3258,-2.401,-2.4462,-2.3371,-2.2706,-2.2347,-2.2322,-2.187,-2.1506,-2.1493,-2.1069,0.0,-2.0691,-2.0189,-1.9397,-1.8342,-1.8229,-1.7754,-1.6626,-1.7061,-1.7137,-1.6538,-1.7049,-1.7099,-1.6525,-1.65,-1.65,-1.65,-1.65,-1.681,-1.741,0.0,0.0,0.0,0.0,0.0,0.0,0.0,0.0,0.0,0.0,0.0,0.0,0.0,0.0,0.0,0.0,0.0,0.0,0.0,0.0,0.0,0.0,-1.7399,-1.7681,-1.9298,-2.0918,-2.2201,-2.342,-2.4432,-2.5072,-2.5348,-2.6004,-2.7221,-2.739,-2.7993,-2.9275,-2.9698,-2.9866,-2.9804,-3.0181,-3.0193,-2.9792,-2.9792,-2.9792,-2.9792,-2.9792,-2.9792,-2.9792,-2.9792,-2.9792,-2.9792,-2.9792,-2.9792,-2.9792,-2.9792,-2.9792,-2.9792,-2.9792,-2.9792,-2.9792,-2.9792,-2.9277,-2.8473,-2.7758,-2.7341,-2.7027,-2.6625,-2.6763,-2.6989,-2.6424,-2.626,-2.6135,-2.5536,-2.5686,-2.582,-2.4845,-2.487,-2.4921,-2.3991,-2.4192,-2.4443,-2.3879,-2.4286,-2.47,-2.4387,-2.3916,-2.3276,-2.2447,-2.2184,-2.1945,-2.1543,-2.1355,0.0,-2.0742,-2.0189,-1.9547,-1.8845,-1.8782,-1.8355,-1.7237,-1.731,-1.7137,-1.6538,-1.6672,-1.6663,-1.65,-1.65,-1.65,-1.65,-1.65,-1.681,0.0,0.0,0.0,0.0,0.0,0.0,0.0,0.0,0.0,0.0,0.0,0.0,0.0,0.0,0.0,0.0,0.0,0.0,0.0,0.0,0.0,0.0,-1.9328,-2.0934,-2.1287,-2.195,-2.2977,-2.4584,-2.5544,-2.6362,-2.7093,-2.7168,-2.7614,-2.8727,-2.8806,-2.9106,-2.9753,-3.0093,-3.0118,-2.9804,-3.0105,-3.0118,-2.9792,-2.9792,-2.9792,-2.9792,-2.9792,-2.9792,-2.9792,-2.9792,-2.9792,-2.9792,-2.9792,-2.9792,-2.9792,-2.9792,-2.9792,0.0,0.0,0.0,0.0,0.0,-2.9076,-2.8059,-2.7733,-2.7318,-2.6914,-2.66,-2.6713,-2.6952,-2.6864,-2.6675,-2.6474,-2.6339,-2.6235,-2.5984,-2.531,-2.5209,-2.5121,-2.4494,-2.4757,-2.4996,-2.4456,-2.4958,-2.5372,-2.4876,-2.4537,0.0,-2.3175,-2.2811,-2.2518,-2.2234,-2.1983,-2.1631,-2.1106,-2.0541,-1.9874,-1.9083,-1.9008,-1.8556,-1.7498,-1.7624,0.0,0.0,0.0,-1.6773,-1.65,-1.65,0.0,0.0,0.0,-1.6923,-1.7727,0.0,0.0,0.0,-1.8619,-1.8505,0.0,0.0,0.0,0.0,0.0,0.0,0.0,0.0,0.0,0.0,0.0,0.0,0.0,0.0,0.0,0.0,-2.3126,-2.5276,-2.6183,-2.5113,-2.4868,-2.6584,-2.6846,-2.725,-2.8187,-2.8307,-2.8727,-2.9702,-2.9792,-2.9792,-2.9792,0.0,0.0,0.0,0.0,-2.9792,-2.9792,-2.9792,-2.9792,-2.9792,-2.9792,-2.9792,-2.9792,-2.9792,-2.9792,-2.9792,-2.9792,-2.9792,-2.9792,-2.9792,-2.9792,-2.9792,-2.9792,-2.9792,-2.9779,-2.9716,-2.9063,-2.8185,-2.8134,0.0,0.0,-2.6587,-2.6587,-2.6663,-2.709,-2.6927,-2.6675,-2.7102,-2.6465,-2.5686,-2.5686,-2.536,-2.4963,-2.4888,-2.531,-2.5548,-2.5021,-2.5724,-2.621,-2.5197,-2.4958,-2.4732,-2.4192,-2.3521,-2.3108,-2.3108,-2.2631,-2.2133,-2.1644,-2.1069,-2.0302,-1.9208,0.0,0.0,-1.7564,-1.7978,-1.784,-1.6751,-1.7137,-1.7124,-1.6525,-1.65,-1.65,-1.65,-1.65,-1.7052,-1.8204,-1.7714,-1.8003,-1.8995,-1.8506,-1.8267,0.0,0.0,0.0,0.0,0.0,0.0,0.0,0.0,0.0,0.0,0.0,0.0,0.0,0.0,0.0,-2.3596,-2.5304,-2.6835,-2.8151,-2.8474,-2.8562,-2.8463,-2.8875,-2.9248,-2.9456,-2.9495,-2.9573,-2.9792,-2.9792,-2.9792,-2.9792,-2.9792,-2.9792,-2.9792,-2.9792,-2.9792,-2.9792,-2.9792,-2.9792,-2.9792,0.0,0.0,-2.9792,-2.9792,-2.9792,-2.9792,-2.9792,-2.9792,-2.9792,-2.9792,-2.9792,-2.9792,-2.9792,-2.9792,-2.9729,-2.9264,-2.8913,-2.8662,-2.826,-2.767,-2.7165,-2.7165,-2.7165,-2.709,-2.6751,-2.6889,0.0,-2.6751,-2.6499,-2.6336,-2.6336,-2.6248,-2.6059,-2.5548,-2.5921,-2.6172,-2.5573,-2.6009,-2.6436,-2.6223,-2.5774,-2.5272,-2.4757,-2.3785,-2.3108,-2.3108,-2.2631,-2.2272,-2.2171,-2.1307,-2.0427,-1.9723,-1.966,-1.9208,-1.8141,-1.8531,-1.8569,-1.7915,-1.7564,-1.7124,-1.6525,-1.65,-1.65,-1.65,-1.65,-1.7052,-1.8204,-1.8103,-1.8356,-1.9008,-1.8895,-1.8607,0.0,0.0,0.0,0.0,0.0,0.0,0.0,0.0,0.0,0.0,0.0,-2.0461,0.0,0.0,-2.5274,-2.6663,-2.8364,-2.9634,-3.0069,-3.0408,-3.0286,-2.9438,-2.9853,-3.0093,-2.9817,-2.9792,-2.9792,-2.9792,-2.9792,-2.9792,-2.9792,-2.9792,-2.9792,-2.9792,-2.9792,-2.9792,-2.9792,-2.9792,-2.9792,-2.9792,-2.9792,-2.9792,-2.9792,-2.9792,-2.9792,-2.9792,-2.9792,-2.9792,-2.9792,-2.9792,-2.9792,-2.9792,-2.9792,-2.9792,-2.9754,-2.9465,-2.9176,-2.885,-2.8574,-2.816,-2.7695,-2.7695,-2.7695,-2.7645,-2.7369,-2.7281,-2.7218,-2.6989,-2.6713,-2.6499,-2.6499,-2.6499,-2.6424,-2.6135,-2.6285,-2.6411,-2.6122,-2.6285,-2.6499,-2.6499,-2.582,-2.5121,-2.4838,-2.3847,-2.3108,-2.3108,-2.2869,-2.2594,-2.2347,-2.1594,-2.088,-2.0314,-1.9974,-1.9472,-1.8657,-1.8594,-1.8481,-1.8229,-1.7953,-1.7539,-1.6974,-1.7212,-1.7225,-1.6961,-1.7225,-1.7754,-1.8594,-1.8342,-1.8493,-1.9008,-1.9008,-1.8707,0.0,0.0,0.0,0.0,0.0,0.0,0.0,0.0,-2.0137,-2.118,-2.2356,-2.3687,-2.5242,-2.6818,-2.8256,-2.952,-3.1116,-3.2026,-3.1461,-3.1386,-3.0997,-2.9917,-3.0181,-3.0281,-2.9829,-2.9792,-2.9792,-2.9792,-2.9792,-2.9792,-2.9792,-2.9792,-2.9792,-2.9792,-2.9792,-2.9792,-2.9792,-2.9792,-2.9792,-2.9792,-2.9792,-2.9792,-2.9792,-2.9792,-2.9792,-2.9792,-2.9792,-2.9792,-2.9792,-2.9792,-2.9792,-2.9792,-2.9792,-2.9792,-2.9792,-2.9792,-2.9503,-2.9051,-2.9051,-2.8737,-2.8247,-2.8134,-2.8109,-2.8059,-2.7846,-2.7557,-2.7291,-2.719,-2.6839,-2.6499,-2.6499,-2.6499,-2.6499,-2.6499,-2.6499,-2.6499,-2.6499,-2.6499,-2.6499,-2.6499,-2.5749,-2.5071,-2.4825,-2.4036,-2.3358,-2.3133,-2.3108,-2.2945,-2.2493,-2.1895,-2.1307,-2.0754,-2.015,-1.9635,-1.9196,-1.8769,-1.848,-1.8367,-1.8367,-1.8116,-1.7586,-1.7865,-1.789,-1.7574,-1.7765,-1.823,-1.9008,-1.8456,-1.8493,-1.9008,-1.8895,-1.8556,-1.7463,-1.7739,-1.8543,-1.9975,-2.0399,-2.111,0.0,0.0,-2.4284,-2.4238,-2.6019,-2.7574,-2.749,-2.9369,-3.1113,-3.1747,-3.2043,-3.2026,-3.1461,-3.1386,-3.0997,-2.9917,-2.9842,-2.9867,-2.9804,-2.9792,-2.9792,-2.9792,-2.9792,-2.9792,-2.9792,-2.9792,-2.9792,-2.9792,-2.9792,-2.9792,-2.9792,-2.9792,-2.9792,-2.9792,-2.9792,-2.9792,-2.9792,-2.9792,-2.9792,-2.9792,-2.9792,-2.9792,-2.9792,-2.9792,-2.9792,-2.9792,-2.9792,-2.9792,-2.9792,-2.9792,-2.9754,-2.9691,-2.9691,-2.9315,-2.8712,-2.826,-2.8109,-2.7921,-2.6977,-2.6977,-2.718,-2.6725,-2.6549,-2.6499,-2.6499,-2.6499,-2.6499,-2.6499,-2.6499,-2.6499,-2.6499,-2.6499,-2.6499,-2.6499,-2.6399,-2.5996,-2.4983,-2.4687,-2.4261,-2.3258,-2.3108,-2.3083,-2.302,-2.2133,-2.1307,-2.0754,-2.015,-1.9773,-1.9723,-1.966,-1.9422,-1.8945,-1.8907,-1.8669,-1.8141,-1.7702,-1.7677,-1.8103,-1.7187,-1.7453,-1.9008,-1.8456,-1.8493,-1.8995,-1.8506,-1.8003,-1.9384,-1.9723,0.0,0.0,-2.232,-2.3769,-2.5065,-2.5996,-2.6827,-2.7509,-2.8961,-3.0146,-3.0313,-3.0932,-3.1574,0.0,-3.1938,-3.1549,-3.1022,-3.0934,-3.0532,-2.9415,-2.9591,-2.9792,-2.9792,-2.9792,-2.9792,-2.9792,-2.9792,-2.9792,-2.9792,-2.9792,-2.9792,-2.9792,-2.9792,-2.9792,-2.9792,-2.9792,-2.9792,-2.9792,-2.9792,-2.9792,-2.9792,-2.9792,-2.9792,-2.9792,-2.9792,-2.9792,-2.9792,-2.9792,-2.9792,-2.9792,-2.9792,-2.9792,-2.9792,-2.9792,-2.9792,-2.9792,-2.9792,-2.9628,-2.9402,-2.9164,-2.8863,-2.8436,-2.7657,-2.7356,-2.7203,-2.665,-2.6499,-2.6499,-2.6499,-2.6499,-2.6499,-2.6499,-2.6499,-2.6499,-2.6499,-2.6499,-2.6499,-2.6499,-2.6223,-2.5724,-2.4958,-2.4525,-2.4036,-2.3221,-2.3108,-2.3108,-2.3108,-2.2171,-2.1142,-2.0289,-1.9949,-1.9798,-1.9798,-1.9798,-1.971,-1.9497,-1.9472,-1.9208,-1.8682,-1.8756,-1.8756,-1.8657,-1.8193,-1.8444,-1.9447,-1.892,-1.8782,-1.8995,-1.877,-1.8216,-2.0377,0.0,0.0,-2.2435,-2.4402,-2.6256,-2.6661,-2.7928,-2.9253,-3.005,-3.0972,-3.1687,-3.1938,-3.1662,-3.1524,-3.1926,-3.1537,-3.1047,-3.067,-3.0344,-2.9803,-2.8988,-2.9164,-2.939,-2.9541,-2.9691,-2.9792,-2.9792,-2.9792,-2.9792,-2.9792,-2.9792,-2.9792,-2.9792,-2.9792,-2.9792,-2.9792,-2.9792,-2.9792,-2.9792,-2.9792,-2.9792,-2.9792,-2.9792,-2.9792,-2.9792,-2.9792,-2.9792,-2.9792,-2.9792,-2.9792,-2.9792,-2.9792,-2.9792,-2.9792,-2.9792,-2.9792,-2.9767,-2.9616,-2.9553,-2.9528,-2.9377,-2.9051,-2.8562,-2.8047,-2.7607,-2.7203,-2.665,-2.6499,-2.6499,-2.6499,-2.6499,-2.6499,-2.6499,-2.6499,-2.6499,-2.6499,-2.6499,-2.6499,-2.6499,-2.616,-2.5661,-2.5134,-2.4707,-2.4192,-2.3446,-2.3346,-2.3283,-2.312,-2.2171,-2.1054,-1.9924,-1.9798,-1.9798,-1.9798,-1.9798,-1.9798,-1.9798,-1.9798,-1.9635,-1.9233,-1.9434,-1.9472,-1.9221,-1.877,-1.8882,-1.9585,-1.8882,-1.8619,-1.877,-1.8619,-1.8141,0.0,0.0,-2.2133,-2.4808,-2.6779,-2.8298,-2.9415,-3.0894,-3.1922,-3.1449,-3.1788,-3.2026,-3.1512,-3.1399,-3.1399,-3.1411,-3.0972,-3.0633,-3.062,-2.9628,-2.8938,-2.8888,-2.8473,-2.8373,0.0,-2.9465,-2.9792,-2.9792,-2.9792,-2.9792,-2.9792,-2.9792,-2.9792,-2.9792,-2.9792,-2.9792,-2.9792,-2.9792,-2.9792,-2.9792,-2.9792,-2.9792,-2.9792,-2.9792,-2.9792,-2.9792,-2.9792,-2.9792,-2.9792,-2.9792,-2.9792,-2.9792,-2.9792,-2.9792,-2.9792,-2.9792,-2.9792,-2.9716,-2.9113,-2.8913,-2.8825,-2.8335,-2.8147,-2.8034,-2.7469,-2.7293,-2.7203,-2.665,-2.6499,-2.6499,-2.6499,-2.6499,-2.6499,-2.6499,-2.6499,-2.6499,-2.6499,-2.6499,-2.6499,-2.6499,-2.6474,-2.6285,-2.5674,-2.5561,-2.5184,-2.413,-2.3966,-2.3766,-2.3183,-2.2171,-2.1054,-1.9924,-1.9798,-1.9798,-1.9798,-1.9798,-1.9798,-1.9798,-1.9798,-1.9798,-1.9773,-1.9284,-1.9259,-1.9773,-1.8229,-1.7965,-1.902,-1.7953,-1.7725,-1.8216,-1.7677,-1.7436,0.0,0.0,-2.5217,-2.6841,-2.8787,-3.0482,-3.1223,-3.1825,-3.2164,-3.1976,-3.1235,-3.0432,-2.9867,-2.9453,-2.9214,-2.9214,-2.9377,-2.959,-3.0018,-2.9741,-2.9227,-2.8473,-2.8875,0.0,0.0,0.0,0.0,-2.9767,-2.9792,-2.9792,-2.9792,-2.9792,-2.9792,-2.9792,-2.9792,-2.9792,-2.9792,-2.9792,-2.9792,-2.9792,-2.9792,-2.9792,-2.9792,-2.9792,-2.9792,-2.9792,-2.9792,-2.9792,-2.9792,-2.9792,-2.9792,-2.9792,-2.9792,-2.9792,-2.9792,-2.9792,-2.9792,-2.9767,-2.9566,-2.9503,-2.9478,-2.9289,-2.8963,-2.8512,-2.7996,-2.757,-2.7278,-2.709,-2.704,-2.7128,-2.7457,-2.7557,-2.7457,-2.7128,-2.704,-2.6939,-2.6575,-2.6499,-2.6499,-2.6499,-2.6499,-2.6311,-2.5699,-2.531,-2.4675,-2.3559,-2.3396,-2.3058,-2.2171,-2.1719,-2.1054,-1.9924,-1.9798,-1.9798,-1.9798,-1.9798,-1.9798,-1.9798,-1.9798,-1.9798,-1.9798,-1.9635,-1.9623,-1.9798,-1.8932,-1.8807,-1.9547,-1.8819,-1.8544,-1.8719,-1.8555,-1.8279,-2.3602,-2.5511,-2.7241,-2.9101,-3.0482,-3.1537,-3.2089,-3.1913,-3.1474,-3.0871,-2.9603,-2.8373,-2.7559,-2.6806,-2.6527,-2.7118,-2.7507,-2.8084,-2.9051,-2.9189,-2.8988,-2.8461,-2.8863,0.0,0.0,0.0,0.0,-2.9741,-2.9792,-2.9792,-2.9792,-2.9792,-2.9792,-2.9792,-2.9792,-2.9792,-2.9792,-2.9792,-2.9792,-2.9792,-2.9792,-2.9792,-2.9792,-2.9792,-2.9792,-2.9792,-2.9792,-2.9792,-2.9792,-2.9792,-2.9792,-2.9792,-2.9792,-2.9792,-2.9792,-2.9792,-2.9792,-2.9729,-2.9327,-2.9315,-2.9453,-2.9252,-2.9076,-2.8825,-2.8511,-2.816,-2.7821,-2.7632,-2.7582,-2.7657,-2.8009,-2.8109,-2.8009,-2.7657,-2.7582,-2.7419,-2.6901,-2.6788,-2.6738,-2.6537,-2.6499,-2.6373,-2.5996,-2.531,-2.4474,-2.3547,-2.3233,-2.2782,-2.1895,-2.1606,-2.1142,-2.0239,-1.9924,-1.9798,-1.9798,-1.9798,-1.9798,-1.9798,-1.9798,-1.9798,-1.9798,-1.9798,-1.9798,-1.9798,-1.9271,-1.9171,-1.9497,-1.897,-1.8707,-1.8707,-1.8707,-1.8519,-2.5695,-2.704,-2.8247,-3.1424,-3.1813,-3.1562,-3.2051,-3.1298,-3.0018,-2.8397,-2.7102,-2.5946,0.0,0.0,-2.3597,-2.5247,-2.5611,-2.6264,-2.7959,-2.8197,-2.8373,0.0,0.0,0.0,0.0,0.0,0.0,-2.9754,0.0,-2.9804,-2.9829,-2.9804,-2.9804,-2.9829,-2.9804,-2.9792,-2.9792,-2.9792,-2.9792,-2.9792,-2.9792,-2.9792,-2.9792,-2.9792,-2.9792,-2.9792,-2.9792,-2.9792,-2.9792,-2.9792,-2.9792,-2.9792,-2.9792,-2.9792,-2.9792,-2.9792,-2.9792,-2.9628,-2.8499,-2.8486,-2.885,-2.836,-2.8549,-2.8925,-2.89,-2.8888,-2.8787,-2.8298,-2.8147,-2.816,-2.8185,-2.8197,-2.8185,-2.816,-2.8122,-2.7959,-2.7442,-2.7291,-2.7115,-2.66,-2.6499,-2.6487,-2.6449,-2.5548,-2.4637,-2.4092,-2.3496,-2.2945,-2.2355,-2.1857,-2.1333,-2.0754,-2.0201,-1.9836,-1.9798,-1.9798,-1.9798,-1.9798,-1.9798,-1.9798,-1.9798,-1.9798,-1.9798,-1.9798,-1.9296,-1.9045,-1.9045,-1.8519,-1.8292,-1.8292,-1.8292,-1.8292,-2.7118,-2.8988,-3.0645,-3.1901,-3.2102,-3.1938,-3.1662,-3.0118,-2.8483,-2.7604,-2.5262,-2.3174,0.0,0.0,0.0,-2.4205,-2.5787,0.0,-2.9126,-2.9365,0.0,0.0,0.0,-2.9704,-2.8963,-2.9653,0.0,0.0,-2.9792,-2.9967,-3.0382,-3.0018,-2.998,-3.0394,-3.0005,-2.9792,-2.9792,-2.9792,-2.9792,-2.9792,-2.9792,-2.9792,-2.9792,-2.9792,-2.9792,-2.9792,-2.9792,-2.9792,-2.9792,-2.9792,-2.9792,-2.9792,-2.9792,-2.9792,-2.9792,-2.9792,-2.9792,-2.9628,-2.8499,-2.875,-2.9553,-2.9415,-2.9465,-2.949,-2.9026,-2.8888,-2.8863,-2.8712,-2.8687,-2.8812,-2.9252,-2.9365,-2.9252,-2.8812,-2.8398,-2.7959,-2.7442,-2.7002,-2.6663,-2.6524,-2.6499,-2.6361,-2.5921,-2.5586,-2.5084,-2.4142,-2.3866,-2.3427,-2.2435,-2.2184,-2.1732,-2.0792,-2.0566,-2.0302,-1.9836,-1.9798,-1.9798,-1.9798,-1.9798,-1.9798,-1.9798,-1.9798,-1.9798,-1.9798,-1.9673,-1.961,-1.961,-1.9459,-1.9397,-1.9397,-1.9397,-1.9397,-2.9026,-3.0633,-3.1825,-3.2139,-3.2026,-3.1449,-2.993,-2.8455,-2.6799,-2.4763,-2.2677,0.0,0.0,0.0,0.0,0.0,0.0,0.0,-2.8386,-2.9114,-2.939,0.0,-2.9867,0.0,-2.9704,-3.0204,-3.0482,0.0,-2.993,-2.993,-3.0231,-2.9955,-2.993,-3.0244,-2.9955,-2.9792,-2.9792,-2.9792,-2.9792,-2.9792,-2.9792,-2.9792,-2.9792,-2.9792,-2.9792,-2.9792,0.0,-2.9792,-2.9792,-2.9792,-2.9792,-2.9792,-2.9792,-3.0037,-3.0419,-3.0419,-3.0419,-3.029,-2.9404,-2.9414,-2.9716,-2.9214,-2.9051,-2.9076,-2.9252,-2.9126,-2.895,-2.9239,-2.9302,-2.939,-2.9704,-2.9792,-2.9716,-2.939,-2.8875,-2.831,-2.7758,-2.7394,-2.714,-2.6901,-2.6851,-2.6587,-2.5737,-2.5598,-2.5234,-2.4155,-2.4004,-2.3678,-2.2757,-2.246,-2.1983,-2.1144,-2.0842,-2.0465,-1.9849,-1.9798,-1.9798,-1.9798,-1.9798,-1.9798,-1.9798,-1.9798,-1.9798,-1.9798,-1.9798,-1.9798,-1.9798,-1.9798,-1.9798,-1.9798,-1.9798,-1.9798,-3.0922,-3.1851,-3.2215,-3.2215,-3.182,-3.0716,-2.7832,-2.6691,-2.5166,-2.1364,0.0,-1.9285,-1.8266,0.0,-1.8391,-2.1054,0.0,-2.4098,-2.6992,-2.821,-2.9026,-2.9716,-2.9854,-3.0068,-3.047,-3.057,-3.0583,-3.0507,-3.0068,-2.9829,-2.9892,-2.9829,-2.9792,-2.9792,-2.9792,-2.9792,-2.9792,-2.9792,-2.9792,-2.9792,-2.9792,-2.9792,-2.9792,-2.9792,-2.9792,-2.9792,-2.9792,0.0,-2.9779,-2.9704,-2.9793,-2.9998,-2.9922,-3.0493,-3.1389,-3.1389,-3.1389,-3.1272,-3.0619,-3.0166,-2.9694,-2.8573,-2.826,-2.8511,-2.9503,-2.944,-2.9151,-2.9654,-2.9792,-2.9792,-2.9792,-2.9792,-2.9792,-2.9792,-2.9289,-2.8675,-2.8298,-2.816,-2.7946,-2.7394,-2.7281,-2.6942,-2.5887,-2.5711,-2.5372,-2.4356,-2.4155,-2.3904,-2.3296,-2.2732,-2.2184,-2.1556,-2.1081,-2.0541,-1.9861,-1.9798,-1.9798,-1.9798,-1.9798,-1.9798,-1.9798,-1.9798,-1.9798,-1.9798,-1.9798,-1.9798,-1.9798,-1.9798,-1.9798,-1.9798,-1.9798,-1.9798,-3.1599,-3.2139,-3.2215,-3.2215,-3.2005,-3.0892,-2.743,-2.5981,0.0,0.0,0.0,-1.8276,-1.7586,-1.7792,0.0,-2.1117,0.0,0.0,0.0,0.0,-2.8637,0.0,0.0,0.0,0.0,0.0,0.0,0.0,0.0,-2.9993,-3.0457,-3.0043,-2.9792,-2.9792,-2.9792,-2.9792,-2.9792,-2.9792,-2.9792,-2.9792,-2.9792,-2.9792,-2.9792,-2.9792,-2.9792,-2.9792,-2.9792,0.0,-2.9754,-2.9277,-2.9807,-3.093,-3.0485,-3.1135,-3.2357,-3.2357,-3.2357,-3.2167,-3.0872,-3.0355,-3.0129,-2.9099,-2.9114,-2.9541,-2.9729,-2.9729,-2.9666,-2.9767,-2.9792,-2.9792,-2.9792,-2.9792,-2.9792,-2.9792,-2.9001,-2.8348,-2.8675,-2.8423,-2.7946,-2.7394,-2.7281,-2.7115,-2.6449,-2.6348,-2.6122,-2.5423,-2.4958,-2.4469,-2.3916,-2.3321,-2.2581,-2.1594,-2.1405,-2.0928,-1.9886,-1.9798,-1.9798,-1.9798,-1.9798,-1.9798,-1.9798,-1.9798,-1.9798,-1.9798,-1.9798,-1.9798,-1.9798,-1.9798,-1.9798,-1.9798,-1.9798,-1.9798,-3.1851,-3.2428,-3.2643,-3.2547,-3.1954,-3.0359,-2.6421,0.0,0.0,0.0,0.0,-1.8058,-1.7781,0.0,0.0,0.0,0.0,0.0,0.0,0.0,0.0,0.0,0.0,0.0,0.0,0.0,0.0,0.0,0.0,-3.0218,-3.0181,-2.993,-2.9792,-2.9792,-2.9792,-2.9792,-2.9792,-2.9792,-2.9792,-2.9792,-2.9792,-2.9792,-2.9792,-2.9792,-2.9792,-2.9792,-2.9792,0.0,-2.9779,-2.949,-3.0086,-3.1177,-3.0926,-3.186,-3.3345,-3.3345,-3.3345,-3.3122,-3.165,-3.0989,-3.0585,-2.9301,-2.8925,-2.9026,-2.9616,-2.9578,-2.9402,-2.9704,-2.9792,-2.9792,-2.9792,-2.9792,-2.9792,-2.9792,-2.9151,-2.8524,-2.8511,-2.8298,-2.8021,-2.7758,-2.7482,-2.714,-2.6587,-2.6499,-2.6298,-2.5686,-2.5159,-2.4619,-2.4067,-2.3459,-2.2794,-2.2008,-2.192,-2.1468,-2.0365,-2.0277,-2.0125,-1.9823,-1.9798,-1.9798,-1.9798,-1.9798,-1.9798,-1.9798,-1.9798,-1.9798,-1.9798,-1.9798,-1.9798,-1.9798,-1.9798,-1.9798,-3.1712,-3.2453,-3.2883,-3.2815,-3.1768,-2.9705,-2.5697,-2.4387,0.0,0.0,-1.7907,-1.8243,-1.8125,0.0,0.0,0.0,0.0,0.0,0.0,0.0,0.0,0.0,0.0,0.0,0.0,0.0,0.0,0.0,0.0,0.0,-2.9817,-2.9792,-2.9792,-2.9792,-2.9792,-2.9792,-2.9792,-2.9792,-2.9792,-2.9792,-2.9792,-2.9792,-2.9792,-2.9792,-2.9792,-2.9792,-2.9998,0.0,0.0,-3.0126,-3.0729,-3.1523,-3.1608,-3.2744,-3.4298,-3.4153,-3.4196,-3.4062,-3.2212,-3.167,-3.1466,-2.9527,-2.8712,-2.8637,-2.9528,-2.9478,-2.9202,-2.9666,-2.9792,-2.9792,-2.9792,-2.9792,-2.9729,-2.949,-2.9089,-2.8562,-2.8047,-2.8021,-2.8072,-2.7946,-2.7582,-2.714,-2.6587,-2.6499,-2.6336,-2.585,-2.5234,-2.4637,-2.423,-2.3534,-2.2945,-2.2506,-2.2355,-2.187,-2.0779,-2.0691,-2.044,-1.9836,-1.9798,-1.9798,-1.9798,-1.9798,-1.9798,-1.9798,-1.9798,-1.9798,-1.9798,-1.9798,-1.9798,-1.9798,-1.9798,-1.9798,-3.1035,-3.1863,-3.2377,-3.2711,-3.1529,-2.9389,-2.6089,0.0,0.0,0.0,-1.8458,-1.8669,-1.8204,-1.8108,-1.8324,0.0,0.0,0.0,0.0,0.0,0.0,0.0,0.0,0.0,0.0,0.0,0.0,0.0,0.0,0.0,-2.9792,-2.9792,-2.9792,-2.9792,-2.9792,-2.9792,-2.9792,-2.9792,-2.9792,-2.9792,-2.9792,-2.9792,-2.9792,-2.9792,-2.9792,-2.9869,-3.0696,0.0,0.0,-3.1119,-3.1969,-3.2516,-3.2874,-3.3966,-3.5285,-3.469,-3.4855,-3.4922,-3.1937,-3.2154,-3.3212,-2.9947,-2.9252,-2.9654,-2.9767,-2.9754,-2.9729,-2.9779,-2.9792,-2.9792,-2.9792,-2.9792,-2.9528,-2.8499,-2.8222,-2.8034,-2.7482,-2.7758,-2.7959,-2.7457,-2.7318,-2.714,-2.6587,-2.6499,-2.6474,-2.6424,-2.5485,-2.4775,-2.4725,-2.3772,-2.3083,-2.3032,-2.2581,-2.187,-2.0779,-2.0691,-2.044,-1.9836,-1.9798,-1.9798,-1.9798,-1.9798,-1.9798,-1.9798,-1.9798,-1.9798,-1.9798,-1.9798,-1.9798,-1.9798,-1.9798,-1.9798,-2.9441,-3.1035,-3.2349,-3.2978,-3.0872,-2.8126,-2.6202,0.0,0.0,-1.8627,-1.8535,-1.893,-1.9043,-1.8798,-1.8554,0.0,0.0,0.0,0.0,0.0,0.0,0.0,0.0,0.0,0.0,0.0,0.0,0.0,0.0,0.0,-2.9792,-2.9792,-2.9792,-2.9792,-2.9792,-2.9792,-2.9792,-2.9792,-2.9792,-2.9792,-2.9792,-2.9792,-2.983,-3.0381,-3.0317,-2.9895,-3.1402,0.0,0.0,-3.1395,-3.2368,-3.3427,-3.3217,-3.4116,-3.5429,-3.4758,-3.4683,-3.4582,-3.2346,-3.1801,-3.1804,-3.0211,-2.9502,-2.934,-2.9691,-2.9553,-2.9277,-2.9277,-2.9277,-2.9202,-2.8863,-2.9026,-2.9076,-2.8285,-2.836,-2.836,-2.7469,-2.7457,-2.7645,-2.7758,-2.7278,-2.6851,-2.6964,-2.6713,-2.6499,-2.6499,-2.5523,-2.4788,-2.4788,-2.3797,-2.3108,-2.3108,-2.2907,-2.2359,-2.1282,-2.1182,-2.0805,-1.9861,-1.9798,-1.9798,-1.9798,-1.9798,-1.9798,-1.9798,-1.9798,-1.9798,-1.9798,-1.9798,-1.9798,-1.9798,-1.9798,-1.9798,-2.7812,-3.0087,-3.2137,-3.2822,-3.0297,-2.7368,0.0,0.0,-2.0386,-1.8882,-1.8874,-1.9244,-1.9621,-1.9387,-1.8912,-1.8224,0.0,0.0,0.0,0.0,0.0,0.0,0.0,0.0,0.0,0.0,0.0,0.0,0.0,0.0,-2.9792,-2.9792,-2.9792,-2.9792,-2.9792,-2.9792,-2.9792,-2.9792,-2.9792,-2.9792,-2.9792,-2.9792,-2.983,-3.0482,-3.0595,-3.0279,-3.1609,0.0,0.0,-3.1923,-3.2696,-3.3725,-3.3572,-3.4092,-3.4861,-3.4367,-3.4047,-3.3615,-3.2072,-3.1393,-3.104,-3.0019,-2.9604,-2.9452,-2.934,-2.9126,-2.8863,-2.87,-2.8762,-2.8838,-2.8662,-2.8649,-2.8549,-2.8197,-2.816,-2.7984,-2.7241,-2.7203,-2.7344,-2.757,-2.7118,-2.6813,-2.704,-2.6751,-2.6499,-2.6499,-2.5523,-2.4788,-2.4788,-2.3797,-2.3108,-2.3108,-2.3108,-2.2732,-2.1807,-2.1581,-2.1079,-2.0125,-1.9899,-1.9798,-1.9798,-1.9798,-1.9798,-1.9798,-1.9798,-1.9798,-1.9798,-1.9798,-1.9798,-1.9798,-1.9798,-1.9798,-2.6396,-2.9187,-3.155,-3.1857,-2.9859,-2.7424,0.0,0.0,-2.0427,-1.9816,-1.969,-1.969,-1.9708,-1.9708,-1.935,-1.8283,-1.8106,0.0,0.0,0.0,0.0,0.0,0.0,0.0,0.0,0.0,0.0,0.0,0.0,0.0,-2.9792,-2.9792,-2.9792,-2.9792,-2.9792,-2.9792,-2.9792,-2.9792,-2.9792,-2.9792,-2.9792,-2.9792,-2.9792,-2.9792,-3.0317,0.0,0.0,0.0,0.0,-3.2962,-3.3101,-3.3215,-3.414,-3.4083,-3.3514,-3.3499,-3.296,-3.2046,-3.0746,-3.1135,-3.1768,-2.9316,-2.9531,-3.044,-2.8664,-2.8461,-2.8775,-2.8273,-2.8511,-2.9026,-2.9628,-2.895,-2.8109,-2.8109,-2.7268,-2.6512,-2.6499,-2.6939,-2.7118,-2.6612,-2.6952,-2.714,-2.66,-2.6499,-2.6499,-2.6499,-2.5523,-2.4788,-2.4788,-2.3797,-2.3108,-2.3108,-2.3108,-2.2882,-2.2347,-2.1807,-2.1282,-2.0717,-2.0125,-1.9798,-1.9798,-1.9798,-1.9798,-1.9798,-1.9798,-1.9798,-1.9798,-1.9798,-1.9798,-1.9798,-1.9798,-1.9798,-2.3771,-2.5862,-2.7551,-2.7909,-2.6008,-2.4003,-2.3795,-2.1532,-1.9382,-1.9186,-1.9442,-1.9708,-1.9708,-1.9708,-1.935,-1.8283,-1.8411,0.0,0.0,0.0,0.0,0.0,0.0,0.0,0.0,0.0,0.0,0.0,0.0,0.0,-2.9792,-2.9792,-2.9792,-2.9792,-2.9792,-2.9792,-2.9792,-2.9792,-2.9792,-2.9792,-2.9792,-2.9792,-2.9818,-3.1132,-3.1549,0.0,0.0,0.0,0.0,-3.3407,-3.363,-3.3987,-3.3362,-3.3275,-3.344,-3.2991,-3.263,-3.227,-3.1412,-3.1011,-3.0733,-2.9719,-2.9315,-2.9037,-2.7898,-2.7657,-2.777,-2.7595,-2.7394,-2.7457,-2.8398,-2.8373,-2.8009,-2.7632,-2.7557,-2.7381,-2.6663,-2.6637,-2.6813,-2.7014,-2.6889,-2.6813,-2.7014,-2.6738,-2.6499,-2.6499,-2.5523,-2.4788,-2.4788,-2.3797,-2.3108,-2.3108,-2.3108,-2.2882,-2.2359,-2.1807,-2.1282,-2.0729,-2.0125,-1.9974,-2.0402,-2.0415,-2.0603,-2.0941,-2.0616,-2.0415,-2.0415,-1.9987,-1.9798,-1.9798,-1.9798,-1.9798,0.0,-2.3905,-2.561,-2.5614,-2.4189,0.0,0.0,-2.0768,-1.9207,-1.9207,-1.9314,-1.9406,-1.9406,-1.9225,-1.8817,-1.7947,-1.8079,0.0,0.0,0.0,0.0,0.0,0.0,0.0,0.0,0.0,0.0,0.0,0.0,0.0,-2.9792,-2.9792,-2.9792,-2.9792,-3.0139,-3.0317,-3.0317,-3.0317,-3.0495,-3.0846,-3.0495,-3.0533,-3.0884,-3.2083,-3.2464,0.0,0.0,0.0,0.0,-3.3027,-3.3059,-3.3649,-3.2841,-3.2617,-3.2736,-3.2572,-3.2154,-3.1664,-3.1543,-3.097,-3.0266,-3.0048,-2.9198,-2.8048,-2.7234,-2.7002,-2.7052,-2.7218,-2.7065,-2.7014,-2.7871,-2.8109,-2.8021,-2.767,-2.7695,-2.7657,-2.718,-2.6952,-2.6901,-2.7253,-2.704,-2.6851,-2.6989,-2.6725,-2.6499,-2.6499,-2.5686,-2.5046,-2.4813,-2.3998,-2.3346,-2.3133,-2.3108,-2.2957,-2.2619,-2.2121,-2.1656,-2.1333,-2.0752,-2.0602,-2.0993,-2.1006,-2.1169,-2.1481,-2.0968,-2.0691,-2.0691,-2.0087,-1.9798,-1.9798,-1.9798,-1.9798,0.0,0.0,0.0,0.0,0.0,0.0,0.0,-2.0587,0.0,-1.9639,-1.9244,-1.8893,-1.8855,-1.8438,-1.7947,-1.7442,-1.7378,0.0,0.0,0.0,0.0,0.0,0.0,0.0,0.0,0.0,0.0,0.0,0.0,0.0,-2.9895,-2.983,-2.983,-2.9895,-3.0771,-3.118,-3.1106,-3.118,-3.1646,-3.25,-3.1669,-3.1742,-3.2593,-3.2664,-3.3143,0.0,0.0,0.0,0.0,-3.2159,-3.1772,-3.2512,-3.2437,-3.2049,-3.1585,-3.2183,-3.1574,-3.0494,-3.1248,-3.0999,-3.0359,-3.0238,-2.9034,-2.7484,-2.6714,-2.6499,-2.66,-2.7115,-2.7218,-2.7392,-2.7896,-2.8047,-2.8047,-2.8047,-2.7657,-2.7419,-2.7883,-2.7582,-2.7218,-2.7218,-2.7218,-2.709,-2.6587,-2.6499,-2.6499,-2.6499,-2.5996,-2.5423,-2.4913,-2.4368,-2.3791,-2.3221,-2.3133,-2.3108,-2.3108,-2.2606,-2.2309,-2.2309,-2.1794,-2.1506,-2.1543,-2.1543,-2.1556,-2.1606,-2.1094,-2.0792,-2.0754,-2.0188,-1.9924,-1.9924,-1.9874,-1.9886,-1.7388,0.0,-2.0288,-2.012,-2.0348,0.0,0.0,-1.9932,-1.9584,0.0,0.0,0.0,-1.8361,-1.8185,-1.8066,-1.7927,-1.8299,0.0,0.0,0.0,0.0,0.0,0.0,0.0,0.0,0.0,0.0,0.0,0.0,-3.0871,-3.0871,-3.0177,-3.0139,-3.0833,-3.1068,-3.0871,-3.0139,-3.0833,-3.1315,-3.1536,-3.2033,-3.2393,-3.2629,-3.3345,-3.3531,0.0,0.0,0.0,-3.3694,-3.315,-3.2764,-3.2437,-3.1929,-3.1645,-3.1525,-3.1675,-3.1514,-3.1248,-3.1438,-3.138,-3.0999,-2.9721,-2.8149,-2.6748,-2.6555,-2.6499,-2.6524,-2.665,-2.6688,-2.6813,-2.7331,-2.7482,-2.7482,-2.7482,-2.7369,-2.7241,-2.6952,-2.6788,-2.6688,-2.6688,-2.6688,-2.665,-2.6512,-2.6499,-2.6499,-2.6499,-2.5996,-2.5548,-2.5435,-2.4582,-2.3954,-2.3803,-2.3371,-2.3108,-2.3108,-2.2606,-2.2309,-2.2309,-2.1794,-2.1681,-2.2096,-2.2121,-2.2293,-2.2706,-2.2209,-2.1719,-2.132,-2.1154,-2.1091,-2.1079,-2.0679,-2.0717,-1.6114,-1.7475,-1.8702,-1.8702,-1.9196,-1.9708,-1.9708,0.0,0.0,0.0,0.0,0.0,0.0,0.0,0.0,0.0,0.0,0.0,0.0,0.0,0.0,0.0,0.0,0.0,0.0,0.0,0.0,0.0,0.0,-3.1217,-3.1217,-3.0317,-3.0241,-3.118,-3.1217,-3.1365,-3.1733,-3.1792,-3.2149,-3.2715,-3.3065,-3.3308,-3.3494,-3.433,-3.4339,0.0,0.0,0.0,-3.3036,-3.3036,-3.2662,-3.2004,-3.1645,-3.1511,-3.1511,-3.1511,-3.1511,-3.1511,-3.1511,-3.1511,-3.1219,-2.9535,-2.8395,-2.7517,-2.6714,-2.6748,-2.6973,-2.6589,-2.6499,-2.6562,-2.6864,-2.7128,-2.7281,-2.7281,-2.7281,-2.7304,-2.7218,-2.6851,-2.6562,-2.6826,-2.6663,-2.6499,-2.6499,-2.6499,-2.6499,-2.6499,-2.6223,-2.59,-2.5636,-2.4883,-2.428,-2.4029,-2.3446,-2.3108,-2.3108,-2.2832,-2.2656,-2.2656,-2.238,-2.2343,-2.2644,-2.2656,-2.2681,-2.2732,-2.246,-2.2046,-2.1493,-2.1493,-2.1493,-2.1481,-2.1207,-2.1232,-1.5589,-1.7147,-1.8553,-1.8553,-1.9121,-1.9708,-1.9708,0.0,0.0,0.0,0.0,0.0,0.0,0.0,0.0,0.0,0.0,0.0,0.0,0.0,0.0,0.0,0.0,0.0,0.0,0.0,0.0,0.0,0.0,-3.1573,-3.1426,-3.0671,-3.0671,-3.1609,-3.1499,-3.2266,-3.4066,-3.3149,-3.3237,-3.4282,-3.4153,-3.4178,-3.4384,-3.504,-3.4921,-3.4219,0.0,0.0,-3.2377,-3.2452,-3.2093,-3.1511,-3.1511,-3.1511,-3.1511,-3.1511,-3.1511,-3.1511,-3.1511,-3.1322,-3.0866,-2.9473,-2.8907,-2.8524,-2.7095,-2.7263,-2.7769,-2.7061,-2.6871,-2.6897,-2.6973,-2.7167,-2.7379,-2.7455,-2.7311,-2.7281,-2.7758,-2.7153,-2.6637,-2.7102,-2.6813,-2.6499,-2.6499,-2.6499,-2.6499,-2.6499,-2.6499,-2.6311,-2.5787,-2.5272,-2.4732,-2.418,-2.3572,-2.3195,-2.3108,-2.3108,-2.3108,-2.3108,-2.3108,-2.3108,-2.3108,-2.3108,-2.2882,-2.2447,-2.2406,-2.2209,-2.1744,-2.1744,-2.1744,-2.1732,-2.1656,-2.1656,-1.5455,-1.6802,-1.7848,-1.7848,-1.8792,-1.9708,-1.9708,0.0,0.0,0.0,0.0,0.0,0.0,0.0,0.0,0.0,0.0,0.0,0.0,0.0,0.0,0.0,0.0,0.0,0.0,0.0,0.0,0.0,0.0,-3.3206,-3.2429,-3.2249,-3.2607,-3.3518,-3.282,-3.3022,-3.4416,-3.3496,-3.3121,-3.3332,-3.4068,-3.4137,-3.3664,-3.4369,-3.3963,-3.2841,0.0,-3.2901,-3.1705,-3.2258,-3.2093,-3.1511,-3.1511,-3.1511,-3.1511,-3.1511,-3.1511,-3.1511,-3.1511,-3.0584,-2.9348,-2.9097,-2.8492,-2.7855,-2.7571,-2.8117,-2.878,-2.8652,-2.862,-2.8729,-2.9182,-2.8492,-2.7753,-2.8224,-2.7456,-2.665,-2.6725,-2.6612,-2.6512,-2.66,-2.6549,-2.6499,-2.6499,-2.6499,-2.6499,-2.6499,-2.6499,-2.6461,-2.6373,-2.5824,-2.5272,-2.4713,-2.4205,-2.3665,-2.3145,-2.3108,-2.3108,-2.3108,-2.3108,-2.3108,-2.3108,-2.3108,-2.3058,-2.2982,-2.2982,-2.2945,-2.2844,-2.2844,-2.2844,-2.2844,-2.2397,-2.2406,-1.5439,-1.6473,-1.7249,-1.7608,-1.8717,-1.9621,-1.9332,0.0,0.0,0.0,0.0,0.0,0.0,0.0,0.0,0.0,0.0,0.0,0.0,0.0,0.0,0.0,0.0,0.0,0.0,0.0,0.0,0.0,0.0,0.0,-3.2928,-3.2368,-3.2353,-3.2953,-3.2558,-3.2861,-3.3948,-3.3171,-3.2761,-3.2807,-3.3583,-3.3604,-3.2991,-3.3649,-3.3425,-3.2557,0.0,-3.2751,-3.1555,-3.2213,-3.2093,-3.1511,-3.1511,-3.1511,-3.1511,-3.1511,-3.1511,-3.1438,-3.0999,-3.0359,-2.9535,-2.8588,-2.833,-2.8298,-2.7835,-2.8389,-2.9165,-2.9165,-2.9097,-2.8894,-2.8373,-2.7752,-2.7197,-2.6994,-2.6227,-2.5737,-2.6361,-2.6248,-2.6021,-2.6021,-2.6021,-2.6021,-2.6021,-2.6021,-2.6135,-2.6449,-2.6499,-2.6386,-2.6072,-2.5762,-2.5398,-2.4838,-2.433,-2.3891,-2.3597,-2.3283,-2.3108,-2.3108,-2.3108,-2.3108,-2.3108,-2.3108,-2.3108,-2.3108,-2.3108,-2.3108,-2.3108,-2.3108,-2.3108,-2.3095,-2.2844,-2.2857,-1.5484,-1.6248,-1.6816,-1.7339,0.0,-1.9284,-1.9296,0.0,0.0,0.0,0.0,0.0,0.0,0.0,0.0,0.0,0.0,0.0,0.0,0.0,0.0,0.0,0.0,0.0,0.0,0.0,0.0,0.0,0.0,0.0,-3.29,-3.233,-3.2156,-3.2425,-3.2411,-3.2715,-3.326,-3.2766,-3.2512,-3.2527,-3.3021,-3.2916,-3.2273,-3.2961,-3.2901,-3.2288,-3.2826,-3.2437,-3.154,-3.2049,-3.1959,-3.1511,-3.1511,-3.1406,-3.1241,-3.1107,-3.1137,-3.117,-3.0573,-3.0232,-2.9857,-2.8511,-2.8415,-2.8699,-2.8039,-2.8563,-2.9377,-2.9377,-2.9108,-2.8619,-2.7532,-2.7126,-2.6812,-2.6123,-2.5505,-2.528,-2.6163,-2.5979,-2.5561,-2.5435,-2.5624,-2.5749,-2.5624,-2.5711,-2.5984,-2.6424,-2.6386,-2.6185,-2.5837,-2.5686,-2.5398,-2.4838,-2.4443,-2.4092,-2.3816,-2.3358,-2.3108,-2.3108,-2.3108,-2.3108,-2.3108,-2.3108,-2.3108,-2.3108,-2.3108,-2.3108,-2.3108,-2.3108,-2.3108,-2.3108,-2.3108,-2.3108,-1.5604,-1.6248,-1.6711,-1.6756,-1.7412,0.0,-2.0098,-2.0091,0.0,0.0,0.0,0.0,0.0,0.0,0.0,0.0,0.0,0.0,0.0,0.0,0.0,0.0,0.0,0.0,0.0,0.0,0.0,0.0,0.0,0.0,-3.2213,-3.2924,-3.3375,-3.3392,-3.3392,-3.3139,-3.2587,-3.2512,-3.2512,-3.2512,-3.2557,-3.2213,-3.16,-3.2258,-3.2198,-3.157,-3.163,-3.1585,-3.1511,-3.1555,-3.154,-3.1511,-3.1511,-3.1122,-3.0507,-2.9939,-3.0088,-3.0567,-3.0511,-3.0014,-2.9361,-2.9243,-2.8827,-2.834,-2.8283,-2.8879,-2.9585,-2.9585,-2.9032,-2.8412,-2.8326,-2.7749,-2.7143,-2.7113,-2.6438,-2.5839,-2.5931,-2.5743,-2.5448,-2.4938,-2.5699,-2.626,-2.5686,-2.6072,-2.6449,-2.6487,-2.6034,-2.5837,-2.6361,-2.5959,-2.5398,-2.4838,-2.4763,-2.4299,-2.3258,-2.3133,-2.3108,-2.3108,-2.3108,-2.3108,-2.3108,-2.3108,-2.3108,-2.3108,-2.3108,-2.3108,-2.3108,-2.3108,-2.3108,-2.3108,-2.3108,-2.3108,-1.5619,-1.6248,-1.6696,-1.6696,-1.7055,0.0,0.0,0.0,0.0,0.0,0.0,0.0,0.0,0.0,0.0,0.0,0.0,0.0,0.0,0.0,0.0,0.0,0.0,0.0,0.0,0.0,0.0,0.0,0.0,0.0,-3.237,-3.269,-3.2706,-3.2258,-3.2243,-3.2123,-3.1869,-3.1869,-3.1869,-3.1869,-3.1869,-3.175,-3.1511,-3.1765,-3.1735,-3.1511,-3.1511,-3.1511,-3.1466,-3.1047,-3.0896,-3.0823,-3.0462,-3.0163,-2.9909,-2.9696,-2.9729,-2.9869,-2.9325,-2.8642,-2.7985,-2.7912,-2.7758,-2.7707,-2.8154,-2.8611,-2.8886,-2.8412,-2.7764,-2.7206,-2.7159,-2.6555,-2.5951,-2.5904,-2.5009,-2.4489,-2.5669,-2.5499,-2.4958,-2.4418,-2.5184,-2.5749,-2.5209,-2.5297,-2.5674,-2.6386,-2.5996,-2.5674,-2.59,-2.6084,-2.5946,-2.536,-2.5008,-2.4474,-2.371,-2.3308,-2.3108,-2.3108,-2.3108,-2.3108,-2.3108,-2.3108,-2.3108,-2.3108,-2.3108,-2.3108,-2.3108,-2.3108,-2.3108,-2.3108,-2.3108,-2.3108,-1.529,-1.5785,-1.6159,0.0,0.0,0.0,0.0,0.0,0.0,0.0,0.0,0.0,0.0,0.0,0.0,0.0,0.0,0.0,0.0,0.0,0.0,0.0,0.0,0.0,0.0,0.0,0.0,0.0,0.0,0.0,0.0,-3.2049,-3.1974,-3.1511,-3.1511,-3.1406,-3.1182,-3.1182,-3.1077,-3.0883,-3.0883,-3.1107,-3.1496,-3.1271,-3.1182,-3.1182,-3.1182,-3.1077,-3.0853,-3.0417,-3.0223,-3.0148,-2.952,-2.9265,-2.9277,-2.9052,-2.9112,-2.9212,-2.8596,-2.8066,-2.7626,-2.7527,-2.7428,-2.7428,-2.793,-2.8169,-2.8185,-2.7668,-2.6854,-2.614,-2.6106,-2.5692,-2.5302,-2.5503,-2.4481,-2.3884,-2.5405,-2.5102,-2.4362,-2.3828,-2.4607,-2.5234,-2.485,-2.4788,-2.5197,-2.6336,-2.572,-2.5222,-2.5548,-2.5799,-2.585,-2.5624,-2.4971,-2.4406,-2.4029,-2.3446,-2.3108,-2.3108,-2.3108,-2.3108,-2.3108,-2.3108,-2.3108,-2.3108,-2.3108,-2.3108,-2.3108,-2.3108,-2.3108,-2.3108,-2.3108,-2.3108,-1.4618,-1.4797,0.0,0.0,0.0,0.0,0.0,0.0,0.0,0.0,0.0,0.0,0.0,0.0,0.0,0.0,0.0,0.0,0.0,0.0,0.0,0.0,0.0,0.0,0.0,0.0,0.0,0.0,0.0,0.0,0.0,-3.1122,-3.1496,-3.1481,-3.1496,-3.1167,-3.0507,-3.0492,-3.0193,-2.9606,-2.9592,-3.0253,-3.1466,-3.0806,-3.0492,-3.0492,-3.0492,-3.0148,-2.9606,-2.9592,-2.9592,-2.9517,-2.8846,-2.8592,-2.8502,-2.7839,-2.8034,-2.8592,-2.8592,-2.8592,-2.8592,-2.8592,-2.8128,-2.76,-2.76,-2.76,-2.76,-2.76,-2.6534,-2.5398,-2.5398,-2.5412,-2.5577,-2.6324,-2.537,-2.4481,-2.5231,-2.4665,-2.3828,-2.3221,-2.4023,-2.48,-2.48,-2.4788,-2.5197,-2.6336,-2.5091,-2.4393,-2.5473,-2.5146,-2.4988,-2.5536,-2.4632,-2.4004,-2.4004,-2.3446,-2.3108,-2.3108,-2.3108,-2.3108,-2.3108,-2.3108,-2.3108,-2.3108,-2.3108,-2.3108,-2.3108,-2.3108,-2.3108,-2.3108,-2.3108,-2.3108,-1.4219,-1.4645,0.0,0.0,0.0,0.0,0.0,0.0,0.0,0.0,0.0,0.0,0.0,0.0,0.0,0.0,0.0,0.0,0.0,0.0,0.0,0.0,0.0,0.0,0.0,0.0,0.0,0.0,0.0,0.0,0.0,-3.0462,-3.0612,-3.0178,-3.0582,-3.0507,-2.9864,-2.9864,-2.9786,-2.9606,-2.9116,-2.934,-3.0163,-2.9953,-2.9864,-2.9864,-2.9864,-2.9786,-2.9577,-2.9086,-2.8607,-2.8169,-2.7974,-2.7899,-2.7884,-2.7675,-2.772,-2.7899,-2.7899,-2.755,-2.7211,-2.7746,-2.7417,-2.693,-2.7433,-2.76,-2.7484,-2.6982,-2.6496,-2.6041,-2.5536,-2.5291,-2.5161,-2.5003,-2.4192,-2.3679,-2.4452,-2.4292,-2.3954,-2.3778,-2.4619,-2.536,-2.536,-2.5059,-2.5197,-2.6336,-2.5385,-2.4971,-2.6097,-2.5711,-2.5423,-2.5573,-2.4632,-2.4004,-2.4004,-2.3446,-2.3108,-2.3108,-2.3108,-2.3108,-2.3108,-2.3108,-2.3108,-2.3108,-2.3108,-2.3108,-2.3108,-2.3108,-2.3108,-2.3108,-2.3108,-2.3108,-1.3966,0.0,0.0,0.0,0.0,0.0,0.0,0.0,0.0,0.0,0.0,0.0,0.0,0.0,0.0,0.0,0.0,0.0,0.0,0.0,0.0,0.0,0.0,0.0,0.0,0.0,0.0,0.0,0.0,0.0,0.0,-2.9789,-2.9968,-2.9621,-2.9939,-2.9834,-2.9205,-2.8948,-2.8813,-2.8798,-2.8113,-2.8143,-2.8813,-2.9097,-2.919,-2.9175,-2.8933,-2.8663,-2.8408,-2.8248,-2.7824,-2.7225,-2.7495,-2.76,-2.76,-2.76,-2.76,-2.7555,-2.73,-2.692,-2.6557,-2.6748,-2.651,-2.6279,-2.6996,-2.721,-2.7156,-2.7001,-2.6721,-2.6336,-2.5591,-2.5079,-2.4773,-2.4733,-2.4083,-2.3614,-2.4171,-2.3962,-2.3653,-2.3653,-2.4368,-2.5034,-2.5259,-2.4988,-2.5121,-2.6021,-2.5385,-2.5059,-2.5724,-2.5686,-2.5686,-2.5912,-2.4971,-2.433,-2.433,-2.3559,-2.3108,-2.3108,-2.3108,-2.3108,-2.3108,-2.3108,-2.3108,-2.3108,-2.3108,-2.3108,-2.3108,-2.3108,-2.3108,-2.3108,-2.3108,-2.3108,0.0,0.0,0.0,0.0,0.0,0.0,0.0,0.0,0.0,0.0,0.0,0.0,0.0,0.0,0.0,0.0,0.0,0.0,0.0,0.0,0.0,0.0,0.0,0.0,0.0,0.0,0.0,0.0,0.0,0.0,0.0,-2.9011,-2.9397,-2.9337,-2.9457,-2.9172,-2.8427,-2.7884,-2.754,-2.7405,-2.6866,-2.6896,-2.7435,-2.8098,-2.8427,-2.8382,-2.772,-2.7121,-2.6632,-2.7195,-2.7061,-2.6557,-2.718,-2.745,-2.751,-2.751,-2.751,-2.742,-2.6821,-2.6557,-2.6408,-2.5809,-2.5615,-2.5719,-2.6318,-2.6497,-2.6632,-2.733,-2.692,-2.6158,-2.555,-2.4835,-2.4445,-2.5049,-2.4541,-2.395,-2.4148,-2.3632,-2.312,-2.317,-2.364,-2.4192,-2.4763,-2.4825,-2.4996,-2.5523,-2.5197,-2.4863,-2.4863,-2.5259,-2.5711,-2.6223,-2.5347,-2.4687,-2.4637,-2.3747,-2.3158,-2.3108,-2.3108,-2.3108,-2.3108,-2.3108,-2.3108,-2.3108,-2.3108,-2.3108,-2.3108,-2.3108,-2.3108,-2.3108,-2.3108,-2.3108,0.0,0.0,0.0,0.0,0.0,0.0,0.0,0.0,0.0,0.0,0.0,0.0,0.0,0.0,0.0,0.0,0.0,0.0,0.0,0.0,0.0,0.0,0.0,0.0,0.0,0.0,0.0,0.0,0.0,0.0,-2.6243,-2.7365,-2.7794,-2.7245,-2.8263,-2.8233,-2.7036,-2.7405,-2.7076,0.0,-2.6408,-2.6393,-2.6048,-2.6722,-2.7021,-2.6976,-2.6318,-2.6243,-2.6557,-2.6183,-2.5959,-2.5839,-2.5974,-2.6348,-2.6821,-2.6821,-2.6821,-2.6782,-2.6632,-2.6258,-2.5794,-2.5659,-2.5615,-2.563,-2.5779,-2.5824,-2.5959,-2.6641,-2.5861,-2.4938,-2.5301,-2.4739,-2.3997,-2.3675,-2.3424,-2.3319,-2.336,-2.3215,-2.3246,-2.3715,-2.3916,-2.4305,-2.5259,-2.5096,-2.4996,-2.5523,-2.5498,-2.5435,-2.5435,-2.5172,-2.487,-2.4556,-2.4318,-2.3991,-2.3509,-2.369,-2.3584,-2.3133,-2.3108,-2.3108,-2.3108,-2.3108,-2.3108,-2.3108,-2.3108,-2.3108,-2.3108,-2.3108,-2.3108,-2.3108,-2.3108,-2.3108,0.0,0.0,0.0,0.0,0.0,0.0,0.0,0.0,0.0,0.0,0.0,0.0,0.0,0.0,0.0,0.0,0.0,0.0,0.0,0.0,0.0,0.0,0.0,0.0,0.0,0.0,0.0,0.0,0.0,-2.5247,-2.5576,-2.6258,-2.6482,-2.6138,-2.6797,-2.6826,-2.6123,-2.6153,-2.5974,-2.5615,-2.563,-2.5457,-2.5143,-2.5824,-2.6123,-2.6093,-2.5749,-2.563,-2.5644,-2.5615,-2.5397,-2.5143,-2.5457,-2.5809,-2.6123,-2.6123,-2.6123,-2.6078,-2.5749,-2.5397,-2.5068,-2.4762,-2.4642,-2.4702,-2.5008,-2.5337,-2.5678,-2.5973,-2.5557,-2.4998,-2.4913,-2.4305,-2.3599,-2.3198,-2.3321,-2.3446,-2.3158,-2.3108,-2.3195,-2.3496,-2.3803,-2.418,-2.4732,-2.4833,-2.4876,-2.5184,-2.5784,-2.5979,-2.5292,-2.5784,-2.5716,-2.4513,-2.4393,-2.4167,-2.3572,-2.3534,-2.3421,-2.312,-2.3108,-2.3108,-2.3108,-2.3108,-2.3108,-2.3108,-2.3108,-2.3108,-2.3108,-2.3108,-2.3108,-2.3108,-2.3108,-2.3108,0.0,0.0,0.0,0.0,0.0,0.0,0.0,0.0,0.0,0.0,0.0,0.0,0.0,0.0,0.0,0.0,0.0,0.0,0.0,0.0,0.0,0.0,0.0,0.0,0.0,0.0,0.0,0.0,0.0,-2.4664,-2.5241,-2.5352,-2.5435,-2.5435,-2.5555,-2.5531,-2.5435,-2.4993,-2.4933,-2.5255,-2.4575,-2.4335,-2.444,-2.4874,-2.5226,-2.5412,-2.5315,-2.4993,-2.4634,-2.5068,-2.4918,-2.4485,-2.5046,-2.533,-2.5435,-2.5435,-2.5435,-2.5337,-2.467,-2.444,-2.4313,-2.3658,-2.3508,-2.3699,-2.4261,-2.4889,-2.5429,-2.5361,-2.5484,-2.5483,-2.4689,-2.4108,-2.3659,-2.3399,-2.3672,-2.3869,-2.3238,-2.3108,-2.3108,-2.3108,-2.3602,-2.4004,-2.4004,-2.4381,-2.4739,-2.4956,-2.5986,-2.6403,-2.5358,-2.6719,-2.7045,-2.509,-2.4969,-2.4754,-2.4073,-2.3622,-2.3358,-2.3258,-2.3258,-2.3208,-2.3108,-2.3108,-2.3108,-2.3108,-2.3108,-2.3108,-2.3108,-2.3108,-2.3108,-2.3108,-2.3108,-2.3108,0.0,0.0,0.0,0.0,0.0,0.0,0.0,0.0,0.0,0.0,0.0,0.0,0.0,0.0,0.0,0.0,0.0,0.0,0.0,0.0,0.0,0.0,0.0,0.0,0.0,0.0,0.0,0.0,-2.3789,-2.3774,-2.3864,-2.441,-2.4739,-2.4739,-2.5292,-2.5307,-2.4739,-2.5217,-2.4941,-2.3864,-2.3257,-2.3242,-2.3729,-2.3287,-2.3684,-2.4709,-2.4118,-2.4163,-2.4575,-2.4073,-2.3804,-2.3744,-2.3834,-2.4216,-2.4739,-2.4739,-2.4739,-2.4656,-2.404,-2.3782,-2.3627,-2.3016,-2.3165,-2.3625,-2.3714,-2.4201,-2.4721,-2.466,-2.5049,-2.548,-2.5287,-2.519,-2.4968,-2.4295,-2.4213,-2.4047,-2.3271,-2.3108,-2.3108,-2.3108,-2.3602,-2.4004,-2.4004,-2.4054,-2.4494,-2.5574,-2.5998,-2.6365,-2.6818,-2.7618,-2.7363,-2.5348,-2.5612,-2.5395,-2.4104,-2.4368,-2.4362,-2.3916,-2.3891,-2.3665,-2.312,-2.3108,-2.3108,-2.3108,-2.3108,-2.3108,-2.3108,-2.3108,-2.3108,-2.3108,-2.3108,-2.3108,0.0,0.0,0.0,0.0,0.0,0.0,0.0,0.0,0.0,0.0,0.0,0.0,0.0,0.0,0.0,0.0,0.0,0.0,0.0,0.0,0.0,0.0,0.0,0.0,0.0,0.0,0.0,0.0,-2.3107,-2.2921,-2.2562,-2.2817,-2.2981,-2.2981,-2.3266,-2.3281,-2.2981,-2.3266,-2.3116,-2.2532,-2.2283,-2.2278,-2.2532,-2.2248,-2.2637,-2.3535,-2.358,-2.358,-2.3535,-2.358,-2.3595,-2.3595,-2.3595,-2.3789,-2.4036,-2.4036,-2.4036,-2.3999,-2.374,-2.3637,-2.3551,-2.3275,-2.3377,-2.3595,-2.3595,-2.4066,-2.4496,-2.4024,-2.4444,-2.5012,-2.4846,-2.4832,-2.4901,-2.4897,-2.4595,-2.4205,-2.3855,-2.3424,-2.3108,-2.3108,-2.3308,-2.3484,-2.3484,-2.4134,-2.4661,-2.48,-2.657,-2.7399,-2.6029,-2.7497,-2.7713,-2.5244,-2.5492,-2.5461,-2.4538,-2.465,-2.4582,-2.4029,-2.44,-2.4374,-2.3793,-2.3767,-2.3767,-2.3767,-2.3335,-2.3108,-2.3108,-2.3108,-2.3108,-2.3108,-2.3108,-2.3108,0.0,0.0,0.0,0.0,0.0,0.0,0.0,0.0,0.0,0.0,0.0,0.0,0.0,0.0,0.0,0.0,0.0,0.0,0.0,0.0,0.0,0.0,0.0,0.0,0.0,0.0,0.0,0.0,-2.2448,-2.2239,-2.1724,-2.1695,-2.1695,-2.1695,-2.1695,-2.1695,-2.1695,-2.1695,-2.1695,-2.1695,-2.153,-2.1545,-2.1695,-2.1515,-2.171,-2.2239,-2.2847,-2.3041,-2.2957,-2.3236,-2.346,-2.3595,-2.3595,-2.3595,-2.3595,-2.3595,-2.349,-2.3364,-2.3362,-2.336,-2.3364,-2.3362,-2.3486,-2.3595,-2.3595,-2.4066,-2.4473,-2.3836,-2.4408,-2.5135,-2.4929,-2.5066,-2.5339,-2.5616,-2.5259,-2.4696,-2.4118,-2.3679,-2.3335,-2.3125,-2.3275,-2.3335,-2.3138,-2.3919,-2.446,-2.4134,-2.6589,-2.7734,-2.568,-2.7521,-2.813,-2.589,-2.602,-2.6097,-2.5697,-2.5659,-2.5478,-2.5084,-2.5423,-2.5394,-2.4878,-2.4675,-2.4567,-2.4567,-2.3826,-2.3395,-2.3395,-2.3198,-2.3215,-2.3395,-2.3198,-2.3108,0.0,0.0,0.0,0.0,0.0,0.0,0.0,0.0,0.0,0.0,0.0,0.0,0.0,0.0,0.0,0.0,0.0,0.0,0.0,0.0,0.0,0.0,0.0,0.0,0.0,0.0,0.0,0.0,-2.1739,-2.1739,-2.1695,-2.1695,-2.1695,-2.1695,-2.1695,-2.1695,-2.1695,-2.1695,-2.1695,-2.168,-2.1066,-2.1077,-2.168,-2.1051,-2.0763,-2.0838,-2.1515,-2.2458,-2.3505,-2.2972,-2.3092,-2.3595,-2.3595,-2.3595,-2.3595,-2.3595,-2.3236,-2.2754,-2.2753,-2.2754,-2.2754,-2.2745,-2.312,-2.3595,-2.3595,-2.4066,-2.4587,-2.4481,-2.5438,-2.648,-2.6416,-2.6901,-2.7261,-2.6602,-2.6404,-2.5783,-2.3649,-2.3738,-2.4002,-2.3245,-2.3721,-2.4002,-2.3215,-2.3163,-2.3433,-2.4171,-2.5412,-2.6465,-2.6998,-2.8195,-2.8754,-2.8088,-2.8046,-2.806,-2.8033,-2.8019,-2.8005,-2.7977,-2.7409,-2.6846,-2.631,-2.5674,-2.5342,-2.5342,-2.4624,-2.4234,-2.4234,-2.3484,-2.3484,-2.4234,-2.3454,-2.3108,0.0,0.0,0.0,0.0,0.0,0.0,0.0,0.0,0.0,0.0,0.0,0.0,0.0,0.0,0.0,0.0,0.0,0.0,0.0,0.0,0.0,0.0,0.0,0.0,0.0,0.0,0.0,0.0,0.0,-2.0872,-2.0441,-2.0427,-2.0427,-2.0427,-2.0427,-2.0427,-2.0427,-2.0427,-2.0427,-2.0408,-2.0168,-2.0168,-2.0412,-2.0168,-2.0288,-2.0688,-2.0498,-2.0917,-2.1799,-2.2433,-2.2583,-2.2413,-2.2853,-2.3032,-2.3077,-2.3445,-2.3227,-2.2712,-2.271,-2.2714,-2.2691,-2.2689,-2.3094,-2.3595,-2.3595,-2.3774,-2.3933,-2.3874,-2.4569,-2.5405,-2.5756,-2.6402,-2.6887,-2.6567,-2.5795,-2.4928,-2.4055,-2.4089,-2.406,-2.3258,-2.3335,-2.3454,-2.3155,-2.3543,-2.3796,-2.356,-2.5405,-2.6728,-2.6516,-2.7947,-2.8919,-2.873,-2.8702,-2.8702,-2.8702,-2.8702,-2.8581,-2.821,-2.8424,-2.811,-2.7143,-2.6887,-2.6561,-2.6095,-2.537,-2.5007,-2.5007,-2.425,-2.4031,-2.4292,-2.4002,-2.3603,0.0,0.0,0.0,0.0,0.0,0.0,0.0,0.0,0.0,0.0,0.0,0.0,0.0,0.0,0.0,0.0,0.0,0.0,0.0,0.0,0.0,0.0,0.0,0.0,0.0,0.0,0.0,0.0,0.0,0.0,-1.9723,-1.9836,-1.998,-2.0122,-2.0137,-2.0052,-1.9909,-1.9909,-1.9821,-1.9708,-1.9708,-1.9708,-1.9708,-1.9708,-1.9929,-2.0363,-2.0124,-2.0423,-2.1096,-2.1739,-2.1889,-2.1739,-2.2194,-2.2358,-2.2418,-2.2802,-2.2562,-2.2074,-2.2298,-2.2224,-2.2104,-2.2553,-2.2972,-2.3325,-2.3535,-2.3595,-2.3642,-2.3821,-2.421,-2.4729,-2.5375,-2.6051,-2.6653,-2.6836,-2.5967,-2.5103,-2.5065,-2.4851,-2.4452,-2.3649,-2.4086,-2.4432,-2.3956,-2.4495,-2.4702,-2.3915,-2.5734,-2.7007,-2.6427,-2.7705,-2.8875,-2.9397,-2.9229,-2.931,-2.9813,-2.9858,-2.9588,-2.9008,-2.9435,-2.9142,-2.7927,-2.7883,-2.755,-2.6893,-2.6135,-2.5892,-2.6135,-2.4894,-2.4423,-2.4652,-2.4147,-2.3619,0.0,0.0,0.0,0.0,0.0,0.0,0.0,0.0,0.0,0.0,0.0,0.0,0.0,0.0,0.0,0.0,0.0,0.0,0.0,0.0,0.0,0.0,0.0,0.0,0.0,0.0,0.0,0.0,-1.9744,-1.9729,-1.9711,-2.0089,-2.0516,-2.0959,-2.0959,-2.0748,-2.0331,-2.0299,-2.0091,-1.9711,-1.9708,-1.9708,-1.9708,-1.9708,-1.9708,-1.9738,-2.0393,-2.1051,-2.159,-2.0957,-2.1062,-2.1635,-2.1665,-2.1665,-2.1665,-2.168,-2.1276,-2.0778,-2.144,-2.1246,-2.0932,-2.2239,-2.2688,-2.2808,-2.3415,-2.3595,-2.3744,-2.4395,-2.4575,-2.4724,-2.5412,-2.6054,-2.6737,-2.7435,-2.7019,-2.6481,-2.651,-2.5933,-2.5203,-2.4481,-2.6008,-2.6997,-2.5647,-2.5938,-2.608,-2.5256,-2.6318,-2.7157,-2.6977,-2.7623,-2.8661,-3.0166,-2.9751,-2.9944,-3.1393,-3.1511,-3.1212,-3.0567,-3.0537,-2.9968,-2.8712,-2.8637,-2.8308,-2.766,-2.6919,-2.6893,-2.763,-2.5412,-2.4738,-2.5398,-2.3872,-2.3168,-1.78,0.0,0.0,0.0,0.0,0.0,0.0,0.0,0.0,0.0,0.0,0.0,0.0,0.0,0.0,0.0,0.0,0.0,0.0,0.0,0.0,0.0,0.0,0.0,0.0,0.0,0.0,0.0,-2.0448,-2.0482,-2.0158,-2.0229,-2.0365,-2.0483,-1.9981,-2.0048,-2.0813,-1.9933,-1.9716,-2.0141,-1.9839,-1.9708,-1.9708,-1.9708,-1.9708,-1.9708,-1.9884,-2.0082,-2.0292,-2.0587,-2.0528,-2.0307,-2.0797,-2.0991,-2.1051,-2.1515,-2.1276,-2.0718,-2.0897,-2.0872,-2.0838,-2.1695,-2.2298,-2.2808,-2.3415,-2.3595,-2.364,-2.3819,-2.3879,-2.4148,-2.5315,-2.5411,-2.5639,-2.7215,-2.6667,-2.5894,-2.6409,-2.6336,-2.5987,-2.5231,-2.5564,-2.5841,-2.5453,-2.5564,-2.577,-2.5997,-2.6703,-2.7563,-2.8568,-2.9274,-3.0037,-3.1073,-3.0998,-3.1056,-3.1467,-3.1511,-3.1421,-3.1241,-3.1212,-3.0838,-3.0013,-2.9549,-2.9247,-2.9052,-2.7899,-2.762,-2.8308,-2.67,-2.6014,-2.6176,-2.5217,-2.4467,0.0,0.0,0.0,0.0,0.0,0.0,-1.78,-1.8369,0.0,0.0,0.0,0.0,0.0,0.0,0.0,0.0,0.0,0.0,0.0,0.0,0.0,0.0,0.0,0.0,0.0,-2.0991,-2.0878,-2.06,-2.0845,-2.0959,-2.0846,-2.083,-2.0927,-2.1134,-2.0732,-2.0747,-2.1244,-2.04,-2.0075,-2.0297,-1.9892,-1.9708,-1.9708,-1.9708,-1.9708,-1.9708,-1.9708,-1.9708,-1.9738,-2.0124,-2.0049,-1.9738,-2.0124,-2.0288,-2.0333,-2.0722,-2.0617,-2.0288,-2.0288,-2.0288,-2.0393,-2.1066,-2.1545,-2.2044,-2.2936,-2.3206,-2.3287,-2.3535,-2.3595,-2.3849,-2.4903,-2.5118,-2.5359,-2.6499,-2.6318,-2.6041,-2.6455,-2.6506,-2.6363,-2.5933,-2.6321,-2.6651,-2.6365,-2.6551,-2.6743,-2.6778,-2.7343,-2.8068,-2.8829,-2.9319,-2.9895,-3.063,-3.0449,-3.0494,-3.1032,-3.1077,-3.1077,-3.1077,-3.1346,-3.0957,-2.9759,-2.9879,-2.9606,-2.8783,-2.8274,-2.8079,-2.8173,-2.7042,-2.6336,-2.6041,-2.5591,-2.5175,0.0,0.0,0.0,0.0,0.0,0.0,-1.7817,-1.8318,-1.8775,0.0,0.0,0.0,0.0,0.0,0.0,0.0,0.0,0.0,0.0,0.0,0.0,0.0,0.0,0.0,-2.0877,-2.0893,-2.0877,-2.083,-2.083,-2.1019,-2.1452,-2.1482,-2.1711,-2.2209,-2.2139,-2.1962,-2.1688,-2.1148,-2.0701,-2.0365,-1.9927,-1.9708,-1.9708,-1.9708,-1.9708,-1.9708,-1.9708,-1.9708,-1.9708,-1.9708,-1.9708,-1.9708,-1.9708,-1.9708,-1.9708,-1.9708,-1.9708,-1.9708,-1.9708,-1.9708,-1.9813,-2.0483,-2.0748,-2.1051,-2.2328,-2.2748,-2.2912,-2.3445,-2.3551,-2.3672,-2.4403,-2.4992,-2.5431,-2.5666,-2.6119,-2.6567,-2.6673,-2.6663,-2.6616,-2.6616,-2.7623,-2.8293,-2.7705,-2.8094,-2.8251,-2.754,-2.8083,-2.8578,-2.8451,-2.867,-2.9011,-2.952,-2.9131,-2.9265,-3.0402,-3.0507,-3.0537,-3.0612,-3.1167,-3.0718,-2.8996,-2.9939,-2.9684,-2.7959,-2.8368,-2.8263,-2.76,-2.693,-2.6229,-2.5508,-2.5618,-2.5591,0.0,0.0,0.0,0.0,0.0,0.0,-1.7946,-1.7901,-1.8003,0.0,0.0,0.0,0.0,0.0,0.0,0.0,0.0,0.0,0.0,0.0,0.0,0.0,0.0,0.0,-2.0157,-2.0197,-2.0063,-1.9743,-1.9715,-2.0002,-2.0677,-2.0724,-2.1033,-2.1702,-2.117,-2.1268,-2.2149,-2.0801,-2.0368,-2.0845,-2.0085,-1.9708,-1.9708,-1.9708,-1.9708,-1.9708,-1.9708,-1.9708,-1.9708,-1.9708,-1.9708,-1.9708,-1.9708,-1.9708,-1.9708,-1.9708,-1.9708,-1.9708,-1.9708,-1.9708,-1.9813,-2.0483,-2.1081,-2.165,-2.2463,-2.3047,-2.3445,-2.3565,-2.3246,-2.3147,-2.4313,-2.4336,-2.4464,-2.6042,-2.6489,-2.6738,-2.729,-2.7394,-2.7382,-2.7382,-2.7603,-2.775,-2.7615,-2.7705,-2.7923,-2.8278,-2.8487,-2.8778,-2.9285,-2.9811,-2.9983,-2.9651,-2.9909,-3.0238,-3.0477,-3.0507,-3.0746,-3.1271,-3.1436,-3.1331,-3.0957,-3.0644,-3.0328,-2.9939,-2.9056,-2.8263,-2.76,-2.7473,-2.7008,-2.6283,-2.689,-2.6837,0.0,0.0,0.0,-1.9,0.0,0.0,0.0,-1.8065,-1.7957,-1.8487,0.0,0.0,0.0,0.0,0.0,0.0,0.0,0.0,0.0,0.0,0.0,0.0,0.0,0.0,-1.9989,-2.0002,-1.9925,-1.971,-1.9697,-1.9864,-2.0227,-2.0244,-2.0594,-2.1375,-2.1039,-2.1206,-2.1943,-2.0951,-2.0528,-2.0633,-1.9997,-1.9708,-1.9708,-1.9708,-1.9708,-1.9708,-1.9708,-1.9708,-1.9708,-1.9708,-1.9708,-1.9708,-1.9708,-1.9708,-1.9708,-1.9708,-1.9708,-1.9708,-1.9708,-1.9708,-1.9768,-2.0094,-2.0662,-2.1335,-2.1994,-2.2868,-2.3595,-2.3595,-2.3377,-2.3297,-2.394,-2.4119,-2.4395,-2.538,-2.6108,-2.6701,-2.7031,-2.736,-2.76,-2.76,-2.76,-2.76,-2.76,-2.76,-2.7705,-2.8064,-2.8109,-2.8229,-2.8558,-2.8873,-2.9056,-2.9086,-2.937,-2.9819,-3.0447,-3.0507,-3.0806,-3.1466,-3.1511,-3.1346,-3.1002,-3.0987,-3.0717,-3.0058,-2.8783,-2.7944,-2.76,-2.76,-2.7408,-2.706,-2.7433,-2.7408,0.0,0.0,0.0,0.0,0.0,-1.855,0.0,0.0,0.0,-1.8946,0.0,0.0,0.0,0.0,0.0,0.0,0.0,0.0,0.0,0.0,0.0,0.0,0.0,0.0,0.0,-1.9579,-1.9579,-1.9579,-1.9579,-1.9642,-1.9778,-1.9782,-2.0217,-2.1156,-2.1107,-2.1234,-2.1597,-2.1118,-2.0666,-2.0297,-1.9892,-1.9708,-1.9708,-1.9708,-1.9708,-1.9708,-1.9708,-1.9708,-1.9708,-1.9708,-1.9708,-1.9708,-1.9708,-1.9708,-1.9708,-1.9708,-1.9708,-1.9708,-1.9708,-1.9708,-1.9708,-1.9708,-2.0243,-2.1051,-2.1829,-2.2772,-2.3595,-2.3595,-2.3595,-2.3595,-2.3595,-2.4014,-2.444,-2.4575,-2.554,-2.6437,-2.6557,-2.7136,-2.76,-2.76,-2.76,-2.76,-2.76,-2.76,-2.76,-2.76,-2.76,-2.7645,-2.7779,-2.7899,-2.8199,-2.8727,-2.8906,-2.9385,-3.0417,-3.0507,-3.0806,-3.1466,-3.1511,-3.1197,-3.0537,-3.0778,-3.0449,-2.9442,-2.8229,-2.76,-2.76,-2.7735,-2.772,-2.76,-2.76,-2.76,0.0,0.0,0.0,0.0,-2.0154,0.0,0.0,0.0,-1.8618,-1.8093,0.0,0.0,0.0,0.0,0.0,0.0,0.0,0.0,0.0,0.0,0.0,0.0,0.0,0.0,0.0,-1.8053,-1.8053,-1.8053,-1.8053,-1.8352,-1.8995,-1.9012,-1.9701,-2.114,-2.0797,-2.0916,-2.1597,-2.0781,-2.0348,-2.0297,-1.9892,-1.9708,-1.9708,-1.9708,-1.9708,-1.9708,-1.9708,-1.9708,-1.9708,-1.9708,-1.9708,-1.9708,-1.9708,-1.9708,-1.9708,-1.9708,-1.9708,-1.9708,-1.9708,-1.9708,-1.9708,-1.9708,-2.0561,-2.1814,-2.3011,-2.349,-2.3595,-2.3595,-2.3595,-2.3595,-2.3595,-2.3655,-2.3864,-2.4455,-2.5173,-2.5884,-2.6467,-2.7136,-2.76,-2.76,-2.76,-2.76,-2.76,-2.76,-2.76,-2.76,-2.76,-2.7809,-2.8412,-2.9022,-2.9412,-2.9487,-2.9968,-3.0342,-3.0492,-3.0507,-3.0806,-3.1466,-3.1511,-3.1197,-3.0537,-2.949,-2.8861,-2.8712,-2.7989,-2.76,-2.76,-2.8188,-2.8173,-2.76,-2.76,-2.76,0.0,0.0,0.0,0.0,0.0,0.0,-2.0697,0.0,-1.9218,0.0,0.0,0.0,0.0,0.0,0.0,0.0,0.0,0.0,0.0,0.0,0.0,0.0,0.0,0.0,0.0,0.0,0.0,0.0,-1.8259,-1.8326,-1.8492,-1.8893,-1.9452,-2.0134,-2.0383,-2.0604,-2.0846,-2.0467,-2.0193,-1.9962,-1.9782,-1.9708,-1.9708,-1.9708,-1.9708,-1.9708,-1.9708,-1.9708,-1.9708,-1.9708,-1.9708,-1.9708,-1.9708,-1.9708,-1.9708,-1.9708,-1.9708,-1.9708,-1.9708,-1.9708,-1.9768,-2.0154,-2.0917,-2.1859,-2.2808,-2.331,-2.3595,-2.3595,-2.3595,-2.3595,-2.3595,-2.3595,-2.3864,-2.4918,-2.5397,-2.5899,-2.6956,-2.7405,-2.76,-2.76,-2.76,-2.76,-2.76,-2.76,-2.76,-2.76,-2.76,-2.7839,-2.8502,-2.8846,-2.9295,-3.0043,-3.0357,-3.0672,-3.1032,-3.1077,-3.1197,-3.1481,-3.1122,-3.0642,-2.9998,-2.9086,-2.8607,-2.8607,-2.8308,-2.8004,-2.76,-2.8263,-2.8457,-2.8173,-2.8588,-2.8334,-2.2057,0.0,0.0,0.0,0.0,0.0,0.0,0.0,0.0,0.0,0.0,0.0,0.0,0.0,0.0,0.0,0.0,0.0,0.0,0.0,0.0,0.0,0.0,0.0,0.0,0.0,0.0,-1.8603,-1.8595,-1.8479,-1.8208,-1.8625,-1.9038,-1.9397,-1.9709,-2.0016,-2.0299,-2.0177,-1.9982,-1.9708,-1.9708,-1.9708,-1.9708,-1.9708,-1.9708,-1.9708,-1.9708,-1.9708,-1.9708,-1.9708,-1.9764,-1.9856,-1.9729,-1.9764,-1.9856,-1.9729,-1.9708,-1.9708,-1.9708,-1.9708,-1.9813,-2.0483,-2.1156,-2.1814,-2.2508,-2.3122,-2.3595,-2.3595,-2.3595,-2.3595,-2.3595,-2.3595,-2.3849,-2.4822,-2.533,-2.5869,-2.6851,-2.7345,-2.76,-2.76,-2.76,-2.76,-2.76,-2.76,-2.76,-2.76,-2.76,-2.789,-2.8746,-2.8696,-2.9165,-3.0591,-3.0453,-3.0522,-3.1167,-3.1062,-3.0972,-3.0972,-3.0357,-2.9774,-2.9325,-2.8667,-2.8323,-2.8323,-2.8502,-2.8353,-2.7884,-2.8712,-2.9116,-2.9116,-2.9056,-2.8562,0.0,0.0,0.0,-2.1724,0.0,0.0,0.0,0.0,-2.1137,0.0,0.0,0.0,0.0,0.0,0.0,0.0,0.0,0.0,0.0,0.0,0.0,0.0,0.0,0.0,0.0,0.0,0.0,-1.8595,-1.8595,-1.8479,-1.8208,-1.7909,-1.8267,-1.9367,-1.866,-1.8935,-2.0282,-1.9909,-1.9711,-1.9708,-1.9708,-1.9708,-1.9708,-1.9708,-1.9708,-1.9708,-1.9708,-1.9708,-1.9708,-1.9708,-1.9927,-2.0229,-1.9856,-1.9929,-2.0229,-1.9839,-1.9708,-1.9708,-1.9708,-1.9708,-1.9813,-2.0483,-2.1156,-2.1814,-2.2508,-2.3122,-2.3595,-2.3595,-2.3595,-2.3595,-2.3595,-2.3595,-2.361,-2.3655,-2.4657,-2.5615,-2.5659,-2.6677,-2.76,-2.76,-2.76,-2.76,-2.76,-2.76,-2.76,-2.76,-2.76,-2.8052,-2.9317,-2.895,-2.9309,-3.1178,-3.033,-2.9864,-3.0477,-2.9983,-2.9666,-2.9666,-2.9026,-2.8652,-2.8637,-2.8004,-2.763,-2.763,-2.8263,-2.8592,-2.8562,-2.9834,-3.0447,-3.0387,-2.8543,-2.7886,0.0,0.0,-2.2485,-2.2142,0.0,0.0,0.0,0.0,0.0,0.0,0.0,0.0,0.0,0.0,0.0,0.0,0.0,0.0,0.0,0.0,0.0,0.0,0.0,0.0,0.0,0.0,0.0,-1.9048,-1.9056,-1.8886,-1.8489,-1.8808,-1.8808,-1.8356,-1.8553,-1.8843,-1.9243,-1.9118,-1.9256,-1.9708,-1.9708,-1.9708,-1.9708,-1.9708,-1.9708,-1.9708,-1.9708,-1.9856,-2.0089,-2.0089,-2.0364,-2.0764,-2.0615,-2.0448,-2.0246,-1.9839,-1.9708,-1.9708,-1.9708,-1.9708,-1.9738,-1.9959,-2.0498,-2.1081,-2.1321,-2.2128,-2.3002,-2.3002,-2.3281,-2.3595,-2.3595,-2.3595,-2.3714,-2.4156,-2.4933,-2.5734,-2.6168,-2.6971,-2.76,-2.76,-2.76,-2.76,-2.76,-2.76,-2.76,-2.76,-2.7959,-2.8492,-2.9391,-2.9325,-2.9613,-3.0696,-3.0437,-3.0118,-2.9909,-2.9726,-2.9427,-2.8966,-2.8727,-2.8397,-2.7959,-2.772,-2.7809,-2.8248,-2.8906,-2.925,-2.925,-3.0103,-3.0507,-3.0449,-2.8811,-2.8124,-2.2296,-2.2487,0.0,-2.2377,-2.25,0.0,-2.3129,0.0,0.0,0.0,0.0,0.0,0.0,0.0,0.0,0.0,0.0,0.0,0.0,-1.831,0.0,0.0,0.0,0.0,0.0,0.0,-1.9067,-1.9282,-1.9297,-1.9107,0.0,0.0,-1.8717,-1.7828,-1.8146,-1.833,-1.8343,-1.8341,-1.8568,-1.8986,-1.9226,-1.9331,-1.9363,-1.9733,-1.9909,-1.9927,-2.0087,-2.021,-2.0297,-2.0297,-2.0483,-2.0764,-2.0764,-2.0682,-2.0516,-2.026,-2.0067,-1.9892,-1.9747,-1.9708,-1.9708,-1.9708,-2.0154,-2.0703,-2.0703,-2.1635,-2.2703,-2.2703,-2.3116,-2.3595,-2.3595,-2.3745,-2.3985,-2.4418,-2.5194,-2.5923,-2.6352,-2.7013,-2.7521,-2.7521,-2.757,-2.7675,-2.787,-2.7919,-2.7919,-2.7919,-2.8262,-2.8809,-2.9682,-2.9413,-2.9474,-3.0366,-3.0068,-2.9669,-2.9292,-2.9235,-2.8951,-2.8278,-2.8233,-2.8064,-2.7615,-2.7839,-2.8274,-2.8936,-2.9397,-2.9804,-3.0283,-3.0432,-3.0486,-3.0394,-2.9144,-2.8354]},{"header":{"parameterUnit":"m.s-1","parameterCategory":1,"la1":30.6,"la2":29.2853,"lo1":-89.7004,"lo2":-87.6739,"dy":0.0162,"dx":0.0183,"nx":112,"ny":82,"refTime":"2023-07-19T12:00:00:Z","depth":0,"parameterNumber":3,"parameterNumberName":"V-component_of_WINDS"},"data":[0.0,0.0,0.0,0.0,0.0,0.0,0.0,0.0,0.0,0.0,0.0,0.0,0.0,0.0,0.0,0.0,0.0,0.0,0.0,0.0,0.0,0.0,0.0,0.0,0.0,0.0,0.0,0.0,0.0,0.0,0.0,0.0,0.0,0.0,0.0,0.0,0.0,0.0,0.0,0.0,0.0,0.0,0.0,0.0,0.0,0.0,0.0,0.0,0.0,0.0,0.0,0.0,0.0,0.0,0.0,0.0,0.0,0.0,0.0,0.0,0.0,0.0,0.0,0.0,0.0,0.0,0.0,0.0,0.0,0.0,0.0,0.0,0.0,0.0,0.0,0.0,0.0,0.0,0.0,0.0,0.0,0.0,0.0,0.0,0.0,0.0,0.0,0.0,0.0,0.0,0.0,-1.8027,-2.135,-2.3774,-2.4545,-2.5555,-2.5181,-2.2987,0.0,0.0,0.0,0.0,0.0,0.0,0.0,0.0,0.0,0.0,0.0,0.0,0.0,0.0,0.0,0.0,0.0,0.0,0.0,0.0,0.0,0.0,0.0,0.0,0.0,0.0,0.0,0.0,0.0,0.0,0.0,0.0,0.0,0.0,0.0,0.0,0.0,0.0,0.0,0.0,0.0,0.0,0.0,0.0,0.0,0.0,0.0,0.0,0.0,0.0,0.0,0.0,0.0,0.0,0.0,0.0,0.0,0.0,0.0,0.0,0.0,0.0,0.0,0.0,0.0,0.0,0.0,0.0,0.0,0.0,0.0,0.0,0.0,0.0,0.0,0.0,0.0,0.0,0.0,0.0,0.0,0.0,0.0,0.0,0.0,0.0,0.0,0.0,0.0,0.0,0.0,0.0,0.0,0.0,0.0,0.0,0.0,0.0,0.0,0.0,0.0,0.0,0.0,0.0,-1.8777,-2.0105,-2.1799,-2.331,-2.45,-2.4283,-2.3894,-2.349,0.0,0.0,0.0,0.0,0.0,0.0,0.0,0.0,0.0,0.0,0.0,0.0,0.0,0.0,0.0,0.0,0.0,0.0,0.0,0.0,0.0,0.0,0.0,0.0,0.0,0.0,0.0,0.0,0.0,0.0,0.0,0.0,0.0,0.0,0.0,0.0,0.0,0.0,0.0,0.0,0.0,0.0,0.0,0.0,0.0,0.0,0.0,0.0,0.0,0.0,0.0,0.0,0.0,0.0,0.0,0.0,0.0,0.0,0.0,0.0,0.0,0.0,0.0,0.0,0.0,0.0,0.0,0.0,0.0,0.0,0.0,0.0,0.0,0.0,0.0,0.0,0.0,0.0,0.0,0.0,0.0,0.0,0.0,0.0,0.0,0.0,0.0,0.0,0.0,0.0,0.0,0.0,0.0,0.0,0.0,0.0,0.0,0.0,0.0,0.0,0.0,0.0,0.0,-1.8192,-1.8805,-2.0524,-2.1889,-2.3077,-2.3984,-2.3475,-2.3122,-2.3122,-2.1834,0.0,0.0,0.0,0.0,0.0,0.0,0.0,0.0,0.0,0.0,0.0,0.0,0.0,0.0,0.0,0.0,0.0,0.0,0.0,0.0,0.0,0.0,0.0,0.0,0.0,0.0,0.0,0.0,0.0,0.0,0.0,0.0,0.0,0.0,0.0,0.0,0.0,0.0,0.0,0.0,0.0,0.0,0.0,0.0,0.0,0.0,0.0,0.0,0.0,0.0,0.0,0.0,0.0,0.0,0.0,0.0,0.0,0.0,0.0,0.0,0.0,0.0,0.0,0.0,0.0,0.0,0.0,0.0,0.0,0.0,0.0,0.0,0.0,0.0,0.0,0.0,0.0,0.0,0.0,0.0,0.0,0.0,0.0,0.0,0.0,0.0,0.0,0.0,0.0,0.0,0.0,0.0,0.0,0.0,0.0,0.0,0.0,0.0,0.0,0.0,0.0,0.0,-1.8072,-1.8311,-2.0464,-2.162,-2.2553,-2.331,-2.2823,-2.2598,-2.2897,-2.1041,0.0,0.0,0.0,0.0,0.0,0.0,0.0,0.0,0.0,0.0,0.0,0.0,0.0,0.0,0.0,0.0,0.0,0.0,0.0,0.0,0.0,0.0,0.0,0.0,0.0,0.0,0.0,0.0,0.0,0.0,0.0,0.0,0.0,0.0,0.0,0.0,0.0,0.0,0.0,0.0,0.0,0.0,0.0,0.0,0.0,0.0,0.0,0.0,0.0,0.0,0.0,0.0,0.0,0.0,0.0,0.0,0.0,0.0,0.0,0.0,0.0,0.0,0.0,0.0,0.0,0.0,0.0,0.0,0.0,0.0,0.0,0.0,0.0,0.0,0.0,0.0,0.0,0.0,0.0,0.0,0.0,0.0,0.0,0.0,0.0,0.0,0.0,0.0,0.0,0.0,0.0,0.0,0.0,0.0,0.0,0.0,0.0,0.0,0.0,0.0,0.0,0.0,-1.7953,-1.7787,-2.0419,-2.0778,-2.1365,-2.2658,-2.2164,-2.2278,-2.346,-2.171,0.0,0.0,0.0,0.0,0.0,0.0,0.0,0.0,0.0,0.0,0.0,0.0,0.0,0.0,0.0,0.0,0.0,0.0,0.0,0.0,0.0,0.0,0.0,0.0,0.0,0.0,0.0,0.0,0.0,0.0,0.0,0.0,0.0,0.0,0.0,0.0,0.0,0.0,0.0,0.0,0.0,0.0,0.0,0.0,0.0,0.0,0.0,0.0,0.0,0.0,0.0,0.0,0.0,0.0,0.0,0.0,0.0,0.0,0.0,0.0,0.0,0.0,0.0,0.0,0.0,0.0,0.0,0.0,0.0,0.0,0.0,0.0,0.0,0.0,0.0,0.0,0.0,0.0,0.0,0.0,0.0,0.0,0.0,0.0,0.0,0.0,0.0,0.0,0.0,0.0,0.0,0.0,0.0,0.0,0.0,0.0,0.0,0.0,0.0,0.0,0.0,0.0,-1.8433,-1.8326,0.0,-2.0195,-2.0897,-2.141,-2.1231,-2.147,-2.2353,0.0,0.0,0.0,0.0,0.0,0.0,0.0,0.0,0.0,0.0,0.0,0.0,0.0,0.0,0.0,0.0,0.0,0.0,0.0,0.0,0.0,0.0,0.0,0.0,0.0,0.0,0.0,0.0,0.0,0.0,0.0,0.0,0.0,0.0,0.0,0.0,0.0,0.0,0.0,0.0,0.0,0.0,0.0,0.0,0.0,0.0,0.0,0.0,0.0,0.0,0.0,0.0,0.0,0.0,0.0,0.0,0.0,0.0,0.0,0.0,0.0,0.0,0.0,0.0,0.0,0.0,0.0,0.0,0.0,0.0,0.0,0.0,0.0,0.0,0.0,0.0,0.0,0.0,0.0,0.0,0.0,0.0,0.0,0.0,0.0,0.0,0.0,0.0,0.0,0.0,0.0,0.0,0.0,0.0,0.0,0.0,0.0,0.0,0.0,0.0,0.0,0.0,-1.8957,-1.8657,-1.8553,0.0,-1.9839,-2.0483,-2.0673,-2.0513,-2.0857,-2.1934,0.0,0.0,0.0,0.0,0.0,0.0,0.0,0.0,0.0,0.0,0.0,0.0,0.0,0.0,0.0,0.0,0.0,0.0,0.0,0.0,0.0,0.0,0.0,0.0,0.0,0.0,0.0,0.0,0.0,0.0,0.0,0.0,0.0,0.0,0.0,0.0,0.0,0.0,0.0,0.0,0.0,0.0,0.0,0.0,0.0,0.0,0.0,0.0,0.0,0.0,0.0,0.0,0.0,0.0,0.0,0.0,0.0,0.0,0.0,0.0,0.0,0.0,0.0,0.0,0.0,0.0,0.0,0.0,0.0,0.0,0.0,0.0,0.0,0.0,0.0,0.0,0.0,0.0,0.0,0.0,0.0,0.0,0.0,0.0,0.0,0.0,0.0,0.0,0.0,0.0,0.0,0.0,0.0,0.0,0.0,0.0,0.0,0.0,0.0,0.0,0.0,0.0,-1.9528,-1.8506,-1.8207,-1.9558,-1.9708,-1.9959,-2.0628,-2.0079,-2.0561,0.0,0.0,0.0,0.0,0.0,0.0,0.0,0.0,0.0,0.0,0.0,0.0,0.0,0.0,0.0,0.0,0.0,0.0,0.0,0.0,0.0,0.0,0.0,0.0,0.0,0.0,0.0,0.0,0.0,0.0,0.0,0.0,0.0,0.0,0.0,0.0,0.0,0.0,0.0,0.0,0.0,0.0,0.0,0.0,0.0,0.0,0.0,0.0,0.0,0.0,0.0,0.0,0.0,0.0,0.0,0.0,0.0,0.0,0.0,0.0,0.0,0.0,0.0,0.0,0.0,0.0,0.0,0.0,0.0,0.0,0.0,0.0,0.0,0.0,0.0,0.0,0.0,0.0,0.0,0.0,0.0,0.0,0.0,0.0,0.0,0.0,0.0,0.0,0.0,0.0,0.0,0.0,0.0,0.0,0.0,0.0,0.0,0.0,0.0,0.0,0.0,0.0,0.0,-1.8882,-1.8237,-1.8027,-1.8897,-1.9423,-1.9783,-1.9974,-1.9813,-2.0367,-2.1909,0.0,0.0,0.0,0.0,0.0,0.0,0.0,0.0,0.0,0.0,0.0,0.0,0.0,0.0,0.0,0.0,0.0,0.0,0.0,0.0,0.0,0.0,0.0,0.0,0.0,0.0,0.0,0.0,0.0,0.0,0.0,0.0,0.0,0.0,0.0,0.0,0.0,0.0,0.0,0.0,0.0,0.0,0.0,0.0,0.0,0.0,0.0,0.0,0.0,0.0,0.0,0.0,0.0,0.0,0.0,0.0,0.0,0.0,0.0,0.0,0.0,0.0,0.0,0.0,0.0,0.0,0.0,0.0,0.0,0.0,0.0,0.0,0.0,0.0,0.0,0.0,0.0,0.0,0.0,0.0,0.0,0.0,0.0,0.0,0.0,0.0,0.0,0.0,0.0,0.0,0.0,0.0,0.0,0.0,0.0,0.0,0.0,0.0,0.0,0.0,0.0,0.0,-1.9016,-1.8506,-1.8373,-1.9031,-1.9468,-1.9708,-1.9708,-1.9708,-2.0154,-2.1231,0.0,0.0,0.0,0.0,0.0,0.0,0.0,0.0,0.0,0.0,0.0,0.0,0.0,0.0,0.0,0.0,0.0,0.0,0.0,0.0,0.0,0.0,0.0,0.0,0.0,0.0,0.0,0.0,0.0,0.0,0.0,0.0,0.0,0.0,0.0,0.0,0.0,0.0,0.0,0.0,0.0,0.0,0.0,0.0,0.0,0.0,0.0,0.0,0.0,0.0,0.0,0.0,0.0,0.0,0.0,0.0,0.0,0.0,0.0,0.0,0.0,0.0,0.0,0.0,0.0,0.0,0.0,0.0,0.0,0.0,0.0,0.0,0.0,0.0,0.0,0.0,0.0,0.0,0.0,0.0,0.0,0.0,0.0,0.0,0.0,0.0,0.0,0.0,0.0,0.0,0.0,0.0,0.0,0.0,0.0,0.0,0.0,0.0,0.0,0.0,0.0,0.0,-1.9633,-1.9106,-1.8957,-1.9633,-1.9708,-1.9708,-1.9708,-1.9708,-1.9989,-2.0658,0.0,0.0,0.0,0.0,0.0,0.0,0.0,0.0,0.0,0.0,0.0,0.0,0.0,0.0,0.0,0.0,0.0,0.0,0.0,0.0,0.0,0.0,0.0,0.0,0.0,0.0,0.0,0.0,0.0,0.0,0.0,0.0,0.0,0.0,0.0,0.0,0.0,0.0,0.0,0.0,0.0,0.0,0.0,0.0,0.0,0.0,0.0,0.0,0.0,0.0,0.0,0.0,0.0,0.0,0.0,0.0,0.0,0.0,0.0,0.0,-2.2803,0.0,0.0,0.0,0.0,0.0,0.0,0.0,0.0,0.0,0.0,0.0,0.0,0.0,0.0,0.0,0.0,0.0,0.0,0.0,0.0,0.0,0.0,0.0,0.0,0.0,0.0,0.0,0.0,0.0,0.0,0.0,0.0,0.0,0.0,0.0,0.0,0.0,0.0,0.0,0.0,0.0,-1.9693,-1.9106,-1.8957,-1.9633,-1.9708,-1.9708,-1.9708,-1.9708,-1.9989,-2.0658,-2.0333,0.0,0.0,0.0,0.0,0.0,0.0,0.0,0.0,0.0,0.0,0.0,0.0,0.0,0.0,0.0,0.0,0.0,0.0,0.0,0.0,0.0,0.0,0.0,0.0,0.0,0.0,0.0,0.0,0.0,0.0,0.0,0.0,0.0,0.0,0.0,0.0,0.0,0.0,0.0,0.0,0.0,0.0,0.0,0.0,0.0,0.0,0.0,0.0,0.0,0.0,0.0,0.0,0.0,0.0,0.0,0.0,0.0,0.0,0.0,0.0,-2.3994,0.0,0.0,0.0,0.0,0.0,0.0,0.0,0.0,0.0,0.0,0.0,0.0,0.0,0.0,0.0,0.0,0.0,0.0,0.0,0.0,0.0,0.0,0.0,0.0,0.0,0.0,0.0,0.0,0.0,0.0,0.0,0.0,0.0,0.0,0.0,0.0,0.0,0.0,0.0,0.0,-2.0183,-1.96,-1.9435,-2.0109,-1.9902,-1.9842,-2.0154,-1.9902,-1.9857,-2.0198,-2.0198,0.0,0.0,0.0,0.0,0.0,0.0,0.0,0.0,0.0,0.0,0.0,0.0,0.0,0.0,0.0,0.0,0.0,0.0,0.0,0.0,0.0,0.0,0.0,0.0,0.0,0.0,0.0,0.0,0.0,0.0,0.0,0.0,0.0,0.0,0.0,0.0,0.0,0.0,0.0,0.0,0.0,0.0,0.0,0.0,0.0,0.0,0.0,0.0,0.0,0.0,0.0,0.0,0.0,-2.9685,-3.0125,-3.1502,-3.103,-3.0364,-2.9542,-2.8266,-2.7084,-2.5954,-2.4873,0.0,0.0,0.0,0.0,0.0,0.0,0.0,0.0,0.0,0.0,0.0,0.0,0.0,0.0,0.0,0.0,0.0,0.0,0.0,0.0,0.0,0.0,0.0,0.0,-2.4007,-2.3872,0.0,0.0,0.0,0.0,0.0,0.0,0.0,0.0,0.0,0.0,0.0,0.0,-2.0572,-2.0034,-1.9899,-2.0483,-2.0034,-1.9914,-2.0483,-2.0019,-1.9708,-1.9708,-2.0228,-2.0333,0.0,0.0,0.0,0.0,0.0,0.0,0.0,0.0,0.0,0.0,0.0,0.0,0.0,0.0,0.0,0.0,0.0,0.0,0.0,0.0,0.0,0.0,0.0,0.0,0.0,0.0,0.0,0.0,0.0,0.0,0.0,0.0,-2.0654,-2.1293,0.0,0.0,0.0,0.0,0.0,0.0,0.0,0.0,0.0,0.0,0.0,0.0,0.0,-2.9287,-3.0564,-3.1918,-3.2227,-3.1487,-3.1844,-3.1869,-3.1614,-3.1867,-3.259,-3.3582,-3.2808,0.0,-2.7163,-2.4732,0.0,0.0,0.0,0.0,0.0,0.0,0.0,0.0,0.0,0.0,0.0,0.0,0.0,0.0,0.0,0.0,0.0,0.0,0.0,0.0,0.0,0.0,-2.349,-2.358,-2.367,-2.3804,0.0,-2.4231,-2.4014,-2.2808,-2.2778,0.0,0.0,0.0,0.0,0.0,0.0,0.0,-1.9974,-1.9753,-1.9738,-1.9828,-1.9753,-1.9738,-1.9828,-1.9753,-1.9708,-1.9708,-1.9783,-2.0049,-2.0557,-2.0094,0.0,0.0,0.0,0.0,0.0,0.0,0.0,0.0,0.0,0.0,0.0,0.0,0.0,0.0,0.0,0.0,0.0,0.0,0.0,0.0,0.0,0.0,0.0,0.0,0.0,0.0,0.0,0.0,0.0,-2.1222,-2.195,-2.254,-2.2801,-2.2919,0.0,0.0,0.0,0.0,0.0,0.0,0.0,0.0,0.0,-2.8194,-2.961,-3.1073,-3.2567,-3.2773,-3.3416,-3.4499,-3.4335,-3.4305,-3.4411,-3.4598,-3.4796,-3.4986,-3.4714,-3.3397,-3.1269,-2.8577,-2.7171,-2.6626,0.0,0.0,0.0,0.0,-2.5219,-2.4964,-2.542,-2.539,0.0,-2.6033,0.0,0.0,0.0,0.0,0.0,0.0,0.0,0.0,0.0,0.0,-2.5285,-2.5285,-2.5555,-2.5833,-2.5749,-2.5734,-2.5345,0.0,-2.346,-2.3122,-2.2817,0.0,0.0,0.0,0.0,-2.0932,-2.0348,-1.9929,-1.9824,-2.0228,-1.9914,-1.9839,-2.0228,-1.9932,-1.9708,-1.9708,-1.9708,-1.9842,-2.0124,-1.9872,-1.9842,0.0,0.0,0.0,0.0,0.0,0.0,0.0,0.0,0.0,0.0,0.0,0.0,0.0,0.0,0.0,0.0,0.0,0.0,0.0,0.0,0.0,0.0,0.0,0.0,0.0,0.0,0.0,0.0,-2.228,-2.2862,-2.36,-2.3849,-2.3951,0.0,0.0,0.0,0.0,0.0,0.0,-2.7847,-2.9259,-3.031,-3.092,-3.1799,-3.2901,-3.4239,-3.3879,-3.4806,-3.6969,-3.6209,-3.6119,-3.6569,-3.6415,-3.6038,-3.5504,-3.5504,-3.522,-3.4532,-3.1869,-2.9909,-2.8532,-2.8064,-2.7335,-2.6722,-2.7555,-2.766,-2.7455,-2.8113,-2.8338,-2.8338,-2.8349,0.0,-2.7186,-2.5016,0.0,0.0,0.0,0.0,-2.4448,-2.4769,-2.5854,-2.6866,-2.6866,-2.724,-2.7465,-2.6971,-2.6707,-2.6198,0.0,-2.4073,-2.3595,-2.3595,0.0,0.0,0.0,0.0,-2.1156,-2.0991,-2.0513,-2.0333,-2.0658,-2.0258,-2.0094,-2.0423,-1.9989,-1.9708,-1.9708,-1.9708,-1.9708,-1.9708,-1.9708,-1.9708,-1.9708,0.0,0.0,0.0,0.0,0.0,0.0,0.0,0.0,0.0,0.0,0.0,0.0,0.0,0.0,0.0,0.0,0.0,0.0,0.0,0.0,0.0,0.0,0.0,0.0,0.0,0.0,0.0,0.0,0.0,-2.4271,-2.505,0.0,0.0,0.0,0.0,-2.8654,-3.0059,-3.0573,-2.9901,-3.1974,-3.2836,-3.2151,-3.4213,-3.574,-3.6533,-3.7201,-3.7617,-3.7738,-3.6931,-3.6569,-3.6584,-3.5863,-3.5537,-3.5504,-3.5504,-3.5489,-3.525,-3.2557,-3.1391,-3.1122,-2.928,-2.8891,-2.9337,-2.8757,-2.8921,-2.9292,-2.8064,-2.7645,-2.7944,-2.9759,-3.0328,-2.9819,-2.723,-2.6393,0.0,0.0,-2.4941,-2.6303,-2.5719,-2.6542,-2.754,-2.754,-2.757,-2.7585,-2.7555,-2.7061,-2.6198,0.0,-2.4073,-2.3595,-2.3595,0.0,-2.2658,-2.2688,-2.2643,-2.2373,-2.1724,-2.162,-2.1365,-2.0763,-2.0658,-2.0423,-1.9813,-1.9723,-1.9708,-1.9708,-1.9708,-1.9708,-1.9708,-1.9708,-1.9708,-1.9708,-1.9708,0.0,0.0,0.0,0.0,0.0,0.0,0.0,0.0,0.0,0.0,0.0,0.0,0.0,0.0,0.0,0.0,0.0,0.0,0.0,0.0,0.0,0.0,0.0,0.0,0.0,0.0,0.0,0.0,-2.8483,-2.9042,0.0,-2.9873,-2.9956,-3.0104,-3.0328,-3.1326,-3.2196,-3.2794,-3.4016,-3.5043,-3.578,-3.6054,-3.6583,-3.7409,-3.6674,-3.6569,-3.7024,-3.6259,-3.5894,-3.5894,-3.5619,-3.5504,-3.5504,-3.5504,-3.5504,-3.5429,-3.4487,-3.3574,-3.2721,-3.2018,-3.1375,-3.0911,-3.1524,-3.1629,-3.1405,-3.0911,-3.0746,-3.0657,-3.0088,-2.9909,-2.9606,-2.7794,-2.724,-2.7091,-2.6387,-2.7016,-2.7724,-2.7076,-2.7545,-2.8113,-2.7705,-2.76,-2.76,-2.76,-2.7405,-2.7106,-2.6617,-2.4941,-2.3744,-2.4156,-2.3385,-2.2703,-2.2703,-2.2703,-2.2463,-2.1784,-2.1695,-2.144,-2.0763,-2.0703,-2.0438,-1.9768,-1.9708,-1.9708,-1.9708,-1.9708,-1.9708,-1.9708,-1.9708,-1.9708,-1.9708,-1.9708,-1.9708,0.0,0.0,0.0,0.0,0.0,0.0,0.0,0.0,0.0,0.0,0.0,0.0,0.0,0.0,0.0,0.0,0.0,0.0,0.0,0.0,0.0,0.0,0.0,0.0,0.0,0.0,-2.8561,-3.1593,-3.2154,-3.2411,-3.2634,-3.2679,-3.268,-3.2618,-3.3348,-3.4172,-3.5086,-3.5556,-3.6196,-3.6995,-3.6447,-3.6446,-3.7011,-3.6005,-3.5765,-3.6212,-3.5718,-3.5504,-3.5504,-3.5504,-3.5504,-3.5504,-3.5504,-3.5504,-3.5504,-3.5504,-3.4981,-3.4173,-3.4173,-3.3634,-3.2946,-3.3858,-3.3903,-3.3455,-3.3006,-3.2557,-3.1944,-3.0657,-3.0238,-3.0028,-2.8933,-2.8588,-2.8543,-2.8334,-2.8603,-2.8771,-2.8124,-2.8263,-2.8427,-2.7764,-2.7779,-2.7884,-2.7645,-2.7959,-2.8139,-2.769,-2.5982,-2.4747,-2.5187,-2.4388,-2.3691,-2.3691,-2.3475,-2.3176,-2.2742,-2.2488,-2.2009,-2.1122,-2.1051,-2.0677,-1.9783,-1.9899,-1.9929,-1.9708,-1.9899,-1.9947,-1.9708,-1.9708,-1.9708,-1.9708,-1.9708,-1.9813,-2.0034,0.0,0.0,0.0,0.0,0.0,0.0,0.0,0.0,0.0,0.0,0.0,0.0,0.0,0.0,0.0,0.0,0.0,0.0,0.0,0.0,0.0,0.0,0.0,-2.7288,-2.8984,-3.1016,-3.3229,-3.4141,-3.4298,-3.3585,-3.4841,-3.5659,-3.5632,-3.6286,-3.6669,-3.6569,-3.66,-3.6274,-3.5537,-3.5534,-3.5534,-3.5504,-3.5504,-3.5504,-3.5504,-3.5504,-3.5504,-3.5504,-3.5504,-3.5504,-3.5504,-3.5504,-3.5504,-3.5504,-3.5504,-3.5504,-3.5504,-3.5504,-3.5504,-3.5504,-3.5504,-3.5474,-3.525,-3.3918,-3.2632,-3.1525,-3.1511,-3.1511,-3.1406,-3.0746,-3.0537,-3.0402,-2.9789,-2.9651,-2.949,-2.8801,-2.8652,-2.8487,-2.7809,-2.8128,-2.8442,-2.7779,-2.8678,-2.9217,-2.7914,-2.7121,-2.6632,-2.6602,-2.6063,-2.563,-2.5615,-2.5053,0.0,-2.4605,-2.4007,-2.3116,-2.1859,-2.1724,-2.1205,-1.9857,-2.0333,-2.0423,-1.9753,-2.0318,-2.0378,-1.9738,-1.9708,-1.9708,-1.9708,-1.9708,-2.0034,-2.0703,0.0,0.0,0.0,0.0,0.0,0.0,0.0,0.0,0.0,0.0,0.0,0.0,0.0,0.0,0.0,0.0,0.0,0.0,0.0,0.0,0.0,0.0,-2.9985,-3.0092,-3.1491,-3.3313,-3.5528,-3.5978,-3.6222,-3.6566,-3.6968,-3.6965,-3.6371,-3.6513,-3.6399,-3.5831,-3.6267,-3.623,-3.5519,-3.5968,-3.5983,-3.5504,-3.5504,-3.5504,-3.5504,-3.5504,-3.5504,-3.5504,-3.5504,-3.5504,-3.5504,-3.5504,-3.5504,-3.5504,-3.5504,-3.5504,-3.5504,-3.5504,-3.5504,-3.5504,-3.5504,-3.4891,-3.3933,-3.308,-3.2512,-3.2138,-3.166,-3.1824,-3.2093,-3.1421,-3.1227,-3.1077,-3.0432,-3.0612,-3.0703,-2.9609,-2.9639,-2.9699,-2.8592,-2.8831,-2.9131,-2.8457,-2.9007,-2.9502,-2.9127,-2.8502,-2.7739,-2.6752,-2.6437,-2.6153,-2.5674,-2.545,0.0,-2.4664,-2.4007,-2.3295,-2.2508,-2.2433,-2.1874,-2.0543,-2.0583,-2.0423,-1.9753,-1.9869,-1.9902,-1.9708,-1.9708,-1.9708,-1.9708,-1.9708,-2.0034,0.0,0.0,0.0,0.0,0.0,0.0,0.0,0.0,0.0,0.0,0.0,0.0,0.0,0.0,0.0,0.0,0.0,0.0,0.0,0.0,0.0,0.0,-3.0782,-3.2702,-3.3334,-3.4208,-3.5381,-3.6966,-3.7166,-3.7214,-3.7291,-3.7308,-3.698,-3.6196,-3.6134,-3.5943,-3.5537,-3.5863,-3.5893,-3.5519,-3.5878,-3.5893,-3.5504,-3.5504,-3.5504,-3.5504,-3.5504,-3.5504,-3.5504,-3.5504,-3.5504,-3.5504,-3.5504,-3.5504,-3.5504,-3.5504,-3.5504,0.0,0.0,0.0,0.0,0.0,-3.4651,-3.344,-3.3051,-3.2557,-3.2004,-3.163,-3.1765,-3.2049,-3.1944,-3.172,-3.1481,-3.139,-3.1197,-3.0898,-3.0163,-3.0043,-2.9939,-2.919,-2.9505,-2.9789,-2.9146,-2.9744,-3.0238,-2.9711,-2.9307,0.0,-2.7619,-2.7186,-2.6896,-2.6497,-2.6198,-2.5779,-2.5098,-2.4425,-2.3684,-2.2793,-2.2703,-2.2164,-2.0808,-2.0957,0.0,0.0,0.0,-1.9989,-1.9708,-1.9708,0.0,0.0,0.0,-2.0168,-2.1126,0.0,0.0,0.0,-2.2239,-2.2054,0.0,0.0,0.0,0.0,0.0,0.0,0.0,0.0,0.0,0.0,0.0,0.0,0.0,0.0,0.0,0.0,-3.3258,-3.511,-3.6454,-3.6798,-3.7129,-3.7703,-3.7637,-3.7249,-3.6569,-3.6477,-3.6196,-3.5554,-3.5504,-3.5504,-3.5504,0.0,0.0,0.0,0.0,-3.5504,-3.5504,-3.5504,-3.5504,-3.5504,-3.5504,-3.5504,-3.5504,-3.5504,-3.5504,-3.5504,-3.5504,-3.5504,-3.5504,-3.5504,-3.5504,-3.5504,-3.5504,-3.5504,-3.5489,-3.5415,-3.4637,-3.3589,-3.3529,0.0,0.0,-3.1615,-3.1615,-3.1705,-3.2213,-3.2019,-3.172,-3.2228,-3.1539,-3.0612,-3.0612,-3.0223,-2.9816,-2.9726,-3.0163,-3.0447,-2.9819,-3.0657,-3.1167,-3.0028,-2.9744,-2.9475,-2.8831,-2.8094,-2.76,-2.76,-2.7031,-2.6378,-2.5794,-2.5053,-2.4141,-2.2942,0.0,0.0,-2.0932,-2.1425,-2.1261,-2.0007,-2.0423,-2.0408,-1.9738,-1.9708,-1.9708,-1.9708,-1.9708,-2.0367,-2.1695,-2.1111,-2.1455,-2.2688,-2.2104,-2.1769,0.0,0.0,0.0,0.0,0.0,0.0,0.0,0.0,0.0,0.0,0.0,0.0,0.0,0.0,0.0,-3.331,-3.5474,-3.702,-3.7358,-3.7873,-3.8075,-3.7686,-3.6628,-3.5878,-3.5733,-3.5701,-3.5636,-3.5504,-3.5504,-3.5504,-3.5504,-3.5504,-3.5504,-3.5504,-3.5504,-3.5504,-3.5504,-3.5504,-3.5504,-3.5504,0.0,0.0,-3.5504,-3.5504,-3.5504,-3.5504,-3.5504,-3.5504,-3.5504,-3.5504,-3.5504,-3.5504,-3.5504,-3.5504,-3.5429,-3.4876,-3.4533,-3.4234,-3.3679,-3.2976,-3.2303,-3.2303,-3.2303,-3.2213,-3.1809,-3.1974,0.0,-3.1809,-3.1511,-3.1316,-3.1316,-3.1212,-3.0987,-3.0447,-3.0823,-3.1122,-3.0477,-3.0928,-3.1436,-3.1182,-3.0717,-3.0118,-2.9505,-2.8408,-2.76,-2.76,-2.7031,-2.6542,-2.6422,-2.5337,-2.4291,-2.3505,-2.343,-2.2892,-2.162,-2.2134,-2.2179,-2.135,-2.0932,-2.0408,-1.9738,-1.9708,-1.9708,-1.9708,-1.9708,-2.0367,-2.1695,-2.1575,-2.1924,-2.2703,-2.2568,-2.2224,0.0,0.0,0.0,0.0,0.0,0.0,0.0,0.0,0.0,0.0,0.0,-2.9019,0.0,0.0,-3.3388,-3.5544,-3.7049,-3.7844,-3.7549,-3.7803,-3.7651,-3.6679,-3.6215,-3.5863,-3.5534,-3.5504,-3.5504,-3.5504,-3.5504,-3.5504,-3.5504,-3.5504,-3.5504,-3.5504,-3.5504,-3.5504,-3.5504,-3.5504,-3.5504,-3.5504,-3.5504,-3.5504,-3.5504,-3.5504,-3.5504,-3.5504,-3.5504,-3.5504,-3.5504,-3.5504,-3.5504,-3.5504,-3.5504,-3.5504,-3.5459,-3.5115,-3.4771,-3.4459,-3.4129,-3.3559,-3.3006,-3.3006,-3.3006,-3.2946,-3.2617,-3.2512,-3.2437,-3.2093,-3.1765,-3.1511,-3.1511,-3.1511,-3.1421,-3.1077,-3.1256,-3.1406,-3.1062,-3.1256,-3.1511,-3.1511,-3.0703,-2.9939,-2.9666,-2.8483,-2.76,-2.76,-2.7315,-2.6986,-2.6632,-2.5734,-2.4829,-2.4156,-2.3804,-2.3206,-2.2283,-2.2209,-2.2074,-2.1724,-2.1395,-2.0902,-2.0228,-2.0513,-2.0528,-2.0213,-2.0528,-2.1205,-2.2209,-2.1859,-2.2039,-2.2703,-2.2703,-2.2343,0.0,0.0,0.0,0.0,0.0,0.0,0.0,0.0,-2.74,-2.779,-2.9668,-3.1649,-3.2896,-3.4095,-3.5523,-3.7362,-3.8084,-3.8167,-3.7494,-3.7404,-3.6941,-3.5654,-3.5968,-3.6088,-3.5549,-3.5504,-3.5504,-3.5504,-3.5504,-3.5504,-3.5504,-3.5504,-3.5504,-3.5504,-3.5504,-3.5504,-3.5504,-3.5504,-3.5504,-3.5504,-3.5504,-3.5504,-3.5504,-3.5504,-3.5504,-3.5504,-3.5504,-3.5504,-3.5504,-3.5504,-3.5504,-3.5504,-3.5504,-3.5504,-3.5504,-3.5504,-3.516,-3.4698,-3.4698,-3.4247,-3.3664,-3.3529,-3.3499,-3.344,-3.3185,-3.2841,-3.2452,-3.2333,-3.1914,-3.1511,-3.1511,-3.1511,-3.1511,-3.1511,-3.1511,-3.1511,-3.1511,-3.1511,-3.1511,-3.1511,-3.0687,-2.9879,-2.9651,-2.8708,-2.7899,-2.763,-2.76,-2.7405,-2.6866,-2.6093,-2.5337,-2.4679,-2.4014,-2.34,-2.2927,-2.2368,-2.2024,-2.1889,-2.1889,-2.159,-2.0912,-2.1291,-2.1321,-2.0897,-2.1171,-2.1774,-2.2703,-2.2044,-2.2039,-2.2703,-2.2568,-2.2164,-2.0812,-2.1141,-2.2099,-2.3752,-2.4365,-2.578,0.0,0.0,-3.2153,-3.3208,-3.4685,-3.5612,-3.5107,-3.6107,-3.7327,-3.8172,-3.8357,-3.8167,-3.7494,-3.7404,-3.6941,-3.5654,-3.5564,-3.5594,-3.5519,-3.5504,-3.5504,-3.5504,-3.5504,-3.5504,-3.5504,-3.5504,-3.5504,-3.5504,-3.5504,-3.5504,-3.5504,-3.5504,-3.5504,-3.5504,-3.5504,-3.5504,-3.5504,-3.5504,-3.5504,-3.5504,-3.5504,-3.5504,-3.5504,-3.5504,-3.5504,-3.5504,-3.5504,-3.5504,-3.5504,-3.5504,-3.5459,-3.5385,-3.5385,-3.4936,-3.4294,-3.3679,-3.3499,-3.3275,-3.2079,-3.2079,-3.2392,-3.178,-3.157,-3.1511,-3.1511,-3.1511,-3.1511,-3.1511,-3.1511,-3.1511,-3.1511,-3.1511,-3.1511,-3.1511,-3.1391,-3.0913,-2.9774,-2.9487,-2.8978,-2.7779,-2.76,-2.757,-2.7495,-2.6378,-2.5337,-2.4679,-2.4014,-2.3565,-2.3505,-2.343,-2.3146,-2.2628,-2.2583,-2.2298,-2.162,-2.1096,-2.1066,-2.1575,-2.0483,-2.0846,-2.2703,-2.2044,-2.2039,-2.2688,-2.2104,-2.1455,-2.305,-2.3454,0.0,0.0,-2.7137,-2.9483,-3.1022,-3.2828,-3.4337,-3.4894,-3.6085,-3.7061,-3.7101,-3.7274,-3.7629,0.0,-3.8063,-3.7599,-3.6971,-3.6866,-3.6387,-3.5055,-3.5265,-3.5504,-3.5504,-3.5504,-3.5504,-3.5504,-3.5504,-3.5504,-3.5504,-3.5504,-3.5504,-3.5504,-3.5504,-3.5504,-3.5504,-3.5504,-3.5504,-3.5504,-3.5504,-3.5504,-3.5504,-3.5504,-3.5504,-3.5504,-3.5504,-3.5504,-3.5504,-3.5504,-3.5504,-3.5504,-3.5504,-3.5504,-3.5504,-3.5504,-3.5504,-3.5504,-3.5504,-3.531,-3.504,-3.4756,-3.4397,-3.3888,-3.2961,-3.2602,-3.2348,-3.169,-3.1511,-3.1511,-3.1511,-3.1511,-3.1511,-3.1511,-3.1511,-3.1511,-3.1511,-3.1511,-3.1511,-3.1511,-3.1182,-3.0657,-2.9744,-2.9292,-2.8708,-2.7735,-2.76,-2.76,-2.76,-2.6422,-2.5196,-2.4126,-2.3774,-2.3595,-2.3595,-2.3595,-2.349,-2.3236,-2.3206,-2.2942,-2.2313,-2.2353,-2.2353,-2.2283,-2.1729,-2.2029,-2.3227,-2.2598,-2.2433,-2.2688,-2.2418,-2.171,-2.4231,0.0,0.0,-2.6737,-2.98,-3.2496,-3.1986,-3.4106,-3.6125,-3.6052,-3.6911,-3.7764,-3.8063,-3.7734,-3.7569,-3.8048,-3.7584,-3.7,-3.6552,-3.6163,-3.5597,-3.4623,-3.4756,-3.5026,-3.5205,-3.5385,-3.5504,-3.5504,-3.5504,-3.5504,-3.5504,-3.5504,-3.5504,-3.5504,-3.5504,-3.5504,-3.5504,-3.5504,-3.5504,-3.5504,-3.5504,-3.5504,-3.5504,-3.5504,-3.5504,-3.5504,-3.5504,-3.5504,-3.5504,-3.5504,-3.5504,-3.5504,-3.5504,-3.5504,-3.5504,-3.5504,-3.5504,-3.5474,-3.5295,-3.522,-3.519,-3.5011,-3.4622,-3.4114,-3.3425,-3.2901,-3.2348,-3.169,-3.1511,-3.1511,-3.1511,-3.1511,-3.1511,-3.1511,-3.1511,-3.1511,-3.1511,-3.1511,-3.1511,-3.1511,-3.1107,-3.0582,-2.9953,-2.9445,-2.8831,-2.8004,-2.7884,-2.7809,-2.7615,-2.6422,-2.5091,-2.3744,-2.3595,-2.3595,-2.3595,-2.3595,-2.3595,-2.3595,-2.3595,-2.34,-2.2972,-2.3212,-2.3206,-2.2957,-2.2418,-2.2553,-2.334,-2.2553,-2.2239,-2.2418,-2.2239,-2.162,0.0,0.0,-2.6378,-2.9564,-3.1913,-3.38,-3.5055,-3.69,-3.8128,-3.7479,-3.7883,-3.8167,-3.7554,-3.7419,-3.7419,-3.7434,-3.6911,-3.6507,-3.6492,-3.5387,-3.4563,-3.4503,-3.3933,-3.3814,0.0,-3.5115,-3.5504,-3.5504,-3.5504,-3.5504,-3.5504,-3.5504,-3.5504,-3.5504,-3.5504,-3.5504,-3.5504,-3.5504,-3.5504,-3.5504,-3.5504,-3.5504,-3.5504,-3.5504,-3.5504,-3.5504,-3.5504,-3.5504,-3.5504,-3.5504,-3.5504,-3.5504,-3.5504,-3.5504,-3.5504,-3.5504,-3.5504,-3.5415,-3.4773,-3.4533,-3.4429,-3.3769,-3.3544,-3.341,-3.2736,-3.2527,-3.2348,-3.169,-3.1511,-3.1511,-3.1511,-3.1511,-3.1511,-3.1511,-3.1511,-3.1511,-3.1511,-3.1511,-3.1511,-3.1511,-3.1481,-3.1256,-3.0597,-3.0462,-3.0013,-2.8757,-2.8562,-2.8323,-2.769,-2.6422,-2.5091,-2.3744,-2.3595,-2.3595,-2.3595,-2.3595,-2.3595,-2.3595,-2.3595,-2.3595,-2.3565,-2.3032,-2.3002,-2.3565,-2.1724,-2.141,-2.2718,-2.1395,-2.1077,-2.171,-2.1066,-2.0733,0.0,0.0,-2.9986,-3.1988,-3.4307,-3.6327,-3.721,-3.7928,-3.8332,-3.8108,-3.7225,-3.6267,-3.5594,-3.51,-3.4816,-3.4816,-3.5011,-3.5342,-3.5774,-3.5444,-3.4831,-3.3933,-3.4412,0.0,0.0,0.0,0.0,-3.5474,-3.5504,-3.5504,-3.5504,-3.5504,-3.5504,-3.5504,-3.5504,-3.5504,-3.5504,-3.5504,-3.5504,-3.5504,-3.5504,-3.5504,-3.5504,-3.5504,-3.5504,-3.5504,-3.5504,-3.5504,-3.5504,-3.5504,-3.5504,-3.5504,-3.5504,-3.5504,-3.5504,-3.5504,-3.5504,-3.5474,-3.5235,-3.516,-3.513,-3.4906,-3.4517,-3.4054,-3.3365,-3.2856,-3.2437,-3.2213,-3.2153,-3.2258,-3.2721,-3.2841,-3.2721,-3.2258,-3.2153,-3.2034,-3.16,-3.1511,-3.1511,-3.1511,-3.1511,-3.1286,-3.0627,-3.0163,-2.9472,-2.8139,-2.7944,-2.754,-2.6422,-2.5884,-2.5091,-2.3744,-2.3595,-2.3595,-2.3595,-2.3595,-2.3595,-2.3595,-2.3595,-2.3595,-2.3595,-2.34,-2.3385,-2.3595,-2.2562,-2.2463,-2.3295,-2.2428,-2.2149,-2.2358,-2.2113,-2.1784,-2.8128,-3.0402,-3.2392,-3.4681,-3.6327,-3.7584,-3.8242,-3.8033,-3.7509,-3.6791,-3.528,-3.3814,-3.2916,-3.2018,-3.1614,-3.2317,-3.2781,-3.3469,-3.4622,-3.4786,-3.4547,-3.3918,-3.4397,0.0,0.0,0.0,0.0,-3.5444,-3.5504,-3.5504,-3.5504,-3.5504,-3.5504,-3.5504,-3.5504,-3.5504,-3.5504,-3.5504,-3.5504,-3.5504,-3.5504,-3.5504,-3.5504,-3.5504,-3.5504,-3.5504,-3.5504,-3.5504,-3.5504,-3.5504,-3.5504,-3.5504,-3.5504,-3.5504,-3.5504,-3.5504,-3.5504,-3.5429,-3.4951,-3.4936,-3.51,-3.4861,-3.4651,-3.4429,-3.3978,-3.3559,-3.3155,-3.2931,-3.2871,-3.2961,-3.338,-3.3499,-3.338,-3.2961,-3.2871,-3.2677,-3.1989,-3.1854,-3.1795,-3.1555,-3.1511,-3.1361,-3.0913,-3.0163,-2.9232,-2.8124,-2.775,-2.721,-2.6093,-2.5749,-2.5196,-2.4066,-2.3744,-2.3595,-2.3595,-2.3595,-2.3595,-2.3595,-2.3595,-2.3595,-2.3595,-2.3595,-2.3595,-2.3595,-2.3017,-2.2897,-2.3287,-2.2658,-2.2343,-2.2343,-2.2343,-2.2119,-3.0554,-3.2153,-3.3664,-3.7449,-3.7913,-3.7614,-3.8197,-3.73,-3.5774,-3.3768,-3.2228,-3.0853,0.0,0.0,-2.8184,-3.0088,-3.0522,-3.13,-3.332,-3.3604,-3.3814,0.0,0.0,0.0,0.0,0.0,0.0,-3.5459,0.0,-3.5519,-3.5549,-3.5519,-3.5519,-3.5549,-3.5519,-3.5504,-3.5504,-3.5504,-3.5504,-3.5504,-3.5504,-3.5504,-3.5504,-3.5504,-3.5504,-3.5504,-3.5504,-3.5504,-3.5504,-3.5504,-3.5504,-3.5504,-3.5504,-3.5504,-3.5504,-3.5504,-3.5504,-3.531,-3.3963,-3.3948,-3.4459,-3.3799,-3.4023,-3.4548,-3.4518,-3.4503,-3.4384,-3.3724,-3.3544,-3.3559,-3.3589,-3.3604,-3.3589,-3.3559,-3.3514,-3.332,-3.2632,-3.2452,-3.2243,-3.163,-3.1511,-3.1496,-3.1451,-3.0447,-2.9427,-2.8712,-2.8064,-2.7405,-2.6701,-2.6048,-2.5367,-2.4679,-2.4022,-2.364,-2.3595,-2.3595,-2.3595,-2.3595,-2.3595,-2.3595,-2.3595,-2.3595,-2.3595,-2.3595,-2.3047,-2.2748,-2.2748,-2.2119,-2.1799,-2.1799,-2.1799,-2.1799,-3.2317,-3.4547,-3.6522,-3.8018,-3.8257,-3.8063,-3.7734,-3.5893,-3.3721,-3.1825,-2.9512,-2.7314,0.0,0.0,0.0,-2.8846,-3.0731,0.0,-3.4711,-3.4996,0.0,0.0,0.0,-3.54,-3.4593,-3.5417,0.0,0.0,-3.5504,-3.5714,-3.6207,-3.5774,-3.5729,-3.6222,-3.5759,-3.5504,-3.5504,-3.5504,-3.5504,-3.5504,-3.5504,-3.5504,-3.5504,-3.5504,-3.5504,-3.5504,-3.5504,-3.5504,-3.5504,-3.5504,-3.5504,-3.5504,-3.5504,-3.5504,-3.5504,-3.5504,-3.5504,-3.531,-3.3963,-3.4262,-3.522,-3.5055,-3.5115,-3.5145,-3.4668,-3.4503,-3.4474,-3.4294,-3.4264,-3.4337,-3.4861,-3.4996,-3.4861,-3.4337,-3.3844,-3.332,-3.2632,-3.2108,-3.1705,-3.154,-3.1511,-3.1346,-3.0823,-3.0492,-2.9894,-2.8771,-2.8442,-2.7919,-2.6737,-2.6437,-2.5899,-2.4724,-2.4455,-2.4141,-2.364,-2.3595,-2.3595,-2.3595,-2.3595,-2.3595,-2.3595,-2.3595,-2.3595,-2.3595,-2.3445,-2.337,-2.337,-2.3191,-2.3116,-2.3116,-2.3116,-2.3116,-3.4592,-3.6507,-3.7928,-3.8302,-3.8167,-3.7479,-3.5669,-3.3464,-3.1102,-2.855,-2.6145,0.0,0.0,0.0,0.0,0.0,0.0,0.0,-3.3829,-3.4696,-3.5026,0.0,-3.5594,0.0,-3.54,-3.6076,-3.6327,0.0,-3.5669,-3.5669,-3.6028,-3.5699,-3.5669,-3.6043,-3.5699,-3.5504,-3.5504,-3.5504,-3.5504,-3.5504,-3.5504,-3.5504,-3.5504,-3.5504,-3.5504,-3.5504,0.0,-3.5504,-3.5504,-3.5504,-3.5504,-3.5504,-3.5504,-3.5246,-3.4839,-3.4839,-3.4839,-3.4692,-3.3677,-3.4288,-3.5415,-3.4816,-3.4622,-3.4651,-3.4861,-3.4711,-3.4578,-3.4846,-3.4921,-3.5026,-3.54,-3.5504,-3.5415,-3.5026,-3.4412,-3.3739,-3.308,-3.2647,-3.2273,-3.1989,-3.1929,-3.1615,-3.0672,-3.0507,-3.0073,-2.8786,-2.8607,-2.8218,-2.718,-2.6767,-2.6198,-2.5143,-2.4784,-2.4335,-2.3655,-2.3595,-2.3595,-2.3595,-2.3595,-2.3595,-2.3595,-2.3595,-2.3595,-2.3595,-2.3595,-2.3595,-2.3595,-2.3595,-2.3595,-2.3595,-2.3595,-2.3595,-3.6851,-3.7958,-3.8392,-3.8392,-3.7754,-3.6283,-3.3095,-3.0704,-2.8196,-2.4904,0.0,-2.1559,-2.1386,0.0,-2.1869,-2.5091,0.0,-2.8783,-3.2168,-3.3619,-3.4668,-3.5415,-3.5579,-3.5833,-3.6312,-3.6432,-3.6447,-3.6357,-3.5833,-3.5549,-3.5624,-3.5549,-3.5504,-3.5504,-3.5504,-3.5504,-3.5504,-3.5504,-3.5504,-3.5504,-3.5504,-3.5504,-3.5504,-3.5504,-3.5504,-3.5504,-3.5504,0.0,-3.5489,-3.54,-3.535,-3.5279,-3.519,-3.4618,-3.3808,-3.3808,-3.3808,-3.3756,-3.3269,-3.4021,-3.4999,-3.3977,-3.3679,-3.3978,-3.516,-3.5085,-3.4741,-3.534,-3.5504,-3.5504,-3.5504,-3.5504,-3.5504,-3.5504,-3.4906,-3.4249,-3.3724,-3.3559,-3.3305,-3.2647,-3.2512,-3.2108,-3.0851,-3.0642,-3.0238,-2.9026,-2.8786,-2.8487,-2.7824,-2.7151,-2.6437,-2.5689,-2.5068,-2.4425,-2.367,-2.3595,-2.3595,-2.3595,-2.3595,-2.3595,-2.3595,-2.3595,-2.3595,-2.3595,-2.3595,-2.3595,-2.3595,-2.3595,-2.3595,-2.3595,-2.3595,-2.3595,-3.7659,-3.8302,-3.8392,-3.8392,-3.698,-3.4917,-3.2258,-2.8855,0.0,0.0,0.0,-2.0076,-1.9488,-2.0557,0.0,-2.5166,0.0,0.0,0.0,0.0,-3.4128,0.0,0.0,0.0,0.0,0.0,0.0,0.0,0.0,-3.5744,-3.6297,-3.5804,-3.5504,-3.5504,-3.5504,-3.5504,-3.5504,-3.5504,-3.5504,-3.5504,-3.5504,-3.5504,-3.5504,-3.5504,-3.5504,-3.5504,-3.5504,0.0,-3.5459,-3.4891,-3.4517,-3.4201,-3.3709,-3.3243,-3.2855,-3.2855,-3.2855,-3.2877,-3.3034,-3.3273,-3.3609,-3.4146,-3.4696,-3.5205,-3.5429,-3.5429,-3.5355,-3.5474,-3.5504,-3.5504,-3.5504,-3.5504,-3.5504,-3.5504,-3.4562,-3.3784,-3.4249,-3.3873,-3.3305,-3.2647,-3.2512,-3.2243,-3.1451,-3.1331,-3.1062,-3.0298,-2.9744,-2.916,-2.8502,-2.7854,-2.6971,-2.5734,-2.551,-2.4941,-2.3699,-2.3595,-2.3595,-2.3595,-2.3595,-2.3595,-2.3595,-2.3595,-2.3595,-2.3595,-2.3595,-2.3595,-2.3595,-2.3595,-2.3595,-2.3595,-2.3595,-2.3595,-3.7958,-3.8646,-3.8644,-3.7441,-3.5959,-3.3717,-2.9667,0.0,0.0,0.0,0.0,-1.8863,-1.8533,0.0,0.0,0.0,0.0,0.0,0.0,0.0,0.0,0.0,0.0,0.0,0.0,0.0,0.0,0.0,0.0,-3.6013,-3.5968,-3.5669,-3.5504,-3.5504,-3.5504,-3.5504,-3.5504,-3.5504,-3.5504,-3.5504,-3.5504,-3.5504,-3.5504,-3.5504,-3.5504,-3.5504,-3.5504,0.0,-3.5489,-3.5145,-3.461,-3.395,-3.3676,-3.2849,-3.1852,-3.1852,-3.1852,-3.1915,-3.2208,-3.2871,-3.3671,-3.4307,-3.4472,-3.4592,-3.5295,-3.525,-3.504,-3.54,-3.5504,-3.5504,-3.5504,-3.5504,-3.5504,-3.5504,-3.4741,-3.3993,-3.3978,-3.3724,-3.3395,-3.308,-3.2751,-3.2273,-3.1615,-3.1511,-3.1271,-3.0612,-2.9983,-2.934,-2.8682,-2.8019,-2.7225,-2.6228,-2.6123,-2.5585,-2.4216,-2.4111,-2.3984,-2.3625,-2.3595,-2.3595,-2.3595,-2.3595,-2.3595,-2.3595,-2.3595,-2.3595,-2.3595,-2.3595,-2.3595,-2.3595,-2.3595,-2.3595,-3.7793,-3.8676,-3.8671,-3.6525,-3.505,-3.2703,-2.7257,-2.4281,0.0,0.0,-1.8302,-1.7967,-1.8086,0.0,0.0,0.0,0.0,0.0,0.0,0.0,0.0,0.0,0.0,0.0,0.0,0.0,0.0,0.0,0.0,0.0,-3.5534,-3.5504,-3.5504,-3.5504,-3.5504,-3.5504,-3.5504,-3.5504,-3.5504,-3.5504,-3.5504,-3.5504,-3.5504,-3.5504,-3.5504,-3.5504,-3.5279,0.0,0.0,-3.4886,-3.4278,-3.3656,-3.3308,-3.2247,-3.0882,-3.0751,-3.079,-3.0939,-3.1311,-3.2298,-3.3522,-3.4268,-3.4218,-3.4128,-3.519,-3.513,-3.4801,-3.5355,-3.5504,-3.5504,-3.5504,-3.5504,-3.5429,-3.5145,-3.4666,-3.4114,-3.3425,-3.3395,-3.3455,-3.3305,-3.2871,-3.2273,-3.1615,-3.1511,-3.1316,-3.0806,-3.0073,-2.9427,-2.8876,-2.8109,-2.7405,-2.6881,-2.6701,-2.6063,-2.4709,-2.4605,-2.4306,-2.364,-2.3595,-2.3595,-2.3595,-2.3595,-2.3595,-2.3595,-2.3595,-2.3595,-2.3595,-2.3595,-2.3595,-2.3595,-2.3595,-2.3595,-3.6985,-3.7973,-3.8076,-3.6409,-3.4634,-3.1933,-2.6665,0.0,0.0,0.0,-1.7747,-1.7524,-1.8007,-1.8187,-1.8851,0.0,0.0,0.0,0.0,0.0,0.0,0.0,0.0,0.0,0.0,0.0,0.0,0.0,0.0,0.0,-3.5504,-3.5504,-3.5504,-3.5504,-3.5504,-3.5504,-3.5504,-3.5504,-3.5504,-3.5504,-3.5504,-3.5504,-3.5504,-3.5504,-3.5504,-3.5439,-3.4543,0.0,0.0,-3.2936,-3.225,-3.2587,-3.1128,-3.0316,-2.9871,-2.9303,-2.9441,-3.0025,-3.064,-3.1118,-3.1793,-3.3849,-3.4861,-3.534,-3.5474,-3.5459,-3.5429,-3.5489,-3.5504,-3.5504,-3.5504,-3.5504,-3.519,-3.3963,-3.3634,-3.341,-3.2751,-3.308,-3.332,-3.2721,-3.2557,-3.2273,-3.1615,-3.1511,-3.1481,-3.1421,-3.0372,-2.9592,-2.9532,-2.8393,-2.757,-2.751,-2.6971,-2.6063,-2.4709,-2.4605,-2.4306,-2.364,-2.3595,-2.3595,-2.3595,-2.3595,-2.3595,-2.3595,-2.3595,-2.3595,-2.3595,-2.3595,-2.3595,-2.3595,-2.3595,-2.3595,-3.4931,-3.6985,-3.7792,-3.521,-3.3034,-3.036,-2.5974,0.0,0.0,-1.8385,-1.7666,-1.7271,-1.7146,-1.7415,-1.7957,0.0,0.0,0.0,0.0,0.0,0.0,0.0,0.0,0.0,0.0,0.0,0.0,0.0,0.0,0.0,-3.5504,-3.5504,-3.5504,-3.5504,-3.5504,-3.5504,-3.5504,-3.5504,-3.5504,-3.5504,-3.5504,-3.5504,-3.5472,-3.4872,-3.4953,-3.5392,-3.3822,0.0,0.0,-3.2511,-3.1738,-3.1652,-3.0705,-3.0117,-2.9729,-2.9101,-2.9038,-2.934,-2.9835,-3.0443,-3.1253,-3.3114,-3.4238,-3.4966,-3.5385,-3.522,-3.4891,-3.4891,-3.4891,-3.4801,-3.4397,-3.4592,-3.4651,-3.3709,-3.3799,-3.3799,-3.2736,-3.2721,-3.2946,-3.308,-3.2437,-3.1929,-3.2064,-3.1765,-3.1511,-3.1511,-3.0417,-2.9606,-2.9606,-2.8423,-2.76,-2.76,-2.736,-2.6647,-2.5307,-2.5187,-2.4739,-2.367,-2.3595,-2.3595,-2.3595,-2.3595,-2.3595,-2.3595,-2.3595,-2.3595,-2.3595,-2.3595,-2.3595,-2.3595,-2.3595,-2.3595,-3.2136,-3.4687,-3.5848,-3.311,-3.11,-2.8714,0.0,0.0,-1.8804,-1.784,-1.7333,-1.6951,-1.6573,-1.6816,-1.7291,-1.7987,0.0,0.0,0.0,0.0,0.0,0.0,0.0,0.0,0.0,0.0,0.0,0.0,0.0,0.0,-3.5504,-3.5504,-3.5504,-3.5504,-3.5504,-3.5504,-3.5504,-3.5504,-3.5504,-3.5504,-3.5504,-3.5504,-3.5472,-3.4758,-3.4658,-3.4986,-3.3602,0.0,0.0,-3.1993,-3.1231,-3.0903,-3.0228,-2.9701,-2.9252,-2.8837,-2.8823,-2.9028,-2.9005,-2.9596,-3.0637,-3.2121,-3.2951,-3.3583,-3.4582,-3.4711,-3.4474,-3.4279,-3.4354,-3.4444,-3.4158,-3.4143,-3.4099,-3.3604,-3.3559,-3.335,-3.2392,-3.2348,-3.2587,-3.2856,-3.2317,-3.1884,-3.2153,-3.1809,-3.1511,-3.1511,-3.0417,-2.9606,-2.9606,-2.8423,-2.76,-2.76,-2.76,-2.7151,-2.5989,-2.5719,-2.5121,-2.3984,-2.3714,-2.3595,-2.3595,-2.3595,-2.3595,-2.3595,-2.3595,-2.3595,-2.3595,-2.3595,-2.3595,-2.3595,-2.3595,-2.3595,-2.8555,-3.0623,-3.1619,-3.01,-2.9024,-2.7127,0.0,0.0,-1.8759,-1.6887,-1.6522,-1.6522,-1.65,-1.65,-1.6858,-1.7927,-1.8106,0.0,0.0,0.0,0.0,0.0,0.0,0.0,0.0,0.0,0.0,0.0,0.0,0.0,-3.5504,-3.5504,-3.5504,-3.5504,-3.5504,-3.5504,-3.5504,-3.5504,-3.5504,-3.5504,-3.5504,-3.5504,-3.5504,-3.5504,-3.4953,0.0,0.0,0.0,0.0,-3.1007,-3.0398,-3.0303,-2.9287,-2.8599,-2.8122,-2.8109,-2.8651,-2.9236,-2.8112,-2.8467,-2.9624,-3.0825,-3.1051,-3.1179,-3.2974,-3.3994,-3.4369,-3.3694,-3.3978,-3.4668,-3.531,-3.4502,-3.3499,-3.3499,-3.2497,-3.1525,-3.1511,-3.2034,-3.2317,-3.1645,-3.2049,-3.2273,-3.163,-3.1511,-3.1511,-3.1511,-3.0417,-2.9606,-2.9606,-2.8423,-2.76,-2.76,-2.76,-2.733,-2.6632,-2.5989,-2.5307,-2.4634,-2.3984,-2.3595,-2.3595,-2.3595,-2.3595,-2.3595,-2.3595,-2.3595,-2.3595,-2.3595,-2.3595,-2.3595,-2.3595,-2.3595,-2.4885,-2.7074,-2.8158,-2.66,-2.5447,-2.4003,-2.1472,-1.9345,-1.7761,-1.7162,-1.6752,-1.65,-1.65,-1.65,-1.6858,-1.7927,-1.8491,0.0,0.0,0.0,0.0,0.0,0.0,0.0,0.0,0.0,0.0,0.0,0.0,0.0,-3.5504,-3.5504,-3.5504,-3.5504,-3.5504,-3.5504,-3.5504,-3.5504,-3.5504,-3.5504,-3.5504,-3.5504,-3.5457,-3.4124,-3.3685,0.0,0.0,0.0,0.0,-2.9621,-2.9041,-2.9285,-2.8243,-2.7921,-2.8059,-2.7682,-2.7746,-2.7867,-2.7126,-2.7496,-2.8472,-2.9915,-3.069,-3.1274,-3.2449,-3.2961,-3.3095,-3.2886,-3.2647,-3.2721,-3.3844,-3.3814,-3.338,-3.2931,-3.2841,-3.2632,-3.1705,-3.1675,-3.1884,-3.2123,-3.1974,-3.1884,-3.2123,-3.1795,-3.1511,-3.1511,-3.0417,-2.9606,-2.9606,-2.8423,-2.76,-2.76,-2.76,-2.733,-2.6647,-2.5989,-2.5307,-2.4649,-2.3984,-2.3804,-2.4261,-2.4276,-2.45,-2.4956,-2.4515,-2.4276,-2.4276,-2.3819,-2.3595,-2.3595,-2.3595,-2.3595,0.0,-2.3491,-2.4623,-2.342,-2.2459,0.0,0.0,-1.8293,-1.6993,-1.6993,-1.69,-1.6795,-1.6795,-1.6972,-1.7394,-1.8263,-1.8762,0.0,0.0,0.0,0.0,0.0,0.0,0.0,0.0,0.0,0.0,0.0,0.0,0.0,-3.5504,-3.5504,-3.5504,-3.5504,-3.5133,-3.4953,-3.4953,-3.4953,-3.4773,-3.4409,-3.4773,-3.4739,-3.4375,-3.315,-3.2749,0.0,0.0,0.0,0.0,-2.89,-2.8297,-2.8235,-2.7557,-2.7369,-2.7469,-2.7331,-2.7341,-2.7343,-2.6703,-2.704,-2.7855,-2.8828,-2.9907,-3.1014,-3.1886,-3.2108,-3.2168,-3.2437,-3.2183,-3.2123,-3.3215,-3.3499,-3.3395,-3.2976,-3.3006,-3.2961,-3.2392,-3.2049,-3.1989,-3.2407,-3.2153,-3.1929,-3.2093,-3.178,-3.1511,-3.1511,-3.0612,-2.9849,-2.9636,-2.8663,-2.7884,-2.763,-2.76,-2.742,-2.7016,-2.6363,-2.5809,-2.5367,-2.4732,-2.4552,-2.4963,-2.4978,-2.5173,-2.56,-2.4933,-2.4605,-2.4605,-2.3939,-2.3595,-2.3595,-2.3595,-2.3595,0.0,0.0,0.0,0.0,0.0,0.0,0.0,-1.7275,0.0,-1.6552,-1.6951,-1.7312,-1.7353,-1.7767,-1.8263,-1.8746,-1.8965,0.0,0.0,0.0,0.0,0.0,0.0,0.0,0.0,0.0,0.0,0.0,0.0,0.0,-3.5392,-3.5472,-3.5472,-3.5392,-3.4476,-3.4027,-3.4095,-3.4027,-3.3567,-3.2713,-3.3518,-3.3449,-3.2593,-3.2522,-3.2006,0.0,0.0,0.0,0.0,-2.8703,-2.811,-2.7281,-2.7278,-2.6952,-2.6562,-2.7065,-2.7387,-2.7517,-2.6748,-2.7007,-2.7637,-2.7769,-2.8971,-3.0524,-3.1278,-3.1511,-3.163,-3.2243,-3.2437,-3.2572,-3.3245,-3.3425,-3.3425,-3.3425,-3.2961,-3.2677,-3.323,-3.2871,-3.2437,-3.2437,-3.2437,-3.2213,-3.1615,-3.1511,-3.1511,-3.1511,-3.0913,-3.0298,-2.9756,-2.9041,-2.8353,-2.7735,-2.763,-2.76,-2.76,-2.7001,-2.6587,-2.6587,-2.5974,-2.563,-2.5674,-2.5674,-2.5689,-2.5749,-2.5083,-2.4724,-2.4679,-2.4059,-2.3744,-2.3744,-2.3684,-2.3699,-1.4917,0.0,-1.7024,-1.692,-1.7074,0.0,0.0,-1.6688,-1.6616,0.0,0.0,0.0,-1.7847,-1.8027,-1.8145,-1.8283,-1.9495,0.0,0.0,0.0,0.0,0.0,0.0,0.0,0.0,0.0,0.0,0.0,0.0,-3.4361,-3.4361,-3.51,-3.5133,-3.4394,-3.4129,-3.4361,-3.5133,-3.4394,-3.3876,-3.3671,-3.3171,-3.282,-3.2558,-3.1852,-3.1199,0.0,0.0,0.0,-2.8273,-2.825,-2.786,-2.7278,-2.6851,-2.6612,-2.6512,-2.6637,-2.6737,-2.6748,-2.6555,-2.6624,-2.7007,-2.8266,-2.9858,-3.1248,-3.1438,-3.1511,-3.154,-3.169,-3.1735,-3.1884,-3.2572,-3.2751,-3.2751,-3.2751,-3.2617,-3.2392,-3.2049,-3.1854,-3.1735,-3.1735,-3.1735,-3.169,-3.1525,-3.1511,-3.1511,-3.1511,-3.0913,-3.0447,-3.0313,-2.9295,-2.8547,-2.8368,-2.7914,-2.76,-2.76,-2.7001,-2.6587,-2.6587,-2.5974,-2.5839,-2.6333,-2.6363,-2.6626,-2.7121,-2.6467,-2.5884,-2.5352,-2.5211,-2.5136,-2.5121,-2.459,-2.4634,-1.3521,-1.4664,-1.5693,-1.5693,-1.6107,-1.65,-1.65,0.0,0.0,0.0,0.0,0.0,0.0,0.0,0.0,0.0,0.0,0.0,0.0,0.0,0.0,0.0,0.0,0.0,0.0,0.0,0.0,0.0,0.0,-3.3993,-3.3993,-3.4953,-3.5019,-3.4027,-3.3993,-3.3856,-3.3512,-3.3429,-3.2786,-3.1662,-3.1861,-3.1608,-3.0894,-3.0641,-3.0248,0.0,0.0,0.0,-2.772,-2.772,-2.7406,-2.6914,-2.6612,-2.6499,-2.6499,-2.6499,-2.6499,-2.6499,-2.6499,-2.6499,-2.6782,-2.846,-2.9597,-3.0494,-3.1278,-3.1248,-3.1029,-3.1409,-3.1511,-3.1585,-3.1944,-3.2258,-3.2512,-3.2512,-3.2512,-3.2467,-3.2437,-3.1929,-3.1585,-3.1899,-3.1705,-3.1511,-3.1511,-3.1511,-3.1511,-3.1511,-3.1182,-3.0866,-3.0552,-2.9654,-2.8936,-2.8637,-2.8004,-2.76,-2.76,-2.727,-2.7061,-2.7061,-2.6731,-2.6686,-2.7046,-2.7061,-2.7091,-2.7151,-2.6767,-2.6273,-2.5615,-2.5615,-2.5615,-2.56,-2.5217,-2.5247,-1.3023,-1.4356,-1.5567,-1.5567,-1.6045,-1.65,-1.65,0.0,0.0,0.0,0.0,0.0,0.0,0.0,0.0,0.0,0.0,0.0,0.0,0.0,0.0,0.0,0.0,0.0,0.0,0.0,0.0,0.0,0.0,-3.3636,-3.3774,-3.4591,-3.4591,-3.3602,-3.3705,-3.2835,-3.0876,-3.1802,-3.1198,-2.915,-3.0282,-3.0106,-2.8787,-2.9402,-2.9302,-2.865,0.0,0.0,-2.7168,-2.7291,-2.6989,-2.6499,-2.6499,-2.6499,-2.6499,-2.6499,-2.6499,-2.6499,-2.6499,-2.6692,-2.7129,-2.8524,-2.9097,-2.9473,-3.0896,-3.0748,-3.0238,-3.0925,-3.1117,-3.1146,-3.1235,-3.1738,-3.2199,-3.2288,-3.2333,-3.2512,-3.308,-3.2288,-3.1675,-3.2228,-3.1884,-3.1511,-3.1511,-3.1511,-3.1511,-3.1511,-3.1511,-3.1286,-3.0731,-3.0118,-2.9475,-2.8816,-2.8154,-2.7705,-2.76,-2.76,-2.76,-2.76,-2.76,-2.76,-2.76,-2.76,-2.733,-2.6752,-2.6761,-2.6467,-2.5914,-2.5914,-2.5914,-2.5899,-2.5809,-2.5809,-1.2939,-1.4099,-1.5009,-1.5009,-1.5768,-1.65,-1.65,0.0,0.0,0.0,0.0,0.0,0.0,0.0,0.0,0.0,0.0,0.0,0.0,0.0,0.0,0.0,0.0,0.0,0.0,0.0,0.0,0.0,0.0,-3.1997,-3.2784,-3.2961,-3.2607,-3.1669,-3.2393,-3.1681,-2.9264,-3.0226,-3.055,-3.0144,-2.955,-2.8899,-2.8247,-2.8775,-2.8499,-2.7557,0.0,-2.7607,-2.6663,-2.7128,-2.6989,-2.6499,-2.6499,-2.6499,-2.6499,-2.6499,-2.6499,-2.6499,-2.6499,-2.7417,-2.8652,-2.8907,-2.9504,-3.0133,-3.0419,-2.9889,-2.9223,-2.9348,-2.938,-2.9491,-3.0087,-3.042,-3.0755,-3.1277,-3.1514,-3.169,-3.178,-3.1645,-3.1525,-3.163,-3.157,-3.1511,-3.1511,-3.1511,-3.1511,-3.1511,-3.1511,-3.1466,-3.1361,-3.0776,-3.0118,-2.9517,-2.8846,-2.8203,-2.7645,-2.76,-2.76,-2.76,-2.76,-2.76,-2.76,-2.76,-2.754,-2.745,-2.745,-2.7405,-2.7285,-2.7285,-2.7285,-2.7285,-2.6692,-2.6761,-1.2897,-1.3822,-1.4538,-1.484,-1.5706,-1.6573,-1.6879,0.0,0.0,0.0,0.0,0.0,0.0,0.0,0.0,0.0,0.0,0.0,0.0,0.0,0.0,0.0,0.0,0.0,0.0,0.0,0.0,0.0,0.0,0.0,-3.1384,-3.1877,-3.1586,-3.0328,-3.0695,-3.0111,-2.8486,-2.8645,-2.873,-2.8708,-2.8556,-2.8197,-2.7682,-2.8235,-2.8047,-2.7318,0.0,-2.7482,-2.6537,-2.709,-2.6989,-2.6499,-2.6499,-2.6499,-2.6499,-2.6499,-2.6499,-2.6555,-2.7007,-2.7637,-2.846,-2.9411,-2.9659,-2.969,-3.0178,-2.9142,-2.7858,-2.7858,-2.8407,-2.9083,-2.951,-2.9695,-2.9941,-3.0646,-3.064,-3.0672,-3.1346,-3.1212,-3.0943,-3.0943,-3.0943,-3.0943,-3.0943,-3.0943,-3.1077,-3.1451,-3.1511,-3.1376,-3.1002,-3.0702,-3.0268,-2.9666,-2.8996,-2.8472,-2.8184,-2.7809,-2.76,-2.76,-2.76,-2.76,-2.76,-2.76,-2.76,-2.76,-2.76,-2.76,-2.76,-2.76,-2.76,-2.7585,-2.7285,-2.73,-1.2935,-1.3634,-1.4204,-1.4614,0.0,-1.6726,-1.7566,0.0,0.0,0.0,0.0,0.0,0.0,0.0,0.0,0.0,0.0,0.0,0.0,0.0,0.0,0.0,0.0,0.0,0.0,0.0,0.0,0.0,0.0,0.0,-3.0213,-3.068,-3.0381,-2.9196,-2.9183,-2.8753,-2.7908,-2.7494,-2.7281,-2.7293,-2.7708,-2.762,-2.714,-2.7657,-2.7607,-2.7153,-2.7544,-2.7278,-2.6524,-2.6952,-2.6876,-2.6499,-2.6499,-2.6411,-2.6273,-2.616,-2.6185,-2.6388,-2.6989,-2.7341,-2.7721,-2.9077,-2.8979,-2.8449,-2.9099,-2.7947,-2.6393,-2.6393,-2.7322,-2.8308,-2.8448,-2.8648,-2.8942,-2.9592,-2.9535,-2.9599,-3.0566,-3.062,-3.0462,-3.0313,-3.0537,-3.0687,-3.0537,-3.0642,-3.0898,-3.1421,-3.1376,-3.1137,-3.0791,-3.0612,-3.0268,-2.9666,-2.9131,-2.8712,-2.8382,-2.7899,-2.76,-2.76,-2.76,-2.76,-2.76,-2.76,-2.76,-2.76,-2.76,-2.76,-2.76,-2.76,-2.76,-2.76,-2.76,-2.76,-1.3035,-1.3634,-1.4116,-1.4154,-1.5337,0.0,-1.8742,-2.04,0.0,0.0,0.0,0.0,0.0,0.0,0.0,0.0,0.0,0.0,0.0,0.0,0.0,0.0,0.0,0.0,0.0,0.0,0.0,0.0,0.0,0.0,-2.9517,-2.881,-2.8317,-2.8206,-2.8206,-2.7931,-2.7344,-2.7341,-2.7281,-2.7281,-2.7318,-2.709,-2.6575,-2.7128,-2.7077,-2.6549,-2.66,-2.6562,-2.6499,-2.6537,-2.6524,-2.6499,-2.6499,-2.6172,-2.5598,-2.5121,-2.5247,-2.5649,-2.5715,-2.6264,-2.6963,-2.7091,-2.6764,-2.6312,-2.6374,-2.5719,-2.4935,-2.4935,-2.5517,-2.6149,-2.6127,-2.6738,-2.7381,-2.7411,-2.7982,-2.8509,-2.861,-2.9613,-3.0328,-2.9786,-3.0627,-3.1227,-3.0612,-3.1002,-3.1451,-3.1496,-3.0957,-3.0791,-3.1346,-3.0868,-3.0268,-2.9666,-2.9577,-2.9022,-2.7779,-2.763,-2.76,-2.76,-2.76,-2.76,-2.76,-2.76,-2.76,-2.76,-2.76,-2.76,-2.76,-2.76,-2.76,-2.76,-2.76,-2.76,-1.3048,-1.3634,-1.4103,-1.4103,-1.5559,0.0,0.0,0.0,0.0,0.0,0.0,0.0,0.0,0.0,0.0,0.0,0.0,0.0,0.0,0.0,0.0,0.0,0.0,0.0,0.0,0.0,0.0,0.0,0.0,0.0,-2.8139,-2.7797,-2.7444,-2.7128,-2.7115,-2.7014,-2.6801,-2.6801,-2.6801,-2.6801,-2.6801,-2.67,-2.6499,-2.6713,-2.6688,-2.6499,-2.6499,-2.6499,-2.6461,-2.6109,-2.5925,-2.5921,-2.5561,-2.531,-2.5096,-2.4863,-2.4946,-2.5174,-2.5717,-2.6418,-2.7084,-2.7132,-2.6982,-2.6698,-2.6254,-2.5257,-2.44,-2.4862,-2.4944,-2.5094,-2.5886,-2.6671,-2.7287,-2.7357,-2.7654,-2.7986,-2.8321,-2.9204,-2.9744,-2.9101,-3.0013,-3.0687,-3.0043,-3.0148,-3.0597,-3.1376,-3.0913,-3.0597,-3.0866,-3.1017,-3.0853,-3.0223,-2.9804,-2.9232,-2.8319,-2.7839,-2.76,-2.76,-2.76,-2.76,-2.76,-2.76,-2.76,-2.76,-2.76,-2.76,-2.76,-2.76,-2.76,-2.76,-2.76,-2.76,-1.2801,-1.3245,-1.368,0.0,0.0,0.0,0.0,0.0,0.0,0.0,0.0,0.0,0.0,0.0,0.0,0.0,0.0,0.0,0.0,0.0,0.0,0.0,0.0,0.0,0.0,0.0,0.0,0.0,0.0,0.0,0.0,-2.6952,-2.6889,-2.6499,-2.6499,-2.6411,-2.6223,-2.6223,-2.6135,-2.5971,-2.5971,-2.616,-2.6487,-2.6298,-2.6223,-2.6223,-2.6223,-2.6135,-2.5946,-2.5523,-2.536,-2.5297,-2.477,-2.4556,-2.4512,-2.4324,-2.4374,-2.462,-2.5244,-2.5774,-2.6217,-2.6236,-2.6085,-2.5801,-2.5315,-2.4487,-2.3808,-2.4318,-2.4553,-2.486,-2.571,-2.6316,-2.6663,-2.6525,-2.6893,-2.7295,-2.7423,-2.8435,-2.9097,-2.8397,-2.9325,-3.0073,-2.9681,-2.9606,-3.0028,-3.1316,-3.0584,-3.0058,-3.0447,-3.0746,-3.0806,-3.0537,-2.9759,-2.9086,-2.8637,-2.8004,-2.76,-2.76,-2.76,-2.76,-2.76,-2.76,-2.76,-2.76,-2.76,-2.76,-2.76,-2.76,-2.76,-2.76,-2.76,-2.76,-1.2266,-1.2416,0.0,0.0,0.0,0.0,0.0,0.0,0.0,0.0,0.0,0.0,0.0,0.0,0.0,0.0,0.0,0.0,0.0,0.0,0.0,0.0,0.0,0.0,0.0,0.0,0.0,0.0,0.0,0.0,0.0,-2.6172,-2.6487,-2.6474,-2.6487,-2.621,-2.5598,-2.5586,-2.5335,-2.4788,-2.4775,-2.5385,-2.6461,-2.585,-2.5586,-2.5586,-2.5586,-2.5297,-2.4788,-2.4775,-2.4775,-2.4713,-2.4205,-2.3991,-2.3916,-2.3308,-2.3471,-2.3991,-2.3991,-2.3991,-2.3991,-2.3991,-2.3602,-2.3108,-2.3108,-2.3108,-2.3108,-2.3108,-2.4208,-2.5398,-2.5398,-2.5412,-2.5245,-2.4494,-2.5425,-2.631,-2.5563,-2.7095,-2.8397,-2.7735,-2.8693,-2.9621,-2.9621,-2.9606,-3.0028,-3.1316,-2.9836,-2.9071,-3.0357,-2.9968,-2.9846,-3.0432,-2.9355,-2.8607,-2.8607,-2.8004,-2.76,-2.76,-2.76,-2.76,-2.76,-2.76,-2.76,-2.76,-2.76,-2.76,-2.76,-2.76,-2.76,-2.76,-2.76,-2.76,-1.2608,-1.3128,0.0,0.0,0.0,0.0,0.0,0.0,0.0,0.0,0.0,0.0,0.0,0.0,0.0,0.0,0.0,0.0,0.0,0.0,0.0,0.0,0.0,0.0,0.0,0.0,0.0,0.0,0.0,0.0,0.0,-2.5561,-2.5686,-2.5322,-2.5661,-2.5598,-2.5059,-2.5059,-2.4938,-2.4788,-2.4431,-2.4619,-2.531,-2.5134,-2.5059,-2.5059,-2.5059,-2.4938,-2.4763,-2.4406,-2.4004,-2.3584,-2.3421,-2.3358,-2.3346,-2.317,-2.3208,-2.3358,-2.3358,-2.3739,-2.4127,-2.3541,-2.3624,-2.3826,-2.3275,-2.3108,-2.3215,-2.3767,-2.4279,-2.4766,-2.5259,-2.6133,-2.6689,-2.6004,-2.6575,-2.706,-2.6336,-2.7457,-2.8547,-2.8338,-2.934,-3.0223,-3.0223,-2.9864,-3.0028,-3.1316,-3.0253,-2.9759,-3.1032,-3.0642,-3.0298,-3.0477,-2.9355,-2.8607,-2.8607,-2.8004,-2.76,-2.76,-2.76,-2.76,-2.76,-2.76,-2.76,-2.76,-2.76,-2.76,-2.76,-2.76,-2.76,-2.76,-2.76,-2.76,-1.2686,0.0,0.0,0.0,0.0,0.0,0.0,0.0,0.0,0.0,0.0,0.0,0.0,0.0,0.0,0.0,0.0,0.0,0.0,0.0,0.0,0.0,0.0,0.0,0.0,0.0,0.0,0.0,0.0,0.0,0.0,-2.4996,-2.5146,-2.48,-2.5121,-2.5034,-2.4506,-2.4236,-2.4123,-2.4111,-2.359,-2.3615,-2.4123,-2.4362,-2.4494,-2.4481,-2.4224,-2.3998,-2.3785,-2.3703,-2.3296,-2.2794,-2.302,-2.3108,-2.3108,-2.3108,-2.3108,-2.307,-2.2857,-2.3094,-2.3393,-2.2694,-2.2792,-2.3147,-2.2854,-2.2782,-2.2938,-2.3627,-2.406,-2.4452,-2.5203,-2.6255,-2.6917,-2.6234,-2.7042,-2.7709,-2.6727,-2.7383,-2.8188,-2.8188,-2.9041,-2.9834,-3.0103,-2.9846,-2.9939,-3.0943,-3.0253,-2.9864,-3.0657,-3.0612,-3.0612,-3.0881,-2.9759,-2.8996,-2.8996,-2.8139,-2.76,-2.76,-2.76,-2.76,-2.76,-2.76,-2.76,-2.76,-2.76,-2.76,-2.76,-2.76,-2.76,-2.76,-2.76,-2.76,0.0,0.0,0.0,0.0,0.0,0.0,0.0,0.0,0.0,0.0,0.0,0.0,0.0,0.0,0.0,0.0,0.0,0.0,0.0,0.0,0.0,0.0,0.0,0.0,0.0,0.0,0.0,0.0,0.0,0.0,0.0,-2.4343,-2.4612,-2.4562,-2.4662,-2.4424,-2.3853,-2.3346,-2.3058,-2.2945,-2.2493,-2.2518,-2.297,-2.3577,-2.3853,-2.3816,-2.3208,-2.2706,-2.2347,-2.2769,-2.2656,-2.2284,-2.2757,-2.2982,-2.3032,-2.3032,-2.3032,-2.2957,-2.2456,-2.2284,-2.2159,-2.1656,-2.1493,-2.1581,-2.2083,-2.2234,-2.2347,-2.2882,-2.366,-2.45,-2.5217,-2.6056,-2.6502,-2.5769,-2.7076,-2.8166,-2.6878,-2.7126,-2.7615,-2.7675,-2.8173,-2.8831,-2.9577,-2.9651,-2.9789,-3.0417,-3.0028,-2.9696,-2.9696,-3.0103,-3.0642,-3.1182,-3.0208,-2.9487,-2.9427,-2.8364,-2.766,-2.76,-2.76,-2.76,-2.76,-2.76,-2.76,-2.76,-2.76,-2.76,-2.76,-2.76,-2.76,-2.76,-2.76,-2.76,0.0,0.0,0.0,0.0,0.0,0.0,0.0,0.0,0.0,0.0,0.0,0.0,0.0,0.0,0.0,0.0,0.0,0.0,0.0,0.0,0.0,0.0,0.0,0.0,0.0,0.0,0.0,0.0,0.0,0.0,-2.202,-2.2962,-2.3271,-2.2862,-2.3715,-2.369,-2.2686,-2.2945,-2.2669,0.0,-2.2159,-2.2146,-2.1857,-2.2422,-2.2673,-2.2636,-2.2083,-2.202,-2.2284,-2.197,-2.1782,-2.1681,-2.1794,-2.2108,-2.2456,-2.2456,-2.2456,-2.2472,-2.2347,-2.2033,-2.1644,-2.1531,-2.1493,-2.1506,-2.1631,-2.1669,-2.1782,-2.2305,-2.3439,-2.4614,-2.5246,-2.6763,-2.7973,-2.7296,-2.7486,-2.7729,-2.7412,-2.7484,-2.7764,-2.8263,-2.8502,-2.8966,-3.0103,-2.9909,-2.9789,-3.0417,-3.0387,-3.0313,-3.0313,-2.9998,-2.9639,-2.9265,-2.8981,-2.8592,-2.8079,-2.8233,-2.8169,-2.763,-2.76,-2.76,-2.76,-2.76,-2.76,-2.76,-2.76,-2.76,-2.76,-2.76,-2.76,-2.76,-2.76,-2.76,0.0,0.0,0.0,0.0,0.0,0.0,0.0,0.0,0.0,0.0,0.0,0.0,0.0,0.0,0.0,0.0,0.0,0.0,0.0,0.0,0.0,0.0,0.0,0.0,0.0,0.0,0.0,0.0,0.0,-2.1232,-2.1509,-2.2033,-2.2221,-2.1933,-2.2485,-2.251,-2.192,-2.1945,-2.1794,-2.1493,-2.1506,-2.1408,-2.1144,-2.1669,-2.192,-2.1895,-2.1606,-2.1506,-2.1518,-2.1493,-2.1358,-2.1144,-2.1408,-2.1656,-2.192,-2.192,-2.192,-2.1882,-2.1606,-2.1358,-2.1081,-2.0778,-2.0677,-2.0727,-2.1031,-2.1307,-2.169,-2.2578,-2.3367,-2.4245,-2.5574,-2.6525,-2.7207,-2.7524,-2.7854,-2.8004,-2.766,-2.76,-2.7705,-2.8064,-2.8368,-2.8816,-2.9475,-2.9594,-2.9711,-3.0013,-2.999,-2.9951,-3.0076,-2.999,-2.9714,-2.9149,-2.9071,-2.8801,-2.8154,-2.8109,-2.7974,-2.7615,-2.76,-2.76,-2.76,-2.76,-2.76,-2.76,-2.76,-2.76,-2.76,-2.76,-2.76,-2.76,-2.76,-2.76,0.0,0.0,0.0,0.0,0.0,0.0,0.0,0.0,0.0,0.0,0.0,0.0,0.0,0.0,0.0,0.0,0.0,0.0,0.0,0.0,0.0,0.0,0.0,0.0,0.0,0.0,0.0,0.0,0.0,-2.0742,-2.1179,-2.132,-2.1343,-2.1343,-2.1443,-2.1471,-2.1343,-2.1018,-2.0968,-2.1192,-2.0666,-2.0465,-2.0553,-2.0918,-2.1167,-2.137,-2.1242,-2.1018,-2.0717,-2.1081,-2.0955,-2.0591,-2.1016,-2.1255,-2.1343,-2.1343,-2.1343,-2.1307,-2.0977,-2.0735,-2.0492,-2.0117,-1.9901,-1.9886,-2.0402,-2.093,-2.1622,-2.2885,-2.3301,-2.3763,-2.5791,-2.5909,-2.5819,-2.7096,-2.7839,-2.8133,-2.7694,-2.76,-2.76,-2.76,-2.8128,-2.8607,-2.8607,-2.9056,-2.9418,-2.9414,-2.9243,-2.9131,-2.9171,-2.961,-2.9709,-2.9248,-2.93,-2.9176,-2.8626,-2.8214,-2.7899,-2.7779,-2.7779,-2.772,-2.76,-2.76,-2.76,-2.76,-2.76,-2.76,-2.76,-2.76,-2.76,-2.76,-2.76,-2.76,0.0,0.0,0.0,0.0,0.0,0.0,0.0,0.0,0.0,0.0,0.0,0.0,0.0,0.0,0.0,0.0,0.0,0.0,0.0,0.0,0.0,0.0,0.0,0.0,0.0,0.0,0.0,0.0,-1.9962,-1.9949,-2.0024,-2.0528,-2.0805,-2.0805,-2.127,-2.1282,-2.0805,-2.1207,-2.0928,-2.0024,-1.9472,-1.9459,-1.9911,-1.9497,-1.9874,-2.0779,-2.0238,-2.0275,-2.0666,-2.02,-1.9974,-1.9924,-1.9999,-2.0365,-2.0805,-2.0805,-2.0805,-2.0873,-2.1315,-2.081,-2.0002,-2.0498,-2.027,-1.9823,-1.9899,-2.0352,-2.1067,-2.235,-2.3054,-2.3709,-2.5177,-2.5466,-2.563,-2.6455,-2.6715,-2.6943,-2.7488,-2.76,-2.76,-2.76,-2.8128,-2.8607,-2.8607,-2.8667,-2.8679,-2.859,-2.8497,-2.8211,-2.759,-2.7982,-2.815,-2.7662,-2.8135,-2.8515,-2.8599,-2.9041,-2.9097,-2.8502,-2.8472,-2.8203,-2.7615,-2.76,-2.76,-2.76,-2.76,-2.76,-2.76,-2.76,-2.76,-2.76,-2.76,-2.76,0.0,0.0,0.0,0.0,0.0,0.0,0.0,0.0,0.0,0.0,0.0,0.0,0.0,0.0,0.0,0.0,0.0,0.0,0.0,0.0,0.0,0.0,0.0,0.0,0.0,0.0,0.0,0.0,-1.9346,-1.9233,-1.8932,-1.9145,-1.9284,-1.9284,-1.9522,-1.9535,-1.9284,-1.9522,-1.9397,-1.8907,-1.8657,-1.8694,-1.8907,-1.8668,-1.8995,-1.9748,-1.9786,-1.9786,-1.9748,-1.9786,-1.9798,-1.9798,-1.9798,-1.9962,-2.0214,-2.0214,-2.0214,-2.0227,-2.0501,-2.0232,-1.985,-2.0144,-2.0055,-1.9798,-1.9798,-2.0239,-2.106,-2.2749,-2.3044,-2.3324,-2.5449,-2.5435,-2.501,-2.5726,-2.6203,-2.659,-2.6904,-2.7306,-2.76,-2.76,-2.7839,-2.8049,-2.8049,-2.8009,-2.8121,-2.8466,-2.7938,-2.776,-2.8468,-2.8537,-2.8573,-2.8596,-2.9132,-2.9418,-2.9179,-2.9442,-2.9295,-2.8637,-2.8193,-2.7671,-2.7011,-2.6982,-2.6982,-2.6982,-2.7382,-2.76,-2.76,-2.76,-2.76,-2.76,-2.76,-2.76,0.0,0.0,0.0,0.0,0.0,0.0,0.0,0.0,0.0,0.0,0.0,0.0,0.0,0.0,0.0,0.0,0.0,0.0,0.0,0.0,0.0,0.0,0.0,0.0,0.0,0.0,0.0,0.0,-1.8795,-1.8619,-1.8229,-1.8204,-1.8204,-1.8204,-1.8204,-1.8204,-1.8204,-1.8204,-1.8204,-1.8204,-1.8066,-1.8078,-1.8204,-1.8053,-1.8216,-1.8619,-1.9171,-1.9334,-1.9221,-1.9497,-1.9685,-1.9798,-1.9798,-1.9798,-1.9798,-1.9798,-1.971,-1.9648,-1.9953,-1.9864,-1.9648,-1.9953,-1.9927,-1.9798,-1.9798,-2.0239,-2.1087,-2.2918,-2.2911,-2.2931,-2.5313,-2.5011,-2.4257,-2.4954,-2.5536,-2.6081,-2.6669,-2.706,-2.7382,-2.756,-2.7433,-2.7382,-2.7575,-2.7576,-2.7647,-2.8009,-2.7594,-2.7674,-2.8836,-2.9001,-2.9066,-2.9199,-2.9605,-2.9693,-2.9238,-2.9194,-2.8988,-2.8477,-2.7805,-2.7113,-2.6446,-2.6288,-2.6229,-2.6229,-2.693,-2.7331,-2.7331,-2.7524,-2.7484,-2.7331,-2.7524,-2.76,0.0,0.0,0.0,0.0,0.0,0.0,0.0,0.0,0.0,0.0,0.0,0.0,0.0,0.0,0.0,0.0,0.0,0.0,0.0,0.0,0.0,0.0,0.0,0.0,0.0,0.0,0.0,0.0,-1.8242,-1.8242,-1.8204,-1.8204,-1.8204,-1.8204,-1.8204,-1.8204,-1.8204,-1.8204,-1.8204,-1.8191,-1.7677,-1.7725,-1.8191,-1.7664,-1.7461,-1.7524,-1.8053,-1.8844,-1.9723,-1.9233,-1.9334,-1.9798,-1.9798,-1.9798,-1.9798,-1.9798,-1.9497,-1.922,-2.0352,-1.9998,-1.922,-2.039,-2.0321,-1.9798,-1.9798,-2.0239,-2.0953,-2.2286,-2.2506,-2.2616,-2.4048,-2.38,-2.3386,-2.4163,-2.4408,-2.5007,-2.7086,-2.7008,-2.6774,-2.7458,-2.7049,-2.6774,-2.7484,-2.7604,-2.7376,-2.6727,-2.755,-2.801,-2.7414,-2.8318,-2.8754,-2.8149,-2.8108,-2.8121,-2.8094,-2.808,-2.8066,-2.8039,-2.7529,-2.6905,-2.6253,-2.573,-2.5453,-2.5453,-2.6176,-2.6563,-2.6563,-2.7255,-2.7255,-2.6563,-2.728,-2.76,0.0,0.0,0.0,0.0,0.0,0.0,0.0,0.0,0.0,0.0,0.0,0.0,0.0,0.0,0.0,0.0,0.0,0.0,0.0,0.0,0.0,0.0,0.0,0.0,0.0,0.0,0.0,0.0,0.0,-1.7513,-1.7114,-1.7102,-1.7102,-1.7102,-1.7102,-1.7102,-1.7102,-1.7102,-1.7102,-1.7124,-1.6923,-1.6923,-1.7089,-1.6923,-1.7024,-1.7398,-1.72,-1.7551,-1.8292,-1.8782,-1.8907,-1.8807,-1.9133,-1.9284,-1.9321,-1.9673,-1.9447,-1.9058,-1.9482,-1.9357,-1.9082,-1.9507,-1.9724,-1.9798,-1.9798,-1.9949,-2.0396,-2.1733,-2.1689,-2.165,-2.3293,-2.3154,-2.2862,-2.4026,-2.4372,-2.4873,-2.6541,-2.6695,-2.6721,-2.7473,-2.7382,-2.728,-2.7534,-2.7203,-2.6956,-2.7163,-2.7423,-2.7678,-2.7881,-2.8563,-2.8919,-2.8667,-2.864,-2.864,-2.864,-2.864,-2.8457,-2.8026,-2.7389,-2.6559,-2.5534,-2.5293,-2.5041,-2.4709,-2.5425,-2.5783,-2.5783,-2.6522,-2.6747,-2.651,-2.6774,-2.7152,0.0,0.0,0.0,0.0,0.0,0.0,0.0,0.0,0.0,0.0,0.0,0.0,0.0,0.0,0.0,0.0,0.0,0.0,0.0,0.0,0.0,0.0,0.0,0.0,0.0,0.0,0.0,0.0,0.0,0.0,-1.6513,-1.6315,-1.6107,-1.5898,-1.591,-1.5986,-1.6194,-1.6194,-1.6303,-1.65,-1.65,-1.65,-1.65,-1.65,-1.6722,-1.7087,-1.6886,-1.7137,-1.7702,-1.8242,-1.8367,-1.8242,-1.8581,-1.8719,-1.877,-1.9133,-1.8932,-1.8481,-1.8669,-1.8607,-1.8506,-1.8882,-1.9233,-1.9572,-1.9748,-1.9798,-2.0015,-2.1121,-2.1092,-2.1028,-2.24,-2.2546,-2.2564,-2.3638,-2.4161,-2.4669,-2.5562,-2.596,-2.6336,-2.7086,-2.6986,-2.678,-2.6841,-2.6615,-2.6664,-2.745,-2.7357,-2.7542,-2.8527,-2.8689,-2.8687,-2.8575,-2.8411,-2.8243,-2.8168,-2.8149,-2.7895,-2.7228,-2.6737,-2.5953,-2.4762,-2.4723,-2.4481,-2.3897,-2.4639,-2.4894,-2.4639,-2.5892,-2.6363,-2.6149,-2.6642,-2.7111,0.0,0.0,0.0,0.0,0.0,0.0,0.0,0.0,0.0,0.0,0.0,0.0,0.0,0.0,0.0,0.0,0.0,0.0,0.0,0.0,0.0,0.0,0.0,0.0,0.0,0.0,0.0,0.0,-1.6457,-1.6445,-1.6466,-1.5908,-1.532,-1.4744,-1.471,-1.5005,-1.5565,-1.5576,-1.5874,-1.6466,-1.65,-1.65,-1.65,-1.65,-1.65,-1.6525,-1.7112,-1.7664,-1.8116,-1.7624,-1.7712,-1.8154,-1.8179,-1.8179,-1.8179,-1.8191,-1.7852,-1.7473,-1.799,-1.7827,-1.7564,-1.8619,-1.8995,-1.9096,-1.9648,-1.9798,-1.9924,-2.0515,-2.0666,-2.0792,-2.137,-2.1911,-2.2435,-2.297,-2.3695,-2.4266,-2.4292,-2.4879,-2.5591,-2.631,-2.5726,-2.5175,-2.5369,-2.5825,-2.6482,-2.7322,-2.7313,-2.7696,-2.9056,-2.8605,-2.8042,-2.7703,-2.7202,-2.6785,-2.6517,-2.6499,-2.6248,-2.5649,-2.5624,-2.5146,-2.4092,-2.4029,-2.3753,-2.3158,-2.3868,-2.3897,-2.3133,-2.5356,-2.6068,-2.5398,-2.6864,-2.7549,-1.0303,0.0,0.0,0.0,0.0,0.0,0.0,0.0,0.0,0.0,0.0,0.0,0.0,0.0,0.0,0.0,0.0,0.0,0.0,0.0,0.0,0.0,0.0,0.0,0.0,0.0,0.0,0.0,-1.5444,-1.5399,-1.582,-1.5698,-1.5521,-1.5365,-1.5057,-1.4936,-1.4949,-1.5089,-1.5404,-1.5842,-1.6281,-1.65,-1.65,-1.65,-1.65,-1.65,-1.6685,-1.6814,-1.6989,-1.7275,-1.7225,-1.7002,-1.7451,-1.7614,-1.7664,-1.8053,-1.7852,-1.7423,-1.7574,-1.7513,-1.7524,-1.8204,-1.8669,-1.9096,-1.9648,-1.9798,-1.9836,-1.9987,-2.0037,-2.0263,-2.1242,-2.1944,-2.2485,-2.2988,-2.3386,-2.3779,-2.42,-2.4452,-2.4823,-2.5563,-2.5508,-2.5339,-2.5398,-2.5508,-2.5826,-2.6454,-2.6937,-2.7264,-2.7408,-2.7659,-2.7584,-2.6892,-2.671,-2.6583,-2.6521,-2.6499,-2.6424,-2.6273,-2.6248,-2.5933,-2.5184,-2.4795,-2.4487,-2.4324,-2.3723,-2.3538,-2.3753,-2.4519,-2.4794,-2.4624,-2.555,-2.6295,0.0,0.0,0.0,0.0,0.0,0.0,-1.0303,-1.0605,0.0,0.0,0.0,0.0,0.0,0.0,0.0,0.0,0.0,0.0,0.0,0.0,0.0,0.0,0.0,0.0,0.0,-1.4698,-1.4858,-1.5208,-1.4903,-1.4744,-1.4835,-1.4858,-1.4721,-1.4491,-1.4249,-1.4192,-1.4329,-1.4686,-1.5128,-1.561,-1.6216,-1.65,-1.65,-1.65,-1.65,-1.65,-1.65,-1.65,-1.6525,-1.6886,-1.6823,-1.6525,-1.6886,-1.7024,-1.7061,-1.7388,-1.73,-1.7024,-1.7024,-1.7024,-1.7112,-1.7677,-1.8078,-1.8456,-1.9246,-1.9472,-1.9497,-1.9748,-1.9798,-2.0012,-2.0943,-2.1595,-2.2093,-2.2383,-2.3132,-2.3706,-2.3508,-2.3919,-2.4423,-2.4879,-2.4869,-2.4744,-2.4478,-2.4651,-2.5047,-2.5691,-2.5834,-2.6003,-2.6417,-2.6283,-2.6044,-2.5816,-2.5607,-2.5644,-2.6097,-2.6135,-2.6135,-2.6135,-2.6361,-2.6034,-2.4971,-2.5071,-2.4788,-2.4098,-2.3672,-2.3509,-2.364,-2.4083,-2.4452,-2.4766,-2.5203,-2.5618,0.0,0.0,0.0,0.0,0.0,0.0,-1.0312,-1.0576,-1.084,0.0,0.0,0.0,0.0,0.0,0.0,0.0,0.0,0.0,0.0,0.0,0.0,0.0,0.0,0.0,-1.4348,-1.4359,-1.4382,-1.445,-1.445,-1.4244,-1.3765,-1.3718,-1.3501,-1.3017,-1.2943,-1.3164,-1.3684,-1.4332,-1.4937,-1.5521,-1.6173,-1.65,-1.65,-1.65,-1.65,-1.65,-1.65,-1.65,-1.65,-1.65,-1.65,-1.65,-1.65,-1.65,-1.65,-1.65,-1.65,-1.65,-1.65,-1.65,-1.6588,-1.7187,-1.7448,-1.7664,-1.8694,-1.9045,-1.9183,-1.9673,-1.985,-2.004,-2.0567,-2.1111,-2.1529,-2.1584,-2.2855,-2.3764,-2.2631,-2.3331,-2.4176,-2.4176,-2.4013,-2.374,-2.3195,-2.3521,-2.4182,-2.496,-2.4466,-2.4462,-2.5787,-2.4922,-2.4343,-2.477,-2.4443,-2.4556,-2.5511,-2.5598,-2.5624,-2.5686,-2.621,-2.5833,-2.433,-2.5121,-2.4908,-2.3409,-2.3803,-2.3715,-2.3108,-2.3826,-2.4567,-2.5287,-2.5175,-2.5203,0.0,0.0,0.0,0.0,0.0,0.0,-1.0361,-1.0361,-1.042,0.0,0.0,0.0,0.0,0.0,0.0,0.0,0.0,0.0,0.0,0.0,0.0,0.0,0.0,0.0,-1.2262,-1.2196,-1.2415,-1.2883,-1.2926,-1.3021,-1.3236,-1.3235,-1.3368,-1.3627,-1.3261,-1.3065,-1.3079,-1.3833,-1.4428,-1.4903,-1.5976,-1.65,-1.65,-1.65,-1.65,-1.65,-1.65,-1.65,-1.65,-1.65,-1.65,-1.65,-1.65,-1.65,-1.65,-1.65,-1.65,-1.65,-1.65,-1.65,-1.6588,-1.7187,-1.7689,-1.8166,-1.8807,-1.9296,-1.9673,-1.9773,-2.0207,-2.0614,-2.0673,-2.1155,-2.1691,-2.2046,-2.2425,-2.2736,-2.2899,-2.314,-2.3335,-2.3335,-2.3316,-2.3233,-2.312,-2.3195,-2.3482,-2.4151,-2.4116,-2.4255,-2.4957,-2.5181,-2.5159,-2.4825,-2.5096,-2.5372,-2.5573,-2.5598,-2.5799,-2.6298,-2.6436,-2.6348,-2.6034,-2.577,-2.5448,-2.5121,-2.4381,-2.3715,-2.3108,-2.3258,-2.3738,-2.4509,-2.3842,-2.3901,0.0,0.0,0.0,-1.0997,0.0,0.0,0.0,-1.043,-1.0264,-1.0116,0.0,0.0,0.0,0.0,0.0,0.0,0.0,0.0,0.0,0.0,0.0,0.0,0.0,0.0,-1.1628,-1.1606,-1.1737,-1.2019,-1.2041,-1.2143,-1.2335,-1.2345,-1.2558,-1.3003,-1.2767,-1.2868,-1.3348,-1.4065,-1.4642,-1.5163,-1.6086,-1.65,-1.65,-1.65,-1.65,-1.65,-1.65,-1.65,-1.65,-1.65,-1.65,-1.65,-1.65,-1.65,-1.65,-1.65,-1.65,-1.65,-1.65,-1.65,-1.655,-1.6861,-1.7338,-1.7903,-1.8455,-1.9146,-1.9798,-1.9798,-2.0055,-2.0297,-2.0267,-2.069,-2.1207,-2.1438,-2.1907,-2.2355,-2.2631,-2.2907,-2.3108,-2.3108,-2.3108,-2.3108,-2.3108,-2.3108,-2.3195,-2.3496,-2.3534,-2.3634,-2.391,-2.4173,-2.4381,-2.4406,-2.4644,-2.5021,-2.5548,-2.5598,-2.585,-2.6461,-2.6499,-2.6361,-2.6072,-2.6059,-2.5774,-2.5222,-2.4098,-2.3396,-2.3108,-2.3108,-2.3305,-2.3679,-2.3275,-2.3305,0.0,0.0,0.0,0.0,0.0,-1.0683,0.0,0.0,0.0,-1.0047,0.0,0.0,0.0,0.0,0.0,0.0,0.0,0.0,0.0,0.0,0.0,0.0,0.0,0.0,0.0,-1.1361,-1.1361,-1.1361,-1.1361,-1.1369,-1.1447,-1.1479,-1.1702,-1.2184,-1.2309,-1.2822,-1.3792,-1.4514,-1.5118,-1.561,-1.6216,-1.65,-1.65,-1.65,-1.65,-1.65,-1.65,-1.65,-1.65,-1.65,-1.65,-1.65,-1.65,-1.65,-1.65,-1.65,-1.65,-1.65,-1.65,-1.65,-1.65,-1.65,-1.6986,-1.7664,-1.8317,-1.9108,-1.9798,-1.9798,-1.9798,-1.9798,-1.9798,-2.015,-2.0553,-2.0666,-2.143,-2.2184,-2.2284,-2.2719,-2.3108,-2.3108,-2.3108,-2.3108,-2.3108,-2.3108,-2.3108,-2.3108,-2.3108,-2.3145,-2.3258,-2.3358,-2.3609,-2.4104,-2.4255,-2.4657,-2.5523,-2.5598,-2.585,-2.6461,-2.6499,-2.6235,-2.5624,-2.5883,-2.5607,-2.465,-2.3634,-2.3108,-2.3108,-2.3221,-2.3208,-2.3108,-2.3108,-2.3108,0.0,0.0,0.0,0.0,-1.1057,0.0,0.0,0.0,-1.0722,-1.0341,0.0,0.0,0.0,0.0,0.0,0.0,0.0,0.0,0.0,0.0,0.0,0.0,0.0,0.0,0.0,-1.0449,-1.0449,-1.0449,-1.0449,-1.0596,-1.0967,-1.0977,-1.1346,-1.2174,-1.2713,-1.3261,-1.3792,-1.4926,-1.5543,-1.561,-1.6216,-1.65,-1.65,-1.65,-1.65,-1.65,-1.65,-1.65,-1.65,-1.65,-1.65,-1.65,-1.65,-1.65,-1.65,-1.65,-1.65,-1.65,-1.65,-1.65,-1.65,-1.65,-1.7215,-1.8304,-1.9309,-1.971,-1.9798,-1.9798,-1.9798,-1.9798,-1.9798,-1.9849,-2.0024,-2.0566,-2.1169,-2.1719,-2.2209,-2.2719,-2.3108,-2.3108,-2.3108,-2.3108,-2.3108,-2.3108,-2.3108,-2.3108,-2.3108,-2.3283,-2.3841,-2.4299,-2.4625,-2.4687,-2.5146,-2.546,-2.5586,-2.5598,-2.585,-2.6461,-2.6499,-2.6235,-2.5624,-2.4745,-2.4217,-2.4092,-2.3434,-2.3108,-2.3108,-2.3653,-2.364,-2.3108,-2.3108,-2.3108,0.0,0.0,0.0,0.0,0.0,0.0,-1.0746,0.0,-1.0326,0.0,0.0,0.0,0.0,0.0,0.0,0.0,0.0,0.0,0.0,0.0,0.0,0.0,0.0,0.0,0.0,0.0,0.0,0.0,-0.9379,-0.9591,-1.0067,-1.0311,-1.1033,-1.2338,-1.2861,-1.367,-1.4835,-1.5353,-1.5776,-1.6129,-1.638,-1.65,-1.65,-1.65,-1.65,-1.65,-1.65,-1.65,-1.65,-1.65,-1.65,-1.65,-1.65,-1.65,-1.65,-1.65,-1.65,-1.65,-1.65,-1.65,-1.655,-1.6911,-1.7551,-1.8342,-1.9096,-1.956,-1.9798,-1.9798,-1.9798,-1.9798,-1.9798,-1.9798,-2.0024,-2.0955,-2.1358,-2.1732,-2.2569,-2.2945,-2.3108,-2.3108,-2.3108,-2.3108,-2.3108,-2.3108,-2.3108,-2.3108,-2.3108,-2.3308,-2.3916,-2.4205,-2.4582,-2.5209,-2.5473,-2.5737,-2.6097,-2.6135,-2.6235,-2.6474,-2.6172,-2.5711,-2.5172,-2.4406,-2.4004,-2.4004,-2.3753,-2.3446,-2.3108,-2.3715,-2.3879,-2.364,-2.3935,-2.4146,-1.2734,0.0,0.0,0.0,0.0,0.0,0.0,0.0,0.0,0.0,0.0,0.0,0.0,0.0,0.0,0.0,0.0,0.0,0.0,0.0,0.0,0.0,0.0,0.0,0.0,0.0,0.0,-0.8724,-0.8695,-0.8938,-0.9478,-0.9903,-1.0853,-1.2447,-1.3076,-1.4081,-1.5576,-1.5764,-1.6073,-1.65,-1.65,-1.65,-1.65,-1.65,-1.65,-1.65,-1.65,-1.65,-1.65,-1.65,-1.6402,-1.6259,-1.6445,-1.6402,-1.6259,-1.6445,-1.65,-1.65,-1.65,-1.65,-1.6588,-1.7187,-1.7752,-1.8304,-1.8845,-1.9359,-1.9798,-1.9798,-1.9798,-1.9798,-1.9798,-1.9798,-2.0012,-2.0828,-2.1255,-2.1707,-2.2481,-2.2895,-2.3108,-2.3108,-2.3108,-2.3108,-2.3108,-2.3108,-2.3108,-2.3108,-2.3108,-2.3248,-2.3591,-2.3867,-2.431,-2.5161,-2.5328,-2.5611,-2.621,-2.6122,-2.6047,-2.6047,-2.5473,-2.4983,-2.4607,-2.4054,-2.3766,-2.3766,-2.3916,-2.3791,-2.3346,-2.4092,-2.4431,-2.4431,-2.4381,-2.4719,0.0,0.0,0.0,-1.1521,0.0,0.0,0.0,0.0,-1.0915,0.0,0.0,0.0,0.0,0.0,0.0,0.0,0.0,0.0,0.0,0.0,0.0,0.0,0.0,0.0,0.0,0.0,0.0,-0.8695,-0.8695,-0.8938,-0.9478,-0.9952,-1.0895,-1.2457,-1.3526,-1.4562,-1.5598,-1.6194,-1.6466,-1.65,-1.65,-1.65,-1.65,-1.65,-1.65,-1.65,-1.65,-1.65,-1.65,-1.65,-1.6173,-1.5698,-1.6259,-1.6139,-1.5698,-1.6281,-1.65,-1.65,-1.65,-1.65,-1.6588,-1.7187,-1.7752,-1.8304,-1.8845,-1.9359,-1.9798,-1.9798,-1.9798,-1.9798,-1.9798,-1.9798,-1.9811,-1.9849,-2.069,-2.1493,-2.1531,-2.2385,-2.3108,-2.3108,-2.3108,-2.3108,-2.3108,-2.3108,-2.3108,-2.3108,-2.3108,-2.3021,-2.2751,-2.3496,-2.4107,-2.4304,-2.4616,-2.5059,-2.5573,-2.5159,-2.4838,-2.4838,-2.4356,-2.4042,-2.4029,-2.3446,-2.3133,-2.3133,-2.3715,-2.3991,-2.3966,-2.5034,-2.5548,-2.5498,-2.3898,-2.4187,0.0,0.0,-1.2209,-1.2305,0.0,0.0,0.0,0.0,0.0,0.0,0.0,0.0,0.0,0.0,0.0,0.0,0.0,0.0,0.0,0.0,0.0,0.0,0.0,0.0,0.0,0.0,0.0,-0.7599,-0.7579,-0.7992,-0.8918,-0.9377,-1.0506,-1.2498,-1.3173,-1.4199,-1.5652,-1.5865,-1.6158,-1.65,-1.65,-1.65,-1.65,-1.65,-1.65,-1.65,-1.65,-1.6259,-1.5908,-1.5908,-1.5555,-1.5017,-1.522,-1.5444,-1.5676,-1.6281,-1.65,-1.65,-1.65,-1.65,-1.6525,-1.6748,-1.72,-1.7689,-1.789,-1.8568,-1.9259,-1.9259,-1.9535,-1.9798,-1.9798,-1.9798,-1.9899,-2.0314,-2.0968,-2.1594,-2.1958,-2.2581,-2.3108,-2.3108,-2.3108,-2.3108,-2.3108,-2.3108,-2.3108,-2.3108,-2.2641,-2.2411,-2.2655,-2.2963,-2.3293,-2.3714,-2.4702,-2.5272,-2.5096,-2.4888,-2.4637,-2.4305,-2.4104,-2.3828,-2.3409,-2.3208,-2.3283,-2.3703,-2.4255,-2.4544,-2.4544,-2.5259,-2.5598,-2.5607,-2.5266,-2.5884,-1.2905,-1.2369,0.0,-1.2725,-1.2344,0.0,-1.0939,0.0,0.0,0.0,0.0,0.0,0.0,0.0,0.0,0.0,0.0,0.0,0.0,-0.9279,0.0,0.0,0.0,0.0,0.0,0.0,-0.7655,-0.7042,-0.7,-0.7502,0.0,0.0,-1.0348,-1.2541,-1.3003,-1.3938,-1.5392,-1.5424,-1.558,-1.5932,-1.6132,-1.622,-1.6212,-1.6194,-1.6194,-1.6173,-1.5942,-1.5754,-1.561,-1.561,-1.5365,-1.5017,-1.5017,-1.513,-1.532,-1.5722,-1.5998,-1.6216,-1.6423,-1.65,-1.65,-1.65,-1.6911,-1.741,-1.741,-1.8154,-1.9008,-1.9008,-1.9397,-1.9798,-1.9798,-1.9618,-1.951,-1.9906,-2.022,-2.0528,-2.0867,-2.1729,-2.2436,-2.2436,-2.2777,-2.3017,-2.272,-2.2659,-2.2659,-2.2659,-2.223,-2.1808,-2.1516,-2.2013,-2.2515,-2.2727,-2.4132,-2.4895,-2.4525,-2.4531,-2.4293,-2.3728,-2.369,-2.3496,-2.312,-2.3308,-2.3672,-2.428,-2.4612,-2.5008,-2.541,-2.5536,-2.5866,-2.6363,-2.6882,-2.7742]}]]